<?xml version="1.0" encoding="UTF-8" standalone="no" ?>
<gpx xmlns="http://www.topografix.com/GPX/1/1" xmlns:xsi="http://www.w3.org/2001/XMLSchema-instance" xsi:schemaLocation="http://www.topografix.com/GPX/1/1 http://www.topografix.com/GPX/1/1/gpx.xsd" version="1.1" creator="VisuGPX - https://www.visugpx.com">
  <metadata>
    <name>écappée jurassienne étape11 Ilay/Foncine le Bas</name>
    <desc><![CDATA[Sans aucun doute la pire journée de mon périple, à peine dix minute après mon départ, une fois de plus la cape de pluie sur le dos direction le Pic de L'Aigle ou pour saluer mon arrivée, tonnerre éclairs et trombe d'eau, au belvédère des 4 lacs, aucune visibilité, la prudence s'impose pour passer au bord de la falaise et rejoindre Pont de la Chaux. L'orage est passé, mais pas la pluie, je continue sur le GR jusque'au col du Gyps, et je renonce à passer derrière la montagne ronde, et prends à droite pour gagner Les Planches en Montagne, puis je rejoins Foncine le Bas en suivant la D127. Merci au Marandon pour l'accueil et les journeaux pour les chaussures.  ]]></desc>
  </metadata>
  <trk>
    <name><![CDATA[Jura K Ilay/Foncine le Bas 11-JUIN-16 06:29:41 PM]]></name>
    <trkseg>
      <trkpt lat="46.61512" lon="5.88618">
        <ele>791.3</ele>
        <time>2016-06-10T13:41:02Z</time>
      </trkpt>
      <trkpt lat="46.61512" lon="5.88618">
        <ele>790.82</ele>
        <time>2016-06-10T13:41:05Z</time>
      </trkpt>
      <trkpt lat="46.61513" lon="5.88619">
        <ele>790.82</ele>
        <time>2016-06-10T13:41:09Z</time>
      </trkpt>
      <trkpt lat="46.61426" lon="5.88729">
        <ele>828.31</ele>
        <time>2016-06-11T06:52:41Z</time>
      </trkpt>
      <trkpt lat="46.61442" lon="5.88704">
        <ele>830.24</ele>
        <time>2016-06-11T06:53:01Z</time>
      </trkpt>
      <trkpt lat="46.61455" lon="5.88698">
        <ele>811.49</ele>
        <time>2016-06-11T06:53:04Z</time>
      </trkpt>
      <trkpt lat="46.61456" lon="5.88691">
        <ele>790.34</ele>
        <time>2016-06-11T06:53:14Z</time>
      </trkpt>
      <trkpt lat="46.61457" lon="5.887">
        <ele>781.21</ele>
        <time>2016-06-11T06:53:27Z</time>
      </trkpt>
      <trkpt lat="46.61459" lon="5.8872">
        <ele>775.92</ele>
        <time>2016-06-11T06:53:42Z</time>
      </trkpt>
      <trkpt lat="46.61457" lon="5.8874">
        <ele>772.08</ele>
        <time>2016-06-11T06:53:56Z</time>
      </trkpt>
      <trkpt lat="46.61455" lon="5.88761">
        <ele>770.63</ele>
        <time>2016-06-11T06:54:10Z</time>
      </trkpt>
      <trkpt lat="46.61454" lon="5.88772">
        <ele>770.63</ele>
        <time>2016-06-11T06:54:16Z</time>
      </trkpt>
      <trkpt lat="46.6145" lon="5.88797">
        <ele>770.63</ele>
        <time>2016-06-11T06:54:31Z</time>
      </trkpt>
      <trkpt lat="46.61451" lon="5.88811">
        <ele>767.27</ele>
        <time>2016-06-11T06:54:43Z</time>
      </trkpt>
      <trkpt lat="46.6145" lon="5.88815">
        <ele>766.31</ele>
        <time>2016-06-11T06:54:46Z</time>
      </trkpt>
      <trkpt lat="46.61447" lon="5.88843">
        <ele>763.9</ele>
        <time>2016-06-11T06:55:00Z</time>
      </trkpt>
      <trkpt lat="46.61444" lon="5.88861">
        <ele>761.02</ele>
        <time>2016-06-11T06:55:12Z</time>
      </trkpt>
      <trkpt lat="46.61442" lon="5.88885">
        <ele>759.1</ele>
        <time>2016-06-11T06:55:24Z</time>
      </trkpt>
      <trkpt lat="46.61448" lon="5.88899">
        <ele>756.69</ele>
        <time>2016-06-11T06:55:36Z</time>
      </trkpt>
      <trkpt lat="46.61454" lon="5.88904">
        <ele>751.89</ele>
        <time>2016-06-11T06:55:48Z</time>
      </trkpt>
      <trkpt lat="46.61459" lon="5.88906">
        <ele>750.45</ele>
        <time>2016-06-11T06:55:56Z</time>
      </trkpt>
      <trkpt lat="46.61461" lon="5.88915">
        <ele>748.52</ele>
        <time>2016-06-11T06:56:04Z</time>
      </trkpt>
      <trkpt lat="46.61464" lon="5.88928">
        <ele>749</ele>
        <time>2016-06-11T06:56:12Z</time>
      </trkpt>
      <trkpt lat="46.61466" lon="5.88933">
        <ele>749.49</ele>
        <time>2016-06-11T06:56:15Z</time>
      </trkpt>
      <trkpt lat="46.61467" lon="5.88937">
        <ele>749.49</ele>
        <time>2016-06-11T06:56:17Z</time>
      </trkpt>
      <trkpt lat="46.61472" lon="5.88957">
        <ele>749</ele>
        <time>2016-06-11T06:56:30Z</time>
      </trkpt>
      <trkpt lat="46.61478" lon="5.88969">
        <ele>747.08</ele>
        <time>2016-06-11T06:56:40Z</time>
      </trkpt>
      <trkpt lat="46.61481" lon="5.88978">
        <ele>745.64</ele>
        <time>2016-06-11T06:56:46Z</time>
      </trkpt>
      <trkpt lat="46.6149" lon="5.88991">
        <ele>742.76</ele>
        <time>2016-06-11T06:56:57Z</time>
      </trkpt>
      <trkpt lat="46.61496" lon="5.89003">
        <ele>739.87</ele>
        <time>2016-06-11T06:57:07Z</time>
      </trkpt>
      <trkpt lat="46.615" lon="5.89009">
        <ele>739.39</ele>
        <time>2016-06-11T06:57:11Z</time>
      </trkpt>
      <trkpt lat="46.61502" lon="5.89012">
        <ele>738.91</ele>
        <time>2016-06-11T06:57:13Z</time>
      </trkpt>
      <trkpt lat="46.61505" lon="5.89016">
        <ele>738.43</ele>
        <time>2016-06-11T06:57:16Z</time>
      </trkpt>
      <trkpt lat="46.61509" lon="5.89029">
        <ele>737.47</ele>
        <time>2016-06-11T06:57:24Z</time>
      </trkpt>
      <trkpt lat="46.61512" lon="5.89061">
        <ele>741.31</ele>
        <time>2016-06-11T06:57:36Z</time>
      </trkpt>
      <trkpt lat="46.61514" lon="5.89081">
        <ele>740.83</ele>
        <time>2016-06-11T06:57:45Z</time>
      </trkpt>
      <trkpt lat="46.6152" lon="5.89103">
        <ele>739.87</ele>
        <time>2016-06-11T06:57:58Z</time>
      </trkpt>
      <trkpt lat="46.61521" lon="5.89108">
        <ele>740.35</ele>
        <time>2016-06-11T06:58:01Z</time>
      </trkpt>
      <trkpt lat="46.61527" lon="5.89117">
        <ele>743.72</ele>
        <time>2016-06-11T06:58:13Z</time>
      </trkpt>
      <trkpt lat="46.61526" lon="5.8912">
        <ele>746.12</ele>
        <time>2016-06-11T06:58:16Z</time>
      </trkpt>
      <trkpt lat="46.61517" lon="5.89131">
        <ele>750.93</ele>
        <time>2016-06-11T06:58:28Z</time>
      </trkpt>
      <trkpt lat="46.6151" lon="5.89137">
        <ele>753.81</ele>
        <time>2016-06-11T06:58:35Z</time>
      </trkpt>
      <trkpt lat="46.61495" lon="5.89142">
        <ele>758.62</ele>
        <time>2016-06-11T06:58:48Z</time>
      </trkpt>
      <trkpt lat="46.61481" lon="5.89144">
        <ele>769.19</ele>
        <time>2016-06-11T06:59:02Z</time>
      </trkpt>
      <trkpt lat="46.61467" lon="5.89149">
        <ele>772.56</ele>
        <time>2016-06-11T06:59:15Z</time>
      </trkpt>
      <trkpt lat="46.61454" lon="5.89151">
        <ele>777.84</ele>
        <time>2016-06-11T06:59:28Z</time>
      </trkpt>
      <trkpt lat="46.61439" lon="5.89154">
        <ele>781.69</ele>
        <time>2016-06-11T06:59:42Z</time>
      </trkpt>
      <trkpt lat="46.61426" lon="5.89158">
        <ele>777.84</ele>
        <time>2016-06-11T06:59:57Z</time>
      </trkpt>
      <trkpt lat="46.61419" lon="5.89164">
        <ele>776.4</ele>
        <time>2016-06-11T07:00:12Z</time>
      </trkpt>
      <trkpt lat="46.61415" lon="5.89164">
        <ele>777.84</ele>
        <time>2016-06-11T07:00:23Z</time>
      </trkpt>
      <trkpt lat="46.6141" lon="5.89167">
        <ele>778.32</ele>
        <time>2016-06-11T07:00:30Z</time>
      </trkpt>
      <trkpt lat="46.61404" lon="5.89176">
        <ele>779.29</ele>
        <time>2016-06-11T07:00:41Z</time>
      </trkpt>
      <trkpt lat="46.61396" lon="5.89183">
        <ele>779.29</ele>
        <time>2016-06-11T07:00:52Z</time>
      </trkpt>
      <trkpt lat="46.6139" lon="5.8919">
        <ele>779.77</ele>
        <time>2016-06-11T07:01:03Z</time>
      </trkpt>
      <trkpt lat="46.61382" lon="5.89196">
        <ele>780.73</ele>
        <time>2016-06-11T07:01:14Z</time>
      </trkpt>
      <trkpt lat="46.61371" lon="5.89207">
        <ele>780.73</ele>
        <time>2016-06-11T07:01:26Z</time>
      </trkpt>
      <trkpt lat="46.61366" lon="5.89211">
        <ele>781.21</ele>
        <time>2016-06-11T07:01:32Z</time>
      </trkpt>
      <trkpt lat="46.61364" lon="5.89215">
        <ele>781.69</ele>
        <time>2016-06-11T07:01:35Z</time>
      </trkpt>
      <trkpt lat="46.6135" lon="5.89232">
        <ele>786.98</ele>
        <time>2016-06-11T07:01:47Z</time>
      </trkpt>
      <trkpt lat="46.61342" lon="5.89243">
        <ele>787.46</ele>
        <time>2016-06-11T07:01:59Z</time>
      </trkpt>
      <trkpt lat="46.61337" lon="5.89254">
        <ele>786.5</ele>
        <time>2016-06-11T07:02:10Z</time>
      </trkpt>
      <trkpt lat="46.61332" lon="5.89265">
        <ele>787.46</ele>
        <time>2016-06-11T07:02:21Z</time>
      </trkpt>
      <trkpt lat="46.6133" lon="5.8927">
        <ele>786.98</ele>
        <time>2016-06-11T07:02:26Z</time>
      </trkpt>
      <trkpt lat="46.61326" lon="5.89284">
        <ele>786.5</ele>
        <time>2016-06-11T07:02:37Z</time>
      </trkpt>
      <trkpt lat="46.6132" lon="5.89297">
        <ele>787.94</ele>
        <time>2016-06-11T07:02:52Z</time>
      </trkpt>
      <trkpt lat="46.61317" lon="5.89307">
        <ele>787.94</ele>
        <time>2016-06-11T07:03:06Z</time>
      </trkpt>
      <trkpt lat="46.6132" lon="5.89325">
        <ele>786.5</ele>
        <time>2016-06-11T07:03:20Z</time>
      </trkpt>
      <trkpt lat="46.61322" lon="5.89343">
        <ele>785.05</ele>
        <time>2016-06-11T07:03:31Z</time>
      </trkpt>
      <trkpt lat="46.61329" lon="5.89353">
        <ele>781.21</ele>
        <time>2016-06-11T07:03:41Z</time>
      </trkpt>
      <trkpt lat="46.61341" lon="5.89364">
        <ele>778.81</ele>
        <time>2016-06-11T07:03:54Z</time>
      </trkpt>
      <trkpt lat="46.61341" lon="5.89385">
        <ele>776.88</ele>
        <time>2016-06-11T07:04:06Z</time>
      </trkpt>
      <trkpt lat="46.61344" lon="5.89402">
        <ele>780.25</ele>
        <time>2016-06-11T07:04:18Z</time>
      </trkpt>
      <trkpt lat="46.61346" lon="5.89419">
        <ele>784.09</ele>
        <time>2016-06-11T07:04:28Z</time>
      </trkpt>
      <trkpt lat="46.61345" lon="5.89428">
        <ele>784.09</ele>
        <time>2016-06-11T07:04:40Z</time>
      </trkpt>
      <trkpt lat="46.6134" lon="5.89439">
        <ele>785.05</ele>
        <time>2016-06-11T07:04:54Z</time>
      </trkpt>
      <trkpt lat="46.61335" lon="5.89445">
        <ele>785.53</ele>
        <time>2016-06-11T07:05:07Z</time>
      </trkpt>
      <trkpt lat="46.61327" lon="5.89447">
        <ele>786.02</ele>
        <time>2016-06-11T07:05:20Z</time>
      </trkpt>
      <trkpt lat="46.61303" lon="5.89456">
        <ele>793.71</ele>
        <time>2016-06-11T07:05:33Z</time>
      </trkpt>
      <trkpt lat="46.61291" lon="5.89464">
        <ele>799.47</ele>
        <time>2016-06-11T07:05:45Z</time>
      </trkpt>
      <trkpt lat="46.6129" lon="5.89468">
        <ele>800.92</ele>
        <time>2016-06-11T07:05:52Z</time>
      </trkpt>
      <trkpt lat="46.6129" lon="5.89469">
        <ele>801.4</ele>
        <time>2016-06-11T07:05:54Z</time>
      </trkpt>
      <trkpt lat="46.61292" lon="5.89481">
        <ele>803.8</ele>
        <time>2016-06-11T07:06:04Z</time>
      </trkpt>
      <trkpt lat="46.61293" lon="5.89484">
        <ele>804.28</ele>
        <time>2016-06-11T07:06:06Z</time>
      </trkpt>
      <trkpt lat="46.61298" lon="5.89515">
        <ele>809.57</ele>
        <time>2016-06-11T07:06:21Z</time>
      </trkpt>
      <trkpt lat="46.61299" lon="5.89534">
        <ele>811.97</ele>
        <time>2016-06-11T07:06:34Z</time>
      </trkpt>
      <trkpt lat="46.613" lon="5.89544">
        <ele>812.93</ele>
        <time>2016-06-11T07:06:41Z</time>
      </trkpt>
      <trkpt lat="46.61312" lon="5.89557">
        <ele>810.53</ele>
        <time>2016-06-11T07:06:54Z</time>
      </trkpt>
      <trkpt lat="46.61318" lon="5.89568">
        <ele>807.16</ele>
        <time>2016-06-11T07:07:07Z</time>
      </trkpt>
      <trkpt lat="46.61327" lon="5.89587">
        <ele>806.68</ele>
        <time>2016-06-11T07:07:19Z</time>
      </trkpt>
      <trkpt lat="46.61337" lon="5.89603">
        <ele>803.32</ele>
        <time>2016-06-11T07:07:31Z</time>
      </trkpt>
      <trkpt lat="46.61344" lon="5.8962">
        <ele>804.28</ele>
        <time>2016-06-11T07:07:42Z</time>
      </trkpt>
      <trkpt lat="46.61349" lon="5.89631">
        <ele>804.28</ele>
        <time>2016-06-11T07:07:53Z</time>
      </trkpt>
      <trkpt lat="46.6135" lon="5.89647">
        <ele>802.84</ele>
        <time>2016-06-11T07:08:05Z</time>
      </trkpt>
      <trkpt lat="46.61348" lon="5.89673">
        <ele>804.76</ele>
        <time>2016-06-11T07:08:17Z</time>
      </trkpt>
      <trkpt lat="46.61345" lon="5.89681">
        <ele>804.76</ele>
        <time>2016-06-11T07:08:28Z</time>
      </trkpt>
      <trkpt lat="46.61342" lon="5.89694">
        <ele>802.36</ele>
        <time>2016-06-11T07:08:41Z</time>
      </trkpt>
      <trkpt lat="46.61341" lon="5.89703">
        <ele>802.84</ele>
        <time>2016-06-11T07:08:58Z</time>
      </trkpt>
      <trkpt lat="46.61337" lon="5.89724">
        <ele>805.24</ele>
        <time>2016-06-11T07:09:14Z</time>
      </trkpt>
      <trkpt lat="46.61329" lon="5.89738">
        <ele>806.68</ele>
        <time>2016-06-11T07:09:27Z</time>
      </trkpt>
      <trkpt lat="46.61318" lon="5.89749">
        <ele>807.64</ele>
        <time>2016-06-11T07:09:39Z</time>
      </trkpt>
      <trkpt lat="46.61303" lon="5.8976">
        <ele>808.13</ele>
        <time>2016-06-11T07:09:54Z</time>
      </trkpt>
      <trkpt lat="46.6129" lon="5.89767">
        <ele>810.05</ele>
        <time>2016-06-11T07:10:06Z</time>
      </trkpt>
      <trkpt lat="46.61286" lon="5.89771">
        <ele>810.53</ele>
        <time>2016-06-11T07:10:24Z</time>
      </trkpt>
      <trkpt lat="46.61275" lon="5.8978">
        <ele>811.49</ele>
        <time>2016-06-11T07:10:38Z</time>
      </trkpt>
      <trkpt lat="46.61264" lon="5.89792">
        <ele>814.85</ele>
        <time>2016-06-11T07:10:51Z</time>
      </trkpt>
      <trkpt lat="46.61257" lon="5.89797">
        <ele>819.18</ele>
        <time>2016-06-11T07:10:57Z</time>
      </trkpt>
      <trkpt lat="46.61246" lon="5.89807">
        <ele>822.06</ele>
        <time>2016-06-11T07:11:11Z</time>
      </trkpt>
      <trkpt lat="46.61244" lon="5.89814">
        <ele>824.47</ele>
        <time>2016-06-11T07:11:29Z</time>
      </trkpt>
      <trkpt lat="46.61236" lon="5.89823">
        <ele>825.91</ele>
        <time>2016-06-11T07:11:42Z</time>
      </trkpt>
      <trkpt lat="46.61226" lon="5.89832">
        <ele>826.39</ele>
        <time>2016-06-11T07:11:55Z</time>
      </trkpt>
      <trkpt lat="46.61217" lon="5.89841">
        <ele>826.39</ele>
        <time>2016-06-11T07:12:09Z</time>
      </trkpt>
      <trkpt lat="46.61206" lon="5.89852">
        <ele>826.87</ele>
        <time>2016-06-11T07:12:19Z</time>
      </trkpt>
      <trkpt lat="46.61198" lon="5.89863">
        <ele>827.83</ele>
        <time>2016-06-11T07:12:32Z</time>
      </trkpt>
      <trkpt lat="46.61191" lon="5.89872">
        <ele>827.83</ele>
        <time>2016-06-11T07:12:47Z</time>
      </trkpt>
      <trkpt lat="46.61185" lon="5.89877">
        <ele>828.79</ele>
        <time>2016-06-11T07:12:58Z</time>
      </trkpt>
      <trkpt lat="46.61177" lon="5.89889">
        <ele>825.91</ele>
        <time>2016-06-11T07:13:13Z</time>
      </trkpt>
      <trkpt lat="46.6117" lon="5.89904">
        <ele>825.43</ele>
        <time>2016-06-11T07:13:25Z</time>
      </trkpt>
      <trkpt lat="46.61168" lon="5.89918">
        <ele>826.87</ele>
        <time>2016-06-11T07:13:36Z</time>
      </trkpt>
      <trkpt lat="46.61166" lon="5.89932">
        <ele>827.35</ele>
        <time>2016-06-11T07:13:47Z</time>
      </trkpt>
      <trkpt lat="46.61163" lon="5.89945">
        <ele>828.31</ele>
        <time>2016-06-11T07:14:02Z</time>
      </trkpt>
      <trkpt lat="46.6116" lon="5.89959">
        <ele>831.2</ele>
        <time>2016-06-11T07:14:14Z</time>
      </trkpt>
      <trkpt lat="46.61154" lon="5.89976">
        <ele>831.2</ele>
        <time>2016-06-11T07:14:29Z</time>
      </trkpt>
      <trkpt lat="46.61151" lon="5.89988">
        <ele>832.64</ele>
        <time>2016-06-11T07:14:44Z</time>
      </trkpt>
      <trkpt lat="46.61148" lon="5.90002">
        <ele>834.08</ele>
        <time>2016-06-11T07:14:56Z</time>
      </trkpt>
      <trkpt lat="46.61148" lon="5.90017">
        <ele>836</ele>
        <time>2016-06-11T07:15:09Z</time>
      </trkpt>
      <trkpt lat="46.61145" lon="5.90032">
        <ele>839.37</ele>
        <time>2016-06-11T07:15:23Z</time>
      </trkpt>
      <trkpt lat="46.61145" lon="5.90033">
        <ele>839.37</ele>
        <time>2016-06-11T07:15:24Z</time>
      </trkpt>
      <trkpt lat="46.61142" lon="5.9005">
        <ele>842.25</ele>
        <time>2016-06-11T07:15:37Z</time>
      </trkpt>
      <trkpt lat="46.61142" lon="5.90057">
        <ele>843.69</ele>
        <time>2016-06-11T07:15:50Z</time>
      </trkpt>
      <trkpt lat="46.61141" lon="5.90067">
        <ele>844.66</ele>
        <time>2016-06-11T07:16:01Z</time>
      </trkpt>
      <trkpt lat="46.61143" lon="5.90083">
        <ele>843.69</ele>
        <time>2016-06-11T07:16:15Z</time>
      </trkpt>
      <trkpt lat="46.61144" lon="5.90098">
        <ele>845.14</ele>
        <time>2016-06-11T07:16:28Z</time>
      </trkpt>
      <trkpt lat="46.61144" lon="5.90106">
        <ele>845.62</ele>
        <time>2016-06-11T07:16:43Z</time>
      </trkpt>
      <trkpt lat="46.61142" lon="5.90109">
        <ele>845.62</ele>
        <time>2016-06-11T07:17:05Z</time>
      </trkpt>
      <trkpt lat="46.61142" lon="5.9011">
        <ele>845.62</ele>
        <time>2016-06-11T07:17:17Z</time>
      </trkpt>
      <trkpt lat="46.6114" lon="5.90111">
        <ele>845.62</ele>
        <time>2016-06-11T07:17:32Z</time>
      </trkpt>
      <trkpt lat="46.61142" lon="5.9011">
        <ele>845.62</ele>
        <time>2016-06-11T07:17:44Z</time>
      </trkpt>
      <trkpt lat="46.61141" lon="5.9011">
        <ele>846.1</ele>
        <time>2016-06-11T07:18:03Z</time>
      </trkpt>
      <trkpt lat="46.61141" lon="5.90112">
        <ele>846.1</ele>
        <time>2016-06-11T07:18:27Z</time>
      </trkpt>
      <trkpt lat="46.61141" lon="5.90109">
        <ele>846.1</ele>
        <time>2016-06-11T07:18:44Z</time>
      </trkpt>
      <trkpt lat="46.6114" lon="5.90109">
        <ele>846.58</ele>
        <time>2016-06-11T07:19:01Z</time>
      </trkpt>
      <trkpt lat="46.6114" lon="5.90109">
        <ele>847.54</ele>
        <time>2016-06-11T07:19:22Z</time>
      </trkpt>
      <trkpt lat="46.61137" lon="5.9011">
        <ele>848.02</ele>
        <time>2016-06-11T07:19:33Z</time>
      </trkpt>
      <trkpt lat="46.61137" lon="5.90112">
        <ele>847.54</ele>
        <time>2016-06-11T07:19:52Z</time>
      </trkpt>
      <trkpt lat="46.61137" lon="5.90112">
        <ele>848.02</ele>
        <time>2016-06-11T07:20:08Z</time>
      </trkpt>
      <trkpt lat="46.61137" lon="5.90112">
        <ele>848.02</ele>
        <time>2016-06-11T07:20:25Z</time>
      </trkpt>
      <trkpt lat="46.61136" lon="5.90113">
        <ele>849.94</ele>
        <time>2016-06-11T07:20:44Z</time>
      </trkpt>
      <trkpt lat="46.61135" lon="5.90112">
        <ele>850.9</ele>
        <time>2016-06-11T07:20:57Z</time>
      </trkpt>
      <trkpt lat="46.61134" lon="5.90112">
        <ele>853.79</ele>
        <time>2016-06-11T07:21:15Z</time>
      </trkpt>
      <trkpt lat="46.61134" lon="5.90112">
        <ele>855.23</ele>
        <time>2016-06-11T07:21:35Z</time>
      </trkpt>
      <trkpt lat="46.61134" lon="5.90113">
        <ele>854.75</ele>
        <time>2016-06-11T07:21:53Z</time>
      </trkpt>
      <trkpt lat="46.61134" lon="5.90115">
        <ele>855.23</ele>
        <time>2016-06-11T07:22:11Z</time>
      </trkpt>
      <trkpt lat="46.61131" lon="5.90121">
        <ele>857.15</ele>
        <time>2016-06-11T07:22:21Z</time>
      </trkpt>
      <trkpt lat="46.61128" lon="5.90127">
        <ele>861</ele>
        <time>2016-06-11T07:22:31Z</time>
      </trkpt>
      <trkpt lat="46.61122" lon="5.90135">
        <ele>863.88</ele>
        <time>2016-06-11T07:22:39Z</time>
      </trkpt>
      <trkpt lat="46.61117" lon="5.9014">
        <ele>863.88</ele>
        <time>2016-06-11T07:22:51Z</time>
      </trkpt>
      <trkpt lat="46.61109" lon="5.90147">
        <ele>865.32</ele>
        <time>2016-06-11T07:23:06Z</time>
      </trkpt>
      <trkpt lat="46.61106" lon="5.9015">
        <ele>866.77</ele>
        <time>2016-06-11T07:23:11Z</time>
      </trkpt>
      <trkpt lat="46.61099" lon="5.90154">
        <ele>866.77</ele>
        <time>2016-06-11T07:23:27Z</time>
      </trkpt>
      <trkpt lat="46.61099" lon="5.90155">
        <ele>866.29</ele>
        <time>2016-06-11T07:23:46Z</time>
      </trkpt>
      <trkpt lat="46.61099" lon="5.9016">
        <ele>865.8</ele>
        <time>2016-06-11T07:24:14Z</time>
      </trkpt>
      <trkpt lat="46.611" lon="5.90163">
        <ele>868.69</ele>
        <time>2016-06-11T07:24:32Z</time>
      </trkpt>
      <trkpt lat="46.61106" lon="5.9016">
        <ele>869.17</ele>
        <time>2016-06-11T07:24:44Z</time>
      </trkpt>
      <trkpt lat="46.61109" lon="5.90158">
        <ele>869.17</ele>
        <time>2016-06-11T07:24:58Z</time>
      </trkpt>
      <trkpt lat="46.61115" lon="5.90156">
        <ele>866.29</ele>
        <time>2016-06-11T07:25:10Z</time>
      </trkpt>
      <trkpt lat="46.6112" lon="5.90155">
        <ele>864.84</ele>
        <time>2016-06-11T07:25:18Z</time>
      </trkpt>
      <trkpt lat="46.61128" lon="5.90154">
        <ele>865.8</ele>
        <time>2016-06-11T07:25:26Z</time>
      </trkpt>
      <trkpt lat="46.61135" lon="5.90149">
        <ele>867.25</ele>
        <time>2016-06-11T07:25:36Z</time>
      </trkpt>
      <trkpt lat="46.6114" lon="5.90144">
        <ele>867.73</ele>
        <time>2016-06-11T07:25:42Z</time>
      </trkpt>
      <trkpt lat="46.61146" lon="5.90145">
        <ele>868.69</ele>
        <time>2016-06-11T07:25:53Z</time>
      </trkpt>
      <trkpt lat="46.61148" lon="5.90145">
        <ele>869.65</ele>
        <time>2016-06-11T07:26:08Z</time>
      </trkpt>
      <trkpt lat="46.6115" lon="5.90144">
        <ele>871.09</ele>
        <time>2016-06-11T07:26:25Z</time>
      </trkpt>
      <trkpt lat="46.61153" lon="5.90142">
        <ele>873.5</ele>
        <time>2016-06-11T07:26:39Z</time>
      </trkpt>
      <trkpt lat="46.6116" lon="5.90135">
        <ele>875.9</ele>
        <time>2016-06-11T07:26:56Z</time>
      </trkpt>
      <trkpt lat="46.61167" lon="5.90132">
        <ele>876.38</ele>
        <time>2016-06-11T07:27:08Z</time>
      </trkpt>
      <trkpt lat="46.6117" lon="5.90131">
        <ele>876.38</ele>
        <time>2016-06-11T07:27:23Z</time>
      </trkpt>
      <trkpt lat="46.61174" lon="5.90129">
        <ele>876.86</ele>
        <time>2016-06-11T07:27:39Z</time>
      </trkpt>
      <trkpt lat="46.61177" lon="5.90128">
        <ele>876.38</ele>
        <time>2016-06-11T07:27:56Z</time>
      </trkpt>
      <trkpt lat="46.61181" lon="5.90126">
        <ele>877.34</ele>
        <time>2016-06-11T07:28:11Z</time>
      </trkpt>
      <trkpt lat="46.61185" lon="5.90125">
        <ele>878.78</ele>
        <time>2016-06-11T07:28:23Z</time>
      </trkpt>
      <trkpt lat="46.61188" lon="5.90124">
        <ele>880.22</ele>
        <time>2016-06-11T07:28:35Z</time>
      </trkpt>
      <trkpt lat="46.61194" lon="5.90126">
        <ele>880.22</ele>
        <time>2016-06-11T07:28:50Z</time>
      </trkpt>
      <trkpt lat="46.61199" lon="5.90128">
        <ele>880.22</ele>
        <time>2016-06-11T07:29:03Z</time>
      </trkpt>
      <trkpt lat="46.61203" lon="5.90134">
        <ele>881.19</ele>
        <time>2016-06-11T07:29:20Z</time>
      </trkpt>
      <trkpt lat="46.61206" lon="5.90136">
        <ele>881.67</ele>
        <time>2016-06-11T07:29:35Z</time>
      </trkpt>
      <trkpt lat="46.61208" lon="5.90139">
        <ele>882.15</ele>
        <time>2016-06-11T07:29:54Z</time>
      </trkpt>
      <trkpt lat="46.61208" lon="5.90141">
        <ele>883.59</ele>
        <time>2016-06-11T07:30:13Z</time>
      </trkpt>
      <trkpt lat="46.61208" lon="5.90144">
        <ele>884.55</ele>
        <time>2016-06-11T07:30:31Z</time>
      </trkpt>
      <trkpt lat="46.61209" lon="5.90145">
        <ele>885.99</ele>
        <time>2016-06-11T07:30:49Z</time>
      </trkpt>
      <trkpt lat="46.61211" lon="5.90147">
        <ele>886.47</ele>
        <time>2016-06-11T07:31:06Z</time>
      </trkpt>
      <trkpt lat="46.61212" lon="5.90149">
        <ele>886.47</ele>
        <time>2016-06-11T07:31:21Z</time>
      </trkpt>
      <trkpt lat="46.61216" lon="5.90146">
        <ele>886.95</ele>
        <time>2016-06-11T07:31:37Z</time>
      </trkpt>
      <trkpt lat="46.6122" lon="5.90143">
        <ele>889.36</ele>
        <time>2016-06-11T07:31:55Z</time>
      </trkpt>
      <trkpt lat="46.61226" lon="5.90148">
        <ele>889.36</ele>
        <time>2016-06-11T07:32:11Z</time>
      </trkpt>
      <trkpt lat="46.6123" lon="5.90152">
        <ele>889.84</ele>
        <time>2016-06-11T07:32:21Z</time>
      </trkpt>
      <trkpt lat="46.61234" lon="5.90158">
        <ele>892.24</ele>
        <time>2016-06-11T07:32:36Z</time>
      </trkpt>
      <trkpt lat="46.61236" lon="5.90163">
        <ele>894.64</ele>
        <time>2016-06-11T07:32:53Z</time>
      </trkpt>
      <trkpt lat="46.61235" lon="5.9017">
        <ele>896.09</ele>
        <time>2016-06-11T07:33:10Z</time>
      </trkpt>
      <trkpt lat="46.61237" lon="5.90173">
        <ele>897.05</ele>
        <time>2016-06-11T07:33:23Z</time>
      </trkpt>
      <trkpt lat="46.6124" lon="5.90175">
        <ele>897.53</ele>
        <time>2016-06-11T07:33:34Z</time>
      </trkpt>
      <trkpt lat="46.61248" lon="5.90172">
        <ele>897.53</ele>
        <time>2016-06-11T07:33:48Z</time>
      </trkpt>
      <trkpt lat="46.6125" lon="5.9017">
        <ele>898.49</ele>
        <time>2016-06-11T07:34:00Z</time>
      </trkpt>
      <trkpt lat="46.61254" lon="5.90166">
        <ele>898.97</ele>
        <time>2016-06-11T07:34:06Z</time>
      </trkpt>
      <trkpt lat="46.61265" lon="5.90155">
        <ele>901.85</ele>
        <time>2016-06-11T07:34:16Z</time>
      </trkpt>
      <trkpt lat="46.61269" lon="5.90149">
        <ele>906.18</ele>
        <time>2016-06-11T07:34:27Z</time>
      </trkpt>
      <trkpt lat="46.61272" lon="5.90151">
        <ele>906.66</ele>
        <time>2016-06-11T07:34:41Z</time>
      </trkpt>
      <trkpt lat="46.61274" lon="5.90153">
        <ele>908.58</ele>
        <time>2016-06-11T07:34:55Z</time>
      </trkpt>
      <trkpt lat="46.61277" lon="5.90157">
        <ele>909.54</ele>
        <time>2016-06-11T07:35:10Z</time>
      </trkpt>
      <trkpt lat="46.61282" lon="5.90166">
        <ele>908.58</ele>
        <time>2016-06-11T07:35:25Z</time>
      </trkpt>
      <trkpt lat="46.61285" lon="5.90176">
        <ele>908.1</ele>
        <time>2016-06-11T07:35:39Z</time>
      </trkpt>
      <trkpt lat="46.61286" lon="5.90181">
        <ele>910.03</ele>
        <time>2016-06-11T07:35:56Z</time>
      </trkpt>
      <trkpt lat="46.61288" lon="5.90187">
        <ele>911.95</ele>
        <time>2016-06-11T07:36:16Z</time>
      </trkpt>
      <trkpt lat="46.61287" lon="5.90193">
        <ele>912.43</ele>
        <time>2016-06-11T07:36:26Z</time>
      </trkpt>
      <trkpt lat="46.61288" lon="5.90197">
        <ele>911.95</ele>
        <time>2016-06-11T07:36:36Z</time>
      </trkpt>
      <trkpt lat="46.61287" lon="5.90206">
        <ele>913.39</ele>
        <time>2016-06-11T07:36:52Z</time>
      </trkpt>
      <trkpt lat="46.61292" lon="5.90205">
        <ele>912.91</ele>
        <time>2016-06-11T07:37:04Z</time>
      </trkpt>
      <trkpt lat="46.61296" lon="5.90203">
        <ele>912.91</ele>
        <time>2016-06-11T07:37:18Z</time>
      </trkpt>
      <trkpt lat="46.61304" lon="5.90203">
        <ele>915.79</ele>
        <time>2016-06-11T07:37:33Z</time>
      </trkpt>
      <trkpt lat="46.61307" lon="5.90207">
        <ele>915.79</ele>
        <time>2016-06-11T07:37:42Z</time>
      </trkpt>
      <trkpt lat="46.61307" lon="5.90209">
        <ele>915.31</ele>
        <time>2016-06-11T07:37:47Z</time>
      </trkpt>
      <trkpt lat="46.61311" lon="5.90216">
        <ele>917.24</ele>
        <time>2016-06-11T07:37:55Z</time>
      </trkpt>
      <trkpt lat="46.61316" lon="5.9022">
        <ele>919.16</ele>
        <time>2016-06-11T07:38:11Z</time>
      </trkpt>
      <trkpt lat="46.61323" lon="5.90222">
        <ele>921.08</ele>
        <time>2016-06-11T07:38:28Z</time>
      </trkpt>
      <trkpt lat="46.61328" lon="5.90225">
        <ele>922.52</ele>
        <time>2016-06-11T07:38:43Z</time>
      </trkpt>
      <trkpt lat="46.61332" lon="5.90227">
        <ele>925.41</ele>
        <time>2016-06-11T07:39:04Z</time>
      </trkpt>
      <trkpt lat="46.61334" lon="5.90228">
        <ele>928.29</ele>
        <time>2016-06-11T07:39:19Z</time>
      </trkpt>
      <trkpt lat="46.61334" lon="5.90229">
        <ele>931.17</ele>
        <time>2016-06-11T07:39:32Z</time>
      </trkpt>
      <trkpt lat="46.61336" lon="5.90232">
        <ele>931.17</ele>
        <time>2016-06-11T07:39:44Z</time>
      </trkpt>
      <trkpt lat="46.61343" lon="5.90235">
        <ele>928.77</ele>
        <time>2016-06-11T07:39:55Z</time>
      </trkpt>
      <trkpt lat="46.61344" lon="5.90244">
        <ele>927.33</ele>
        <time>2016-06-11T07:40:09Z</time>
      </trkpt>
      <trkpt lat="46.61348" lon="5.90248">
        <ele>926.85</ele>
        <time>2016-06-11T07:40:22Z</time>
      </trkpt>
      <trkpt lat="46.61352" lon="5.90258">
        <ele>927.81</ele>
        <time>2016-06-11T07:40:32Z</time>
      </trkpt>
      <trkpt lat="46.61355" lon="5.90262">
        <ele>928.29</ele>
        <time>2016-06-11T07:40:36Z</time>
      </trkpt>
      <trkpt lat="46.6136" lon="5.90267">
        <ele>928.29</ele>
        <time>2016-06-11T07:40:46Z</time>
      </trkpt>
      <trkpt lat="46.61363" lon="5.90272">
        <ele>929.25</ele>
        <time>2016-06-11T07:41:00Z</time>
      </trkpt>
      <trkpt lat="46.61369" lon="5.90276">
        <ele>928.77</ele>
        <time>2016-06-11T07:41:12Z</time>
      </trkpt>
      <trkpt lat="46.61377" lon="5.90284">
        <ele>926.85</ele>
        <time>2016-06-11T07:41:23Z</time>
      </trkpt>
      <trkpt lat="46.61386" lon="5.90285">
        <ele>931.17</ele>
        <time>2016-06-11T07:41:37Z</time>
      </trkpt>
      <trkpt lat="46.61388" lon="5.90288">
        <ele>932.62</ele>
        <time>2016-06-11T07:41:51Z</time>
      </trkpt>
      <trkpt lat="46.6139" lon="5.90289">
        <ele>933.58</ele>
        <time>2016-06-11T07:42:04Z</time>
      </trkpt>
      <trkpt lat="46.61395" lon="5.90284">
        <ele>937.42</ele>
        <time>2016-06-11T07:42:17Z</time>
      </trkpt>
      <trkpt lat="46.614" lon="5.90284">
        <ele>938.38</ele>
        <time>2016-06-11T07:42:29Z</time>
      </trkpt>
      <trkpt lat="46.61405" lon="5.90284">
        <ele>939.35</ele>
        <time>2016-06-11T07:42:40Z</time>
      </trkpt>
      <trkpt lat="46.61407" lon="5.90282">
        <ele>939.35</ele>
        <time>2016-06-11T07:42:51Z</time>
      </trkpt>
      <trkpt lat="46.61412" lon="5.90278">
        <ele>939.35</ele>
        <time>2016-06-11T07:43:05Z</time>
      </trkpt>
      <trkpt lat="46.61413" lon="5.90276">
        <ele>937.9</ele>
        <time>2016-06-11T07:43:15Z</time>
      </trkpt>
      <trkpt lat="46.61417" lon="5.90276">
        <ele>939.83</ele>
        <time>2016-06-11T07:43:28Z</time>
      </trkpt>
      <trkpt lat="46.61422" lon="5.90278">
        <ele>940.31</ele>
        <time>2016-06-11T07:43:41Z</time>
      </trkpt>
      <trkpt lat="46.61426" lon="5.90279">
        <ele>942.71</ele>
        <time>2016-06-11T07:43:59Z</time>
      </trkpt>
      <trkpt lat="46.61428" lon="5.90279">
        <ele>945.59</ele>
        <time>2016-06-11T07:44:15Z</time>
      </trkpt>
      <trkpt lat="46.61432" lon="5.90275">
        <ele>950.88</ele>
        <time>2016-06-11T07:44:32Z</time>
      </trkpt>
      <trkpt lat="46.61433" lon="5.90271">
        <ele>952.32</ele>
        <time>2016-06-11T07:44:44Z</time>
      </trkpt>
      <trkpt lat="46.61434" lon="5.90262">
        <ele>955.21</ele>
        <time>2016-06-11T07:44:57Z</time>
      </trkpt>
      <trkpt lat="46.61435" lon="5.90253">
        <ele>957.13</ele>
        <time>2016-06-11T07:45:11Z</time>
      </trkpt>
      <trkpt lat="46.61436" lon="5.90248">
        <ele>958.09</ele>
        <time>2016-06-11T07:45:28Z</time>
      </trkpt>
      <trkpt lat="46.61442" lon="5.90242">
        <ele>957.61</ele>
        <time>2016-06-11T07:45:42Z</time>
      </trkpt>
      <trkpt lat="46.61443" lon="5.90238">
        <ele>959.05</ele>
        <time>2016-06-11T07:45:55Z</time>
      </trkpt>
      <trkpt lat="46.61446" lon="5.90233">
        <ele>961.46</ele>
        <time>2016-06-11T07:46:09Z</time>
      </trkpt>
      <trkpt lat="46.6145" lon="5.9023">
        <ele>962.9</ele>
        <time>2016-06-11T07:46:24Z</time>
      </trkpt>
      <trkpt lat="46.61454" lon="5.90225">
        <ele>965.3</ele>
        <time>2016-06-11T07:46:37Z</time>
      </trkpt>
      <trkpt lat="46.61457" lon="5.90222">
        <ele>969.15</ele>
        <time>2016-06-11T07:46:49Z</time>
      </trkpt>
      <trkpt lat="46.61459" lon="5.90219">
        <ele>972.51</ele>
        <time>2016-06-11T07:47:02Z</time>
      </trkpt>
      <trkpt lat="46.6146" lon="5.90218">
        <ele>973.95</ele>
        <time>2016-06-11T07:47:16Z</time>
      </trkpt>
      <trkpt lat="46.61463" lon="5.90217">
        <ele>974.91</ele>
        <time>2016-06-11T07:47:29Z</time>
      </trkpt>
      <trkpt lat="46.61464" lon="5.90216">
        <ele>975.39</ele>
        <time>2016-06-11T07:47:36Z</time>
      </trkpt>
      <trkpt lat="46.61465" lon="5.9021">
        <ele>978.76</ele>
        <time>2016-06-11T07:47:49Z</time>
      </trkpt>
      <trkpt lat="46.61463" lon="5.90202">
        <ele>981.16</ele>
        <time>2016-06-11T07:48:05Z</time>
      </trkpt>
      <trkpt lat="46.61464" lon="5.90203">
        <ele>981.64</ele>
        <time>2016-06-11T07:48:21Z</time>
      </trkpt>
      <trkpt lat="46.61465" lon="5.90203">
        <ele>981.64</ele>
        <time>2016-06-11T07:48:44Z</time>
      </trkpt>
      <trkpt lat="46.61468" lon="5.90208">
        <ele>982.12</ele>
        <time>2016-06-11T07:48:58Z</time>
      </trkpt>
      <trkpt lat="46.61471" lon="5.90209">
        <ele>982.6</ele>
        <time>2016-06-11T07:49:02Z</time>
      </trkpt>
      <trkpt lat="46.61474" lon="5.9021">
        <ele>983.57</ele>
        <time>2016-06-11T07:49:06Z</time>
      </trkpt>
      <trkpt lat="46.6148" lon="5.90213">
        <ele>987.41</ele>
        <time>2016-06-11T07:49:16Z</time>
      </trkpt>
      <trkpt lat="46.61484" lon="5.90216">
        <ele>987.89</ele>
        <time>2016-06-11T07:49:28Z</time>
      </trkpt>
      <trkpt lat="46.61485" lon="5.90219">
        <ele>988.85</ele>
        <time>2016-06-11T07:49:40Z</time>
      </trkpt>
      <trkpt lat="46.61482" lon="5.90229">
        <ele>990.78</ele>
        <time>2016-06-11T07:49:54Z</time>
      </trkpt>
      <trkpt lat="46.61478" lon="5.90232">
        <ele>991.26</ele>
        <time>2016-06-11T07:50:06Z</time>
      </trkpt>
      <trkpt lat="46.61476" lon="5.90233">
        <ele>991.74</ele>
        <time>2016-06-11T07:50:23Z</time>
      </trkpt>
      <trkpt lat="46.61475" lon="5.90233">
        <ele>991.74</ele>
        <time>2016-06-11T07:50:36Z</time>
      </trkpt>
      <trkpt lat="46.61476" lon="5.90235">
        <ele>991.74</ele>
        <time>2016-06-11T07:50:51Z</time>
      </trkpt>
      <trkpt lat="46.6148" lon="5.90238">
        <ele>990.3</ele>
        <time>2016-06-11T07:50:58Z</time>
      </trkpt>
      <trkpt lat="46.61482" lon="5.90239">
        <ele>990.3</ele>
        <time>2016-06-11T07:51:00Z</time>
      </trkpt>
      <trkpt lat="46.61486" lon="5.90243">
        <ele>988.85</ele>
        <time>2016-06-11T07:51:06Z</time>
      </trkpt>
      <trkpt lat="46.61492" lon="5.90243">
        <ele>987.41</ele>
        <time>2016-06-11T07:51:14Z</time>
      </trkpt>
      <trkpt lat="46.61494" lon="5.90243">
        <ele>987.41</ele>
        <time>2016-06-11T07:51:16Z</time>
      </trkpt>
      <trkpt lat="46.61498" lon="5.90249">
        <ele>986.93</ele>
        <time>2016-06-11T07:51:22Z</time>
      </trkpt>
      <trkpt lat="46.61508" lon="5.90256">
        <ele>987.89</ele>
        <time>2016-06-11T07:51:35Z</time>
      </trkpt>
      <trkpt lat="46.61507" lon="5.90264">
        <ele>987.41</ele>
        <time>2016-06-11T07:51:48Z</time>
      </trkpt>
      <trkpt lat="46.61514" lon="5.9027">
        <ele>985.49</ele>
        <time>2016-06-11T07:52:02Z</time>
      </trkpt>
      <trkpt lat="46.61518" lon="5.90273">
        <ele>985.49</ele>
        <time>2016-06-11T07:52:11Z</time>
      </trkpt>
      <trkpt lat="46.61518" lon="5.90273">
        <ele>985.97</ele>
        <time>2016-06-11T07:52:12Z</time>
      </trkpt>
      <trkpt lat="46.61521" lon="5.90276">
        <ele>985.97</ele>
        <time>2016-06-11T07:52:15Z</time>
      </trkpt>
      <trkpt lat="46.61524" lon="5.90282">
        <ele>986.93</ele>
        <time>2016-06-11T07:52:24Z</time>
      </trkpt>
      <trkpt lat="46.61526" lon="5.90284">
        <ele>987.41</ele>
        <time>2016-06-11T07:52:26Z</time>
      </trkpt>
      <trkpt lat="46.61533" lon="5.90294">
        <ele>990.3</ele>
        <time>2016-06-11T07:52:35Z</time>
      </trkpt>
      <trkpt lat="46.61541" lon="5.90304">
        <ele>991.26</ele>
        <time>2016-06-11T07:52:46Z</time>
      </trkpt>
      <trkpt lat="46.6155" lon="5.90312">
        <ele>989.81</ele>
        <time>2016-06-11T07:52:59Z</time>
      </trkpt>
      <trkpt lat="46.61557" lon="5.9032">
        <ele>987.89</ele>
        <time>2016-06-11T07:53:11Z</time>
      </trkpt>
      <trkpt lat="46.61567" lon="5.90335">
        <ele>987.41</ele>
        <time>2016-06-11T07:53:26Z</time>
      </trkpt>
      <trkpt lat="46.61574" lon="5.90341">
        <ele>985.49</ele>
        <time>2016-06-11T07:53:38Z</time>
      </trkpt>
      <trkpt lat="46.61576" lon="5.90342">
        <ele>985.97</ele>
        <time>2016-06-11T07:53:40Z</time>
      </trkpt>
      <trkpt lat="46.61584" lon="5.90353">
        <ele>987.89</ele>
        <time>2016-06-11T07:53:47Z</time>
      </trkpt>
      <trkpt lat="46.61595" lon="5.9037">
        <ele>987.41</ele>
        <time>2016-06-11T07:54:00Z</time>
      </trkpt>
      <trkpt lat="46.61599" lon="5.90379">
        <ele>989.33</ele>
        <time>2016-06-11T07:54:07Z</time>
      </trkpt>
      <trkpt lat="46.61609" lon="5.90392">
        <ele>988.85</ele>
        <time>2016-06-11T07:54:19Z</time>
      </trkpt>
      <trkpt lat="46.61613" lon="5.90397">
        <ele>987.41</ele>
        <time>2016-06-11T07:54:31Z</time>
      </trkpt>
      <trkpt lat="46.61619" lon="5.90404">
        <ele>985.01</ele>
        <time>2016-06-11T07:54:44Z</time>
      </trkpt>
      <trkpt lat="46.61626" lon="5.90414">
        <ele>982.12</ele>
        <time>2016-06-11T07:54:55Z</time>
      </trkpt>
      <trkpt lat="46.61628" lon="5.90416">
        <ele>982.12</ele>
        <time>2016-06-11T07:54:57Z</time>
      </trkpt>
      <trkpt lat="46.61642" lon="5.90421">
        <ele>981.64</ele>
        <time>2016-06-11T07:55:09Z</time>
      </trkpt>
      <trkpt lat="46.61651" lon="5.90429">
        <ele>980.68</ele>
        <time>2016-06-11T07:55:21Z</time>
      </trkpt>
      <trkpt lat="46.61655" lon="5.90433">
        <ele>980.68</ele>
        <time>2016-06-11T07:55:29Z</time>
      </trkpt>
      <trkpt lat="46.61655" lon="5.90433">
        <ele>980.68</ele>
        <time>2016-06-11T07:55:30Z</time>
      </trkpt>
      <trkpt lat="46.61665" lon="5.90442">
        <ele>983.57</ele>
        <time>2016-06-11T07:55:40Z</time>
      </trkpt>
      <trkpt lat="46.61674" lon="5.9045">
        <ele>986.45</ele>
        <time>2016-06-11T07:55:49Z</time>
      </trkpt>
      <trkpt lat="46.61677" lon="5.90453">
        <ele>987.41</ele>
        <time>2016-06-11T07:55:54Z</time>
      </trkpt>
      <trkpt lat="46.61689" lon="5.90446">
        <ele>988.37</ele>
        <time>2016-06-11T07:56:07Z</time>
      </trkpt>
      <trkpt lat="46.61691" lon="5.90444">
        <ele>987.89</ele>
        <time>2016-06-11T07:56:23Z</time>
      </trkpt>
      <trkpt lat="46.61696" lon="5.90437">
        <ele>984.53</ele>
        <time>2016-06-11T07:56:34Z</time>
      </trkpt>
      <trkpt lat="46.61701" lon="5.90424">
        <ele>977.8</ele>
        <time>2016-06-11T07:56:48Z</time>
      </trkpt>
      <trkpt lat="46.61706" lon="5.90412">
        <ele>971.55</ele>
        <time>2016-06-11T07:57:02Z</time>
      </trkpt>
      <trkpt lat="46.61711" lon="5.90405">
        <ele>967.22</ele>
        <time>2016-06-11T07:57:16Z</time>
      </trkpt>
      <trkpt lat="46.61718" lon="5.90399">
        <ele>964.82</ele>
        <time>2016-06-11T07:57:29Z</time>
      </trkpt>
      <trkpt lat="46.61728" lon="5.9039">
        <ele>965.3</ele>
        <time>2016-06-11T07:57:42Z</time>
      </trkpt>
      <trkpt lat="46.61737" lon="5.90391">
        <ele>965.78</ele>
        <time>2016-06-11T07:57:53Z</time>
      </trkpt>
      <trkpt lat="46.61749" lon="5.90399">
        <ele>965.78</ele>
        <time>2016-06-11T07:58:03Z</time>
      </trkpt>
      <trkpt lat="46.61759" lon="5.90406">
        <ele>964.34</ele>
        <time>2016-06-11T07:58:13Z</time>
      </trkpt>
      <trkpt lat="46.6177" lon="5.9041">
        <ele>966.74</ele>
        <time>2016-06-11T07:58:25Z</time>
      </trkpt>
      <trkpt lat="46.61782" lon="5.90416">
        <ele>970.59</ele>
        <time>2016-06-11T07:58:35Z</time>
      </trkpt>
      <trkpt lat="46.61785" lon="5.90417">
        <ele>970.59</ele>
        <time>2016-06-11T07:58:37Z</time>
      </trkpt>
      <trkpt lat="46.61797" lon="5.90423">
        <ele>971.07</ele>
        <time>2016-06-11T07:58:48Z</time>
      </trkpt>
      <trkpt lat="46.61807" lon="5.90429">
        <ele>970.11</ele>
        <time>2016-06-11T07:58:58Z</time>
      </trkpt>
      <trkpt lat="46.6182" lon="5.90438">
        <ele>968.18</ele>
        <time>2016-06-11T07:59:10Z</time>
      </trkpt>
      <trkpt lat="46.61826" lon="5.90444">
        <ele>967.7</ele>
        <time>2016-06-11T07:59:19Z</time>
      </trkpt>
      <trkpt lat="46.61839" lon="5.90459">
        <ele>966.74</ele>
        <time>2016-06-11T07:59:33Z</time>
      </trkpt>
      <trkpt lat="46.61847" lon="5.9047">
        <ele>968.18</ele>
        <time>2016-06-11T07:59:45Z</time>
      </trkpt>
      <trkpt lat="46.61851" lon="5.90484">
        <ele>967.7</ele>
        <time>2016-06-11T07:59:57Z</time>
      </trkpt>
      <trkpt lat="46.61858" lon="5.90496">
        <ele>967.22</ele>
        <time>2016-06-11T08:00:09Z</time>
      </trkpt>
      <trkpt lat="46.6186" lon="5.90508">
        <ele>963.86</ele>
        <time>2016-06-11T08:00:21Z</time>
      </trkpt>
      <trkpt lat="46.61865" lon="5.9052">
        <ele>960.98</ele>
        <time>2016-06-11T08:00:32Z</time>
      </trkpt>
      <trkpt lat="46.61875" lon="5.90528">
        <ele>962.9</ele>
        <time>2016-06-11T08:00:44Z</time>
      </trkpt>
      <trkpt lat="46.61875" lon="5.90528">
        <ele>963.38</ele>
        <time>2016-06-11T08:00:45Z</time>
      </trkpt>
      <trkpt lat="46.61882" lon="5.90532">
        <ele>962.9</ele>
        <time>2016-06-11T08:00:55Z</time>
      </trkpt>
      <trkpt lat="46.61888" lon="5.90536">
        <ele>960.49</ele>
        <time>2016-06-11T08:01:06Z</time>
      </trkpt>
      <trkpt lat="46.61894" lon="5.90542">
        <ele>960.49</ele>
        <time>2016-06-11T08:01:16Z</time>
      </trkpt>
      <trkpt lat="46.61898" lon="5.90552">
        <ele>961.46</ele>
        <time>2016-06-11T08:01:27Z</time>
      </trkpt>
      <trkpt lat="46.619" lon="5.90554">
        <ele>961.46</ele>
        <time>2016-06-11T08:01:30Z</time>
      </trkpt>
      <trkpt lat="46.61911" lon="5.90564">
        <ele>960.01</ele>
        <time>2016-06-11T08:01:43Z</time>
      </trkpt>
      <trkpt lat="46.61913" lon="5.90568">
        <ele>960.01</ele>
        <time>2016-06-11T08:01:51Z</time>
      </trkpt>
      <trkpt lat="46.61917" lon="5.90573">
        <ele>959.05</ele>
        <time>2016-06-11T08:02:01Z</time>
      </trkpt>
      <trkpt lat="46.61919" lon="5.90576">
        <ele>959.05</ele>
        <time>2016-06-11T08:02:10Z</time>
      </trkpt>
      <trkpt lat="46.61921" lon="5.90579">
        <ele>958.09</ele>
        <time>2016-06-11T08:02:13Z</time>
      </trkpt>
      <trkpt lat="46.6193" lon="5.9059">
        <ele>960.49</ele>
        <time>2016-06-11T08:02:22Z</time>
      </trkpt>
      <trkpt lat="46.61939" lon="5.90601">
        <ele>962.9</ele>
        <time>2016-06-11T08:02:34Z</time>
      </trkpt>
      <trkpt lat="46.61946" lon="5.90612">
        <ele>962.9</ele>
        <time>2016-06-11T08:02:44Z</time>
      </trkpt>
      <trkpt lat="46.61949" lon="5.90615">
        <ele>962.42</ele>
        <time>2016-06-11T08:02:49Z</time>
      </trkpt>
      <trkpt lat="46.61956" lon="5.90622">
        <ele>959.53</ele>
        <time>2016-06-11T08:02:57Z</time>
      </trkpt>
      <trkpt lat="46.61958" lon="5.90628">
        <ele>957.13</ele>
        <time>2016-06-11T08:03:02Z</time>
      </trkpt>
      <trkpt lat="46.6197" lon="5.90641">
        <ele>955.21</ele>
        <time>2016-06-11T08:03:16Z</time>
      </trkpt>
      <trkpt lat="46.61978" lon="5.9065">
        <ele>957.13</ele>
        <time>2016-06-11T08:03:28Z</time>
      </trkpt>
      <trkpt lat="46.61985" lon="5.90655">
        <ele>959.05</ele>
        <time>2016-06-11T08:03:37Z</time>
      </trkpt>
      <trkpt lat="46.61992" lon="5.90658">
        <ele>959.05</ele>
        <time>2016-06-11T08:03:49Z</time>
      </trkpt>
      <trkpt lat="46.61994" lon="5.9066">
        <ele>959.05</ele>
        <time>2016-06-11T08:03:52Z</time>
      </trkpt>
      <trkpt lat="46.61998" lon="5.90666">
        <ele>959.05</ele>
        <time>2016-06-11T08:03:58Z</time>
      </trkpt>
      <trkpt lat="46.6201" lon="5.90672">
        <ele>960.98</ele>
        <time>2016-06-11T08:04:09Z</time>
      </trkpt>
      <trkpt lat="46.62014" lon="5.90672">
        <ele>963.38</ele>
        <time>2016-06-11T08:04:18Z</time>
      </trkpt>
      <trkpt lat="46.62021" lon="5.90676">
        <ele>964.82</ele>
        <time>2016-06-11T08:04:29Z</time>
      </trkpt>
      <trkpt lat="46.62032" lon="5.90682">
        <ele>962.9</ele>
        <time>2016-06-11T08:04:41Z</time>
      </trkpt>
      <trkpt lat="46.62042" lon="5.90693">
        <ele>960.98</ele>
        <time>2016-06-11T08:04:51Z</time>
      </trkpt>
      <trkpt lat="46.62047" lon="5.90708">
        <ele>957.61</ele>
        <time>2016-06-11T08:05:05Z</time>
      </trkpt>
      <trkpt lat="46.62049" lon="5.90726">
        <ele>958.57</ele>
        <time>2016-06-11T08:05:18Z</time>
      </trkpt>
      <trkpt lat="46.62051" lon="5.9073">
        <ele>959.53</ele>
        <time>2016-06-11T08:05:21Z</time>
      </trkpt>
      <trkpt lat="46.62057" lon="5.90741">
        <ele>962.42</ele>
        <time>2016-06-11T08:05:29Z</time>
      </trkpt>
      <trkpt lat="46.6206" lon="5.90748">
        <ele>961.94</ele>
        <time>2016-06-11T08:05:35Z</time>
      </trkpt>
      <trkpt lat="46.62063" lon="5.90754">
        <ele>960.98</ele>
        <time>2016-06-11T08:05:40Z</time>
      </trkpt>
      <trkpt lat="46.62066" lon="5.9077">
        <ele>957.61</ele>
        <time>2016-06-11T08:05:50Z</time>
      </trkpt>
      <trkpt lat="46.62065" lon="5.90778">
        <ele>958.57</ele>
        <time>2016-06-11T08:05:58Z</time>
      </trkpt>
      <trkpt lat="46.62058" lon="5.90796">
        <ele>957.61</ele>
        <time>2016-06-11T08:06:11Z</time>
      </trkpt>
      <trkpt lat="46.62052" lon="5.90809">
        <ele>953.77</ele>
        <time>2016-06-11T08:06:27Z</time>
      </trkpt>
      <trkpt lat="46.62051" lon="5.90822">
        <ele>952.32</ele>
        <time>2016-06-11T08:06:41Z</time>
      </trkpt>
      <trkpt lat="46.62046" lon="5.90839">
        <ele>951.84</ele>
        <time>2016-06-11T08:06:51Z</time>
      </trkpt>
      <trkpt lat="46.62046" lon="5.90843">
        <ele>952.32</ele>
        <time>2016-06-11T08:06:53Z</time>
      </trkpt>
      <trkpt lat="46.6204" lon="5.90863">
        <ele>957.13</ele>
        <time>2016-06-11T08:07:05Z</time>
      </trkpt>
      <trkpt lat="46.62033" lon="5.90874">
        <ele>957.13</ele>
        <time>2016-06-11T08:07:17Z</time>
      </trkpt>
      <trkpt lat="46.6203" lon="5.90879">
        <ele>957.13</ele>
        <time>2016-06-11T08:07:21Z</time>
      </trkpt>
      <trkpt lat="46.62019" lon="5.9089">
        <ele>954.73</ele>
        <time>2016-06-11T08:07:33Z</time>
      </trkpt>
      <trkpt lat="46.62018" lon="5.90891">
        <ele>954.25</ele>
        <time>2016-06-11T08:07:35Z</time>
      </trkpt>
      <trkpt lat="46.62007" lon="5.90903">
        <ele>948.96</ele>
        <time>2016-06-11T08:07:46Z</time>
      </trkpt>
      <trkpt lat="46.62003" lon="5.9091">
        <ele>947.52</ele>
        <time>2016-06-11T08:07:52Z</time>
      </trkpt>
      <trkpt lat="46.61993" lon="5.90921">
        <ele>945.59</ele>
        <time>2016-06-11T08:08:04Z</time>
      </trkpt>
      <trkpt lat="46.61987" lon="5.90928">
        <ele>946.07</ele>
        <time>2016-06-11T08:08:10Z</time>
      </trkpt>
      <trkpt lat="46.6198" lon="5.90938">
        <ele>947.52</ele>
        <time>2016-06-11T08:08:23Z</time>
      </trkpt>
      <trkpt lat="46.61979" lon="5.90942">
        <ele>947.52</ele>
        <time>2016-06-11T08:08:27Z</time>
      </trkpt>
      <trkpt lat="46.61978" lon="5.9095">
        <ele>947.04</ele>
        <time>2016-06-11T08:08:41Z</time>
      </trkpt>
      <trkpt lat="46.61982" lon="5.90957">
        <ele>944.63</ele>
        <time>2016-06-11T08:08:52Z</time>
      </trkpt>
      <trkpt lat="46.61988" lon="5.90961">
        <ele>941.27</ele>
        <time>2016-06-11T08:09:05Z</time>
      </trkpt>
      <trkpt lat="46.61998" lon="5.90971">
        <ele>937.9</ele>
        <time>2016-06-11T08:09:18Z</time>
      </trkpt>
      <trkpt lat="46.62005" lon="5.90975">
        <ele>940.79</ele>
        <time>2016-06-11T08:09:28Z</time>
      </trkpt>
      <trkpt lat="46.62011" lon="5.90977">
        <ele>940.79</ele>
        <time>2016-06-11T08:09:43Z</time>
      </trkpt>
      <trkpt lat="46.62016" lon="5.90977">
        <ele>940.79</ele>
        <time>2016-06-11T08:09:59Z</time>
      </trkpt>
      <trkpt lat="46.62023" lon="5.90972">
        <ele>941.27</ele>
        <time>2016-06-11T08:10:13Z</time>
      </trkpt>
      <trkpt lat="46.62025" lon="5.90971">
        <ele>941.75</ele>
        <time>2016-06-11T08:10:15Z</time>
      </trkpt>
      <trkpt lat="46.62041" lon="5.90965">
        <ele>943.19</ele>
        <time>2016-06-11T08:10:28Z</time>
      </trkpt>
      <trkpt lat="46.62055" lon="5.90958">
        <ele>939.83</ele>
        <time>2016-06-11T08:10:43Z</time>
      </trkpt>
      <trkpt lat="46.62066" lon="5.90952">
        <ele>941.27</ele>
        <time>2016-06-11T08:10:54Z</time>
      </trkpt>
      <trkpt lat="46.62077" lon="5.90942">
        <ele>938.38</ele>
        <time>2016-06-11T08:11:06Z</time>
      </trkpt>
      <trkpt lat="46.6209" lon="5.90933">
        <ele>934.54</ele>
        <time>2016-06-11T08:11:20Z</time>
      </trkpt>
      <trkpt lat="46.62097" lon="5.90922">
        <ele>933.1</ele>
        <time>2016-06-11T08:11:30Z</time>
      </trkpt>
      <trkpt lat="46.62101" lon="5.90912">
        <ele>932.14</ele>
        <time>2016-06-11T08:11:42Z</time>
      </trkpt>
      <trkpt lat="46.62111" lon="5.90904">
        <ele>929.25</ele>
        <time>2016-06-11T08:11:53Z</time>
      </trkpt>
      <trkpt lat="46.62115" lon="5.90897">
        <ele>923.96</ele>
        <time>2016-06-11T08:12:07Z</time>
      </trkpt>
      <trkpt lat="46.62118" lon="5.90896">
        <ele>923.96</ele>
        <time>2016-06-11T08:12:10Z</time>
      </trkpt>
      <trkpt lat="46.62129" lon="5.90885">
        <ele>923</ele>
        <time>2016-06-11T08:12:22Z</time>
      </trkpt>
      <trkpt lat="46.62133" lon="5.9088">
        <ele>921.56</ele>
        <time>2016-06-11T08:12:26Z</time>
      </trkpt>
      <trkpt lat="46.6214" lon="5.90879">
        <ele>916.75</ele>
        <time>2016-06-11T08:12:37Z</time>
      </trkpt>
      <trkpt lat="46.62149" lon="5.90884">
        <ele>912.91</ele>
        <time>2016-06-11T08:12:50Z</time>
      </trkpt>
      <trkpt lat="46.62154" lon="5.90883">
        <ele>911.95</ele>
        <time>2016-06-11T08:12:58Z</time>
      </trkpt>
      <trkpt lat="46.62167" lon="5.90883">
        <ele>912.43</ele>
        <time>2016-06-11T08:13:08Z</time>
      </trkpt>
      <trkpt lat="46.62181" lon="5.90884">
        <ele>914.35</ele>
        <time>2016-06-11T08:13:21Z</time>
      </trkpt>
      <trkpt lat="46.62183" lon="5.90884">
        <ele>914.35</ele>
        <time>2016-06-11T08:13:22Z</time>
      </trkpt>
      <trkpt lat="46.62201" lon="5.90882">
        <ele>919.16</ele>
        <time>2016-06-11T08:13:32Z</time>
      </trkpt>
      <trkpt lat="46.62207" lon="5.90886">
        <ele>920.12</ele>
        <time>2016-06-11T08:13:43Z</time>
      </trkpt>
      <trkpt lat="46.62219" lon="5.909">
        <ele>919.16</ele>
        <time>2016-06-11T08:13:55Z</time>
      </trkpt>
      <trkpt lat="46.62229" lon="5.90924">
        <ele>921.08</ele>
        <time>2016-06-11T08:14:10Z</time>
      </trkpt>
      <trkpt lat="46.6223" lon="5.90935">
        <ele>921.08</ele>
        <time>2016-06-11T08:14:21Z</time>
      </trkpt>
      <trkpt lat="46.6223" lon="5.90938">
        <ele>921.08</ele>
        <time>2016-06-11T08:14:23Z</time>
      </trkpt>
      <trkpt lat="46.62232" lon="5.90947">
        <ele>922.52</ele>
        <time>2016-06-11T08:14:37Z</time>
      </trkpt>
      <trkpt lat="46.62233" lon="5.90948">
        <ele>923</ele>
        <time>2016-06-11T08:14:52Z</time>
      </trkpt>
      <trkpt lat="46.62243" lon="5.90953">
        <ele>928.29</ele>
        <time>2016-06-11T08:15:09Z</time>
      </trkpt>
      <trkpt lat="46.62248" lon="5.9095">
        <ele>930.69</ele>
        <time>2016-06-11T08:15:22Z</time>
      </trkpt>
      <trkpt lat="46.6226" lon="5.90951">
        <ele>932.62</ele>
        <time>2016-06-11T08:15:36Z</time>
      </trkpt>
      <trkpt lat="46.62272" lon="5.90955">
        <ele>929.73</ele>
        <time>2016-06-11T08:15:52Z</time>
      </trkpt>
      <trkpt lat="46.62279" lon="5.90961">
        <ele>927.33</ele>
        <time>2016-06-11T08:16:05Z</time>
      </trkpt>
      <trkpt lat="46.62292" lon="5.90972">
        <ele>926.85</ele>
        <time>2016-06-11T08:16:18Z</time>
      </trkpt>
      <trkpt lat="46.62305" lon="5.90985">
        <ele>925.89</ele>
        <time>2016-06-11T08:16:32Z</time>
      </trkpt>
      <trkpt lat="46.6231" lon="5.90988">
        <ele>925.41</ele>
        <time>2016-06-11T08:16:47Z</time>
      </trkpt>
      <trkpt lat="46.62314" lon="5.90989">
        <ele>927.81</ele>
        <time>2016-06-11T08:16:59Z</time>
      </trkpt>
      <trkpt lat="46.62322" lon="5.90989">
        <ele>929.25</ele>
        <time>2016-06-11T08:17:14Z</time>
      </trkpt>
      <trkpt lat="46.62333" lon="5.9099">
        <ele>931.65</ele>
        <time>2016-06-11T08:17:27Z</time>
      </trkpt>
      <trkpt lat="46.62345" lon="5.90993">
        <ele>936.46</ele>
        <time>2016-06-11T08:17:40Z</time>
      </trkpt>
      <trkpt lat="46.6235" lon="5.90986">
        <ele>936.46</ele>
        <time>2016-06-11T08:17:52Z</time>
      </trkpt>
      <trkpt lat="46.62351" lon="5.90978">
        <ele>935.02</ele>
        <time>2016-06-11T08:18:06Z</time>
      </trkpt>
      <trkpt lat="46.62357" lon="5.90978">
        <ele>934.54</ele>
        <time>2016-06-11T08:18:20Z</time>
      </trkpt>
      <trkpt lat="46.62358" lon="5.90976">
        <ele>934.06</ele>
        <time>2016-06-11T08:18:34Z</time>
      </trkpt>
      <trkpt lat="46.62358" lon="5.90977">
        <ele>934.06</ele>
        <time>2016-06-11T08:18:50Z</time>
      </trkpt>
      <trkpt lat="46.62358" lon="5.90979">
        <ele>933.58</ele>
        <time>2016-06-11T08:19:08Z</time>
      </trkpt>
      <trkpt lat="46.62356" lon="5.9098">
        <ele>933.58</ele>
        <time>2016-06-11T08:19:26Z</time>
      </trkpt>
      <trkpt lat="46.62356" lon="5.9098">
        <ele>934.06</ele>
        <time>2016-06-11T08:19:42Z</time>
      </trkpt>
      <trkpt lat="46.62356" lon="5.9098">
        <ele>934.06</ele>
        <time>2016-06-11T08:19:56Z</time>
      </trkpt>
      <trkpt lat="46.62356" lon="5.9098">
        <ele>934.06</ele>
        <time>2016-06-11T08:20:14Z</time>
      </trkpt>
      <trkpt lat="46.62358" lon="5.90979">
        <ele>934.54</ele>
        <time>2016-06-11T08:20:26Z</time>
      </trkpt>
      <trkpt lat="46.62357" lon="5.9098">
        <ele>934.54</ele>
        <time>2016-06-11T08:20:43Z</time>
      </trkpt>
      <trkpt lat="46.62356" lon="5.9098">
        <ele>935.02</ele>
        <time>2016-06-11T08:21:01Z</time>
      </trkpt>
      <trkpt lat="46.62356" lon="5.9098">
        <ele>935.02</ele>
        <time>2016-06-11T08:21:17Z</time>
      </trkpt>
      <trkpt lat="46.62356" lon="5.9098">
        <ele>935.98</ele>
        <time>2016-06-11T08:21:41Z</time>
      </trkpt>
      <trkpt lat="46.62359" lon="5.90978">
        <ele>935.98</ele>
        <time>2016-06-11T08:21:56Z</time>
      </trkpt>
      <trkpt lat="46.62358" lon="5.90977">
        <ele>936.46</ele>
        <time>2016-06-11T08:22:15Z</time>
      </trkpt>
      <trkpt lat="46.62359" lon="5.90976">
        <ele>936.46</ele>
        <time>2016-06-11T08:22:31Z</time>
      </trkpt>
      <trkpt lat="46.62358" lon="5.90976">
        <ele>936.46</ele>
        <time>2016-06-11T08:22:57Z</time>
      </trkpt>
      <trkpt lat="46.62358" lon="5.90977">
        <ele>936.46</ele>
        <time>2016-06-11T08:23:16Z</time>
      </trkpt>
      <trkpt lat="46.62357" lon="5.90978">
        <ele>935.98</ele>
        <time>2016-06-11T08:23:39Z</time>
      </trkpt>
      <trkpt lat="46.62356" lon="5.90978">
        <ele>935.98</ele>
        <time>2016-06-11T08:24:07Z</time>
      </trkpt>
      <trkpt lat="46.62356" lon="5.90979">
        <ele>935.5</ele>
        <time>2016-06-11T08:24:24Z</time>
      </trkpt>
      <trkpt lat="46.62356" lon="5.90978">
        <ele>935.5</ele>
        <time>2016-06-11T08:24:42Z</time>
      </trkpt>
      <trkpt lat="46.62356" lon="5.90976">
        <ele>935.98</ele>
        <time>2016-06-11T08:24:56Z</time>
      </trkpt>
      <trkpt lat="46.62356" lon="5.90974">
        <ele>934.54</ele>
        <time>2016-06-11T08:25:07Z</time>
      </trkpt>
      <trkpt lat="46.62357" lon="5.90977">
        <ele>934.06</ele>
        <time>2016-06-11T08:25:23Z</time>
      </trkpt>
      <trkpt lat="46.6236" lon="5.90977">
        <ele>935.02</ele>
        <time>2016-06-11T08:25:38Z</time>
      </trkpt>
      <trkpt lat="46.62358" lon="5.90974">
        <ele>935.02</ele>
        <time>2016-06-11T08:25:54Z</time>
      </trkpt>
      <trkpt lat="46.62358" lon="5.90976">
        <ele>935.02</ele>
        <time>2016-06-11T08:26:11Z</time>
      </trkpt>
      <trkpt lat="46.62356" lon="5.90977">
        <ele>935.02</ele>
        <time>2016-06-11T08:26:27Z</time>
      </trkpt>
      <trkpt lat="46.62356" lon="5.90979">
        <ele>934.54</ele>
        <time>2016-06-11T08:26:46Z</time>
      </trkpt>
      <trkpt lat="46.62356" lon="5.90979">
        <ele>935.02</ele>
        <time>2016-06-11T08:27:09Z</time>
      </trkpt>
      <trkpt lat="46.62356" lon="5.90979">
        <ele>935.5</ele>
        <time>2016-06-11T08:27:27Z</time>
      </trkpt>
      <trkpt lat="46.62356" lon="5.9098">
        <ele>935.98</ele>
        <time>2016-06-11T08:27:46Z</time>
      </trkpt>
      <trkpt lat="46.62356" lon="5.9098">
        <ele>935.98</ele>
        <time>2016-06-11T08:28:05Z</time>
      </trkpt>
      <trkpt lat="46.62356" lon="5.90979">
        <ele>936.46</ele>
        <time>2016-06-11T08:28:17Z</time>
      </trkpt>
      <trkpt lat="46.62356" lon="5.90979">
        <ele>935.98</ele>
        <time>2016-06-11T08:28:31Z</time>
      </trkpt>
      <trkpt lat="46.62357" lon="5.9098">
        <ele>935.98</ele>
        <time>2016-06-11T08:28:47Z</time>
      </trkpt>
      <trkpt lat="46.62358" lon="5.9098">
        <ele>935.98</ele>
        <time>2016-06-11T08:29:05Z</time>
      </trkpt>
      <trkpt lat="46.62358" lon="5.9098">
        <ele>935.98</ele>
        <time>2016-06-11T08:29:24Z</time>
      </trkpt>
      <trkpt lat="46.62359" lon="5.9098">
        <ele>935.98</ele>
        <time>2016-06-11T08:29:39Z</time>
      </trkpt>
      <trkpt lat="46.62363" lon="5.90994">
        <ele>935.5</ele>
        <time>2016-06-11T08:29:54Z</time>
      </trkpt>
      <trkpt lat="46.62369" lon="5.90995">
        <ele>935.02</ele>
        <time>2016-06-11T08:30:12Z</time>
      </trkpt>
      <trkpt lat="46.62386" lon="5.91021">
        <ele>932.62</ele>
        <time>2016-06-11T08:30:30Z</time>
      </trkpt>
      <trkpt lat="46.62388" lon="5.91041">
        <ele>931.17</ele>
        <time>2016-06-11T08:30:49Z</time>
      </trkpt>
      <trkpt lat="46.62393" lon="5.91046">
        <ele>929.73</ele>
        <time>2016-06-11T08:31:09Z</time>
      </trkpt>
      <trkpt lat="46.62398" lon="5.91051">
        <ele>929.25</ele>
        <time>2016-06-11T08:31:25Z</time>
      </trkpt>
      <trkpt lat="46.62407" lon="5.9105">
        <ele>929.73</ele>
        <time>2016-06-11T08:31:44Z</time>
      </trkpt>
      <trkpt lat="46.62416" lon="5.91058">
        <ele>931.65</ele>
        <time>2016-06-11T08:32:03Z</time>
      </trkpt>
      <trkpt lat="46.62428" lon="5.91069">
        <ele>934.06</ele>
        <time>2016-06-11T08:32:24Z</time>
      </trkpt>
      <trkpt lat="46.62438" lon="5.91075">
        <ele>933.1</ele>
        <time>2016-06-11T08:32:41Z</time>
      </trkpt>
      <trkpt lat="46.62447" lon="5.91086">
        <ele>931.65</ele>
        <time>2016-06-11T08:32:58Z</time>
      </trkpt>
      <trkpt lat="46.62451" lon="5.91081">
        <ele>931.17</ele>
        <time>2016-06-11T08:33:12Z</time>
      </trkpt>
      <trkpt lat="46.62455" lon="5.91085">
        <ele>928.29</ele>
        <time>2016-06-11T08:33:30Z</time>
      </trkpt>
      <trkpt lat="46.62463" lon="5.91099">
        <ele>926.85</ele>
        <time>2016-06-11T08:33:47Z</time>
      </trkpt>
      <trkpt lat="46.62472" lon="5.9111">
        <ele>925.89</ele>
        <time>2016-06-11T08:34:04Z</time>
      </trkpt>
      <trkpt lat="46.62479" lon="5.91127">
        <ele>925.89</ele>
        <time>2016-06-11T08:34:18Z</time>
      </trkpt>
      <trkpt lat="46.62483" lon="5.91127">
        <ele>926.85</ele>
        <time>2016-06-11T08:34:37Z</time>
      </trkpt>
      <trkpt lat="46.62485" lon="5.91128">
        <ele>926.85</ele>
        <time>2016-06-11T08:35:01Z</time>
      </trkpt>
      <trkpt lat="46.62489" lon="5.91132">
        <ele>925.89</ele>
        <time>2016-06-11T08:35:18Z</time>
      </trkpt>
      <trkpt lat="46.62495" lon="5.91141">
        <ele>924.93</ele>
        <time>2016-06-11T08:35:35Z</time>
      </trkpt>
      <trkpt lat="46.62504" lon="5.91155">
        <ele>925.89</ele>
        <time>2016-06-11T08:35:51Z</time>
      </trkpt>
      <trkpt lat="46.62517" lon="5.91171">
        <ele>924.93</ele>
        <time>2016-06-11T08:36:10Z</time>
      </trkpt>
      <trkpt lat="46.6253" lon="5.91186">
        <ele>924.45</ele>
        <time>2016-06-11T08:36:29Z</time>
      </trkpt>
      <trkpt lat="46.62537" lon="5.91192">
        <ele>925.41</ele>
        <time>2016-06-11T08:36:45Z</time>
      </trkpt>
      <trkpt lat="46.6254" lon="5.91196">
        <ele>923.48</ele>
        <time>2016-06-11T08:36:59Z</time>
      </trkpt>
      <trkpt lat="46.62543" lon="5.91204">
        <ele>919.64</ele>
        <time>2016-06-11T08:37:19Z</time>
      </trkpt>
      <trkpt lat="46.62541" lon="5.9121">
        <ele>916.75</ele>
        <time>2016-06-11T08:37:35Z</time>
      </trkpt>
      <trkpt lat="46.62541" lon="5.91213">
        <ele>916.75</ele>
        <time>2016-06-11T08:37:50Z</time>
      </trkpt>
      <trkpt lat="46.62542" lon="5.91224">
        <ele>915.79</ele>
        <time>2016-06-11T08:38:05Z</time>
      </trkpt>
      <trkpt lat="46.62544" lon="5.9123">
        <ele>915.79</ele>
        <time>2016-06-11T08:38:23Z</time>
      </trkpt>
      <trkpt lat="46.62551" lon="5.91245">
        <ele>913.39</ele>
        <time>2016-06-11T08:38:40Z</time>
      </trkpt>
      <trkpt lat="46.62556" lon="5.91252">
        <ele>913.87</ele>
        <time>2016-06-11T08:38:58Z</time>
      </trkpt>
      <trkpt lat="46.62558" lon="5.91256">
        <ele>912.91</ele>
        <time>2016-06-11T08:39:15Z</time>
      </trkpt>
      <trkpt lat="46.6256" lon="5.91259">
        <ele>910.51</ele>
        <time>2016-06-11T08:39:33Z</time>
      </trkpt>
      <trkpt lat="46.62563" lon="5.91261">
        <ele>910.51</ele>
        <time>2016-06-11T08:39:59Z</time>
      </trkpt>
      <trkpt lat="46.62564" lon="5.91269">
        <ele>910.03</ele>
        <time>2016-06-11T08:40:15Z</time>
      </trkpt>
      <trkpt lat="46.62566" lon="5.91272">
        <ele>912.43</ele>
        <time>2016-06-11T08:40:28Z</time>
      </trkpt>
      <trkpt lat="46.62568" lon="5.91274">
        <ele>912.43</ele>
        <time>2016-06-11T08:40:35Z</time>
      </trkpt>
      <trkpt lat="46.62581" lon="5.91283">
        <ele>913.87</ele>
        <time>2016-06-11T08:40:48Z</time>
      </trkpt>
      <trkpt lat="46.62595" lon="5.91293">
        <ele>914.35</ele>
        <time>2016-06-11T08:41:00Z</time>
      </trkpt>
      <trkpt lat="46.626" lon="5.91295">
        <ele>913.39</ele>
        <time>2016-06-11T08:41:17Z</time>
      </trkpt>
      <trkpt lat="46.62609" lon="5.91302">
        <ele>912.91</ele>
        <time>2016-06-11T08:41:30Z</time>
      </trkpt>
      <trkpt lat="46.62612" lon="5.91306">
        <ele>912.91</ele>
        <time>2016-06-11T08:41:43Z</time>
      </trkpt>
      <trkpt lat="46.62618" lon="5.91309">
        <ele>915.31</ele>
        <time>2016-06-11T08:41:56Z</time>
      </trkpt>
      <trkpt lat="46.62621" lon="5.9131">
        <ele>917.24</ele>
        <time>2016-06-11T08:42:13Z</time>
      </trkpt>
      <trkpt lat="46.62622" lon="5.9131">
        <ele>917.72</ele>
        <time>2016-06-11T08:42:38Z</time>
      </trkpt>
      <trkpt lat="46.62622" lon="5.9131">
        <ele>918.68</ele>
        <time>2016-06-11T08:43:02Z</time>
      </trkpt>
      <trkpt lat="46.62624" lon="5.91309">
        <ele>918.68</ele>
        <time>2016-06-11T08:43:23Z</time>
      </trkpt>
      <trkpt lat="46.62624" lon="5.91309">
        <ele>918.68</ele>
        <time>2016-06-11T08:43:42Z</time>
      </trkpt>
      <trkpt lat="46.62625" lon="5.91309">
        <ele>919.16</ele>
        <time>2016-06-11T08:44:01Z</time>
      </trkpt>
      <trkpt lat="46.62625" lon="5.91311">
        <ele>920.6</ele>
        <time>2016-06-11T08:44:20Z</time>
      </trkpt>
      <trkpt lat="46.62625" lon="5.91312">
        <ele>920.6</ele>
        <time>2016-06-11T08:44:36Z</time>
      </trkpt>
      <trkpt lat="46.62625" lon="5.91312">
        <ele>921.08</ele>
        <time>2016-06-11T08:44:57Z</time>
      </trkpt>
      <trkpt lat="46.62625" lon="5.91312">
        <ele>921.08</ele>
        <time>2016-06-11T08:45:14Z</time>
      </trkpt>
      <trkpt lat="46.62624" lon="5.91312">
        <ele>921.08</ele>
        <time>2016-06-11T08:45:30Z</time>
      </trkpt>
      <trkpt lat="46.62624" lon="5.91311">
        <ele>920.6</ele>
        <time>2016-06-11T08:45:49Z</time>
      </trkpt>
      <trkpt lat="46.62624" lon="5.91311">
        <ele>920.6</ele>
        <time>2016-06-11T08:46:03Z</time>
      </trkpt>
      <trkpt lat="46.62623" lon="5.91311">
        <ele>920.6</ele>
        <time>2016-06-11T08:46:18Z</time>
      </trkpt>
      <trkpt lat="46.62622" lon="5.91312">
        <ele>920.6</ele>
        <time>2016-06-11T08:46:30Z</time>
      </trkpt>
      <trkpt lat="46.62622" lon="5.91314">
        <ele>919.16</ele>
        <time>2016-06-11T08:46:45Z</time>
      </trkpt>
      <trkpt lat="46.62621" lon="5.91324">
        <ele>916.75</ele>
        <time>2016-06-11T08:46:58Z</time>
      </trkpt>
      <trkpt lat="46.6262" lon="5.91341">
        <ele>913.39</ele>
        <time>2016-06-11T08:47:10Z</time>
      </trkpt>
      <trkpt lat="46.62619" lon="5.91357">
        <ele>914.35</ele>
        <time>2016-06-11T08:47:24Z</time>
      </trkpt>
      <trkpt lat="46.62619" lon="5.91367">
        <ele>915.31</ele>
        <time>2016-06-11T08:47:39Z</time>
      </trkpt>
      <trkpt lat="46.62619" lon="5.91379">
        <ele>915.31</ele>
        <time>2016-06-11T08:47:52Z</time>
      </trkpt>
      <trkpt lat="46.62619" lon="5.91385">
        <ele>916.27</ele>
        <time>2016-06-11T08:48:05Z</time>
      </trkpt>
      <trkpt lat="46.62615" lon="5.91386">
        <ele>916.27</ele>
        <time>2016-06-11T08:48:21Z</time>
      </trkpt>
      <trkpt lat="46.62616" lon="5.91377">
        <ele>914.83</ele>
        <time>2016-06-11T08:48:33Z</time>
      </trkpt>
      <trkpt lat="46.62615" lon="5.91374">
        <ele>914.83</ele>
        <time>2016-06-11T08:48:44Z</time>
      </trkpt>
      <trkpt lat="46.62619" lon="5.91371">
        <ele>915.79</ele>
        <time>2016-06-11T08:48:58Z</time>
      </trkpt>
      <trkpt lat="46.62622" lon="5.91371">
        <ele>916.27</ele>
        <time>2016-06-11T08:49:15Z</time>
      </trkpt>
      <trkpt lat="46.62622" lon="5.91371">
        <ele>916.27</ele>
        <time>2016-06-11T08:49:29Z</time>
      </trkpt>
      <trkpt lat="46.62622" lon="5.91371">
        <ele>916.27</ele>
        <time>2016-06-11T08:49:33Z</time>
      </trkpt>
      <trkpt lat="46.62618" lon="5.91364">
        <ele>917.72</ele>
        <time>2016-06-11T08:49:44Z</time>
      </trkpt>
      <trkpt lat="46.62615" lon="5.91359">
        <ele>919.16</ele>
        <time>2016-06-11T08:49:55Z</time>
      </trkpt>
      <trkpt lat="46.62615" lon="5.91342">
        <ele>919.16</ele>
        <time>2016-06-11T08:50:07Z</time>
      </trkpt>
      <trkpt lat="46.62615" lon="5.91336">
        <ele>920.12</ele>
        <time>2016-06-11T08:50:19Z</time>
      </trkpt>
      <trkpt lat="46.62617" lon="5.91333">
        <ele>920.12</ele>
        <time>2016-06-11T08:50:33Z</time>
      </trkpt>
      <trkpt lat="46.62618" lon="5.91325">
        <ele>919.16</ele>
        <time>2016-06-11T08:50:45Z</time>
      </trkpt>
      <trkpt lat="46.62617" lon="5.91321">
        <ele>919.64</ele>
        <time>2016-06-11T08:50:58Z</time>
      </trkpt>
      <trkpt lat="46.62618" lon="5.91319">
        <ele>919.64</ele>
        <time>2016-06-11T08:51:13Z</time>
      </trkpt>
      <trkpt lat="46.6262" lon="5.91319">
        <ele>919.64</ele>
        <time>2016-06-11T08:51:25Z</time>
      </trkpt>
      <trkpt lat="46.6262" lon="5.91317">
        <ele>918.68</ele>
        <time>2016-06-11T08:51:39Z</time>
      </trkpt>
      <trkpt lat="46.6262" lon="5.91317">
        <ele>918.68</ele>
        <time>2016-06-11T08:51:54Z</time>
      </trkpt>
      <trkpt lat="46.6262" lon="5.91318">
        <ele>917.72</ele>
        <time>2016-06-11T08:52:07Z</time>
      </trkpt>
      <trkpt lat="46.62618" lon="5.91328">
        <ele>915.79</ele>
        <time>2016-06-11T08:52:19Z</time>
      </trkpt>
      <trkpt lat="46.62617" lon="5.91334">
        <ele>915.31</ele>
        <time>2016-06-11T08:52:36Z</time>
      </trkpt>
      <trkpt lat="46.62616" lon="5.91338">
        <ele>915.79</ele>
        <time>2016-06-11T08:52:51Z</time>
      </trkpt>
      <trkpt lat="46.62616" lon="5.91336">
        <ele>914.83</ele>
        <time>2016-06-11T08:52:57Z</time>
      </trkpt>
      <trkpt lat="46.62608" lon="5.91329">
        <ele>917.72</ele>
        <time>2016-06-11T08:53:11Z</time>
      </trkpt>
      <trkpt lat="46.62608" lon="5.91332">
        <ele>918.68</ele>
        <time>2016-06-11T08:53:28Z</time>
      </trkpt>
      <trkpt lat="46.62613" lon="5.91343">
        <ele>920.6</ele>
        <time>2016-06-11T08:53:40Z</time>
      </trkpt>
      <trkpt lat="46.62613" lon="5.91355">
        <ele>920.6</ele>
        <time>2016-06-11T08:53:52Z</time>
      </trkpt>
      <trkpt lat="46.62616" lon="5.91366">
        <ele>918.2</ele>
        <time>2016-06-11T08:54:03Z</time>
      </trkpt>
      <trkpt lat="46.62615" lon="5.91385">
        <ele>913.87</ele>
        <time>2016-06-11T08:54:16Z</time>
      </trkpt>
      <trkpt lat="46.62614" lon="5.91396">
        <ele>911.95</ele>
        <time>2016-06-11T08:54:25Z</time>
      </trkpt>
      <trkpt lat="46.62613" lon="5.914">
        <ele>912.91</ele>
        <time>2016-06-11T08:54:29Z</time>
      </trkpt>
      <trkpt lat="46.62603" lon="5.91414">
        <ele>914.35</ele>
        <time>2016-06-11T08:54:43Z</time>
      </trkpt>
      <trkpt lat="46.62602" lon="5.91422">
        <ele>913.39</ele>
        <time>2016-06-11T08:54:55Z</time>
      </trkpt>
      <trkpt lat="46.62607" lon="5.91427">
        <ele>916.27</ele>
        <time>2016-06-11T08:55:05Z</time>
      </trkpt>
      <trkpt lat="46.6261" lon="5.91433">
        <ele>922.04</ele>
        <time>2016-06-11T08:55:20Z</time>
      </trkpt>
      <trkpt lat="46.62617" lon="5.91438">
        <ele>926.37</ele>
        <time>2016-06-11T08:55:32Z</time>
      </trkpt>
      <trkpt lat="46.62623" lon="5.91444">
        <ele>925.89</ele>
        <time>2016-06-11T08:55:39Z</time>
      </trkpt>
      <trkpt lat="46.62633" lon="5.9145">
        <ele>925.41</ele>
        <time>2016-06-11T08:55:51Z</time>
      </trkpt>
      <trkpt lat="46.62641" lon="5.91454">
        <ele>927.33</ele>
        <time>2016-06-11T08:56:04Z</time>
      </trkpt>
      <trkpt lat="46.62649" lon="5.9146">
        <ele>929.25</ele>
        <time>2016-06-11T08:56:21Z</time>
      </trkpt>
      <trkpt lat="46.62656" lon="5.91465">
        <ele>932.62</ele>
        <time>2016-06-11T08:56:36Z</time>
      </trkpt>
      <trkpt lat="46.62664" lon="5.91472">
        <ele>934.06</ele>
        <time>2016-06-11T08:56:52Z</time>
      </trkpt>
      <trkpt lat="46.62674" lon="5.9148">
        <ele>934.54</ele>
        <time>2016-06-11T08:57:05Z</time>
      </trkpt>
      <trkpt lat="46.62679" lon="5.91485">
        <ele>935.98</ele>
        <time>2016-06-11T08:57:19Z</time>
      </trkpt>
      <trkpt lat="46.62686" lon="5.91493">
        <ele>935.98</ele>
        <time>2016-06-11T08:57:33Z</time>
      </trkpt>
      <trkpt lat="46.62689" lon="5.91498">
        <ele>937.9</ele>
        <time>2016-06-11T08:57:45Z</time>
      </trkpt>
      <trkpt lat="46.62697" lon="5.91502">
        <ele>938.38</ele>
        <time>2016-06-11T08:57:58Z</time>
      </trkpt>
      <trkpt lat="46.62699" lon="5.91503">
        <ele>937.9</ele>
        <time>2016-06-11T08:58:09Z</time>
      </trkpt>
      <trkpt lat="46.62708" lon="5.91507">
        <ele>934.54</ele>
        <time>2016-06-11T08:58:25Z</time>
      </trkpt>
      <trkpt lat="46.62727" lon="5.91506">
        <ele>932.62</ele>
        <time>2016-06-11T08:58:37Z</time>
      </trkpt>
      <trkpt lat="46.62744" lon="5.91502">
        <ele>932.62</ele>
        <time>2016-06-11T08:58:50Z</time>
      </trkpt>
      <trkpt lat="46.62747" lon="5.915">
        <ele>932.14</ele>
        <time>2016-06-11T08:58:55Z</time>
      </trkpt>
      <trkpt lat="46.62753" lon="5.91501">
        <ele>930.69</ele>
        <time>2016-06-11T08:59:08Z</time>
      </trkpt>
      <trkpt lat="46.62756" lon="5.91502">
        <ele>930.21</ele>
        <time>2016-06-11T08:59:21Z</time>
      </trkpt>
      <trkpt lat="46.6276" lon="5.91504">
        <ele>929.25</ele>
        <time>2016-06-11T08:59:38Z</time>
      </trkpt>
      <trkpt lat="46.62763" lon="5.91504">
        <ele>928.77</ele>
        <time>2016-06-11T08:59:52Z</time>
      </trkpt>
      <trkpt lat="46.62766" lon="5.91506">
        <ele>928.29</ele>
        <time>2016-06-11T09:00:03Z</time>
      </trkpt>
      <trkpt lat="46.62767" lon="5.91507">
        <ele>927.33</ele>
        <time>2016-06-11T09:00:18Z</time>
      </trkpt>
      <trkpt lat="46.62771" lon="5.91515">
        <ele>924.45</ele>
        <time>2016-06-11T09:00:34Z</time>
      </trkpt>
      <trkpt lat="46.62777" lon="5.91525">
        <ele>923.96</ele>
        <time>2016-06-11T09:00:49Z</time>
      </trkpt>
      <trkpt lat="46.62785" lon="5.91535">
        <ele>923</ele>
        <time>2016-06-11T09:01:02Z</time>
      </trkpt>
      <trkpt lat="46.62796" lon="5.91545">
        <ele>922.52</ele>
        <time>2016-06-11T09:01:12Z</time>
      </trkpt>
      <trkpt lat="46.62798" lon="5.9155">
        <ele>921.56</ele>
        <time>2016-06-11T09:01:16Z</time>
      </trkpt>
      <trkpt lat="46.62804" lon="5.91562">
        <ele>919.64</ele>
        <time>2016-06-11T09:01:29Z</time>
      </trkpt>
      <trkpt lat="46.62811" lon="5.9157">
        <ele>919.16</ele>
        <time>2016-06-11T09:01:45Z</time>
      </trkpt>
      <trkpt lat="46.62818" lon="5.91589">
        <ele>918.68</ele>
        <time>2016-06-11T09:01:58Z</time>
      </trkpt>
      <trkpt lat="46.62832" lon="5.91599">
        <ele>920.6</ele>
        <time>2016-06-11T09:02:10Z</time>
      </trkpt>
      <trkpt lat="46.6284" lon="5.91612">
        <ele>920.6</ele>
        <time>2016-06-11T09:02:22Z</time>
      </trkpt>
      <trkpt lat="46.62849" lon="5.91628">
        <ele>921.08</ele>
        <time>2016-06-11T09:02:38Z</time>
      </trkpt>
      <trkpt lat="46.62854" lon="5.91638">
        <ele>921.56</ele>
        <time>2016-06-11T09:02:50Z</time>
      </trkpt>
      <trkpt lat="46.6286" lon="5.91648">
        <ele>919.64</ele>
        <time>2016-06-11T09:03:03Z</time>
      </trkpt>
      <trkpt lat="46.62861" lon="5.91649">
        <ele>919.64</ele>
        <time>2016-06-11T09:03:04Z</time>
      </trkpt>
      <trkpt lat="46.62868" lon="5.91651">
        <ele>919.16</ele>
        <time>2016-06-11T09:03:11Z</time>
      </trkpt>
      <trkpt lat="46.62871" lon="5.91657">
        <ele>921.56</ele>
        <time>2016-06-11T09:03:25Z</time>
      </trkpt>
      <trkpt lat="46.62873" lon="5.91661">
        <ele>922.04</ele>
        <time>2016-06-11T09:03:38Z</time>
      </trkpt>
      <trkpt lat="46.62875" lon="5.91665">
        <ele>923.96</ele>
        <time>2016-06-11T09:03:53Z</time>
      </trkpt>
      <trkpt lat="46.62879" lon="5.91669">
        <ele>925.41</ele>
        <time>2016-06-11T09:04:07Z</time>
      </trkpt>
      <trkpt lat="46.62883" lon="5.91673">
        <ele>924.45</ele>
        <time>2016-06-11T09:04:23Z</time>
      </trkpt>
      <trkpt lat="46.6289" lon="5.91687">
        <ele>922.04</ele>
        <time>2016-06-11T09:04:37Z</time>
      </trkpt>
      <trkpt lat="46.62903" lon="5.91705">
        <ele>921.08</ele>
        <time>2016-06-11T09:04:52Z</time>
      </trkpt>
      <trkpt lat="46.62918" lon="5.91726">
        <ele>920.12</ele>
        <time>2016-06-11T09:05:06Z</time>
      </trkpt>
      <trkpt lat="46.6293" lon="5.91741">
        <ele>920.12</ele>
        <time>2016-06-11T09:05:17Z</time>
      </trkpt>
      <trkpt lat="46.62933" lon="5.91743">
        <ele>920.12</ele>
        <time>2016-06-11T09:05:20Z</time>
      </trkpt>
      <trkpt lat="46.62949" lon="5.91765">
        <ele>919.64</ele>
        <time>2016-06-11T09:05:34Z</time>
      </trkpt>
      <trkpt lat="46.6296" lon="5.91777">
        <ele>919.16</ele>
        <time>2016-06-11T09:05:48Z</time>
      </trkpt>
      <trkpt lat="46.62973" lon="5.91797">
        <ele>920.12</ele>
        <time>2016-06-11T09:06:02Z</time>
      </trkpt>
      <trkpt lat="46.62985" lon="5.91816">
        <ele>920.6</ele>
        <time>2016-06-11T09:06:15Z</time>
      </trkpt>
      <trkpt lat="46.6299" lon="5.91823">
        <ele>920.6</ele>
        <time>2016-06-11T09:06:23Z</time>
      </trkpt>
      <trkpt lat="46.62998" lon="5.91834">
        <ele>918.68</ele>
        <time>2016-06-11T09:06:33Z</time>
      </trkpt>
      <trkpt lat="46.63009" lon="5.91855">
        <ele>916.27</ele>
        <time>2016-06-11T09:06:46Z</time>
      </trkpt>
      <trkpt lat="46.63017" lon="5.91871">
        <ele>915.79</ele>
        <time>2016-06-11T09:06:59Z</time>
      </trkpt>
      <trkpt lat="46.63022" lon="5.91882">
        <ele>913.87</ele>
        <time>2016-06-11T09:07:10Z</time>
      </trkpt>
      <trkpt lat="46.63022" lon="5.91886">
        <ele>914.35</ele>
        <time>2016-06-11T09:07:23Z</time>
      </trkpt>
      <trkpt lat="46.63022" lon="5.91888">
        <ele>915.31</ele>
        <time>2016-06-11T09:07:36Z</time>
      </trkpt>
      <trkpt lat="46.63021" lon="5.9189">
        <ele>914.83</ele>
        <time>2016-06-11T09:07:51Z</time>
      </trkpt>
      <trkpt lat="46.6302" lon="5.91899">
        <ele>913.39</ele>
        <time>2016-06-11T09:08:02Z</time>
      </trkpt>
      <trkpt lat="46.63021" lon="5.91908">
        <ele>909.54</ele>
        <time>2016-06-11T09:08:15Z</time>
      </trkpt>
      <trkpt lat="46.63023" lon="5.91917">
        <ele>909.54</ele>
        <time>2016-06-11T09:08:26Z</time>
      </trkpt>
      <trkpt lat="46.63028" lon="5.91933">
        <ele>909.06</ele>
        <time>2016-06-11T09:08:38Z</time>
      </trkpt>
      <trkpt lat="46.63036" lon="5.91943">
        <ele>909.54</ele>
        <time>2016-06-11T09:08:52Z</time>
      </trkpt>
      <trkpt lat="46.63041" lon="5.91946">
        <ele>910.03</ele>
        <time>2016-06-11T09:09:06Z</time>
      </trkpt>
      <trkpt lat="46.63044" lon="5.91946">
        <ele>909.54</ele>
        <time>2016-06-11T09:09:18Z</time>
      </trkpt>
      <trkpt lat="46.63045" lon="5.91946">
        <ele>908.58</ele>
        <time>2016-06-11T09:09:35Z</time>
      </trkpt>
      <trkpt lat="46.63046" lon="5.91948">
        <ele>908.1</ele>
        <time>2016-06-11T09:09:48Z</time>
      </trkpt>
      <trkpt lat="46.63047" lon="5.91949">
        <ele>907.62</ele>
        <time>2016-06-11T09:10:02Z</time>
      </trkpt>
      <trkpt lat="46.63051" lon="5.91952">
        <ele>906.66</ele>
        <time>2016-06-11T09:10:15Z</time>
      </trkpt>
      <trkpt lat="46.63059" lon="5.91962">
        <ele>905.22</ele>
        <time>2016-06-11T09:10:28Z</time>
      </trkpt>
      <trkpt lat="46.63068" lon="5.9197">
        <ele>903.78</ele>
        <time>2016-06-11T09:10:43Z</time>
      </trkpt>
      <trkpt lat="46.63077" lon="5.91978">
        <ele>903.3</ele>
        <time>2016-06-11T09:10:57Z</time>
      </trkpt>
      <trkpt lat="46.63081" lon="5.91982">
        <ele>901.37</ele>
        <time>2016-06-11T09:11:10Z</time>
      </trkpt>
      <trkpt lat="46.63085" lon="5.9199">
        <ele>899.45</ele>
        <time>2016-06-11T09:11:23Z</time>
      </trkpt>
      <trkpt lat="46.6309" lon="5.91994">
        <ele>899.45</ele>
        <time>2016-06-11T09:11:36Z</time>
      </trkpt>
      <trkpt lat="46.63099" lon="5.92009">
        <ele>896.57</ele>
        <time>2016-06-11T09:11:51Z</time>
      </trkpt>
      <trkpt lat="46.63106" lon="5.92027">
        <ele>894.64</ele>
        <time>2016-06-11T09:12:04Z</time>
      </trkpt>
      <trkpt lat="46.63112" lon="5.92037">
        <ele>894.64</ele>
        <time>2016-06-11T09:12:19Z</time>
      </trkpt>
      <trkpt lat="46.63119" lon="5.92045">
        <ele>895.12</ele>
        <time>2016-06-11T09:12:32Z</time>
      </trkpt>
      <trkpt lat="46.63124" lon="5.9205">
        <ele>897.05</ele>
        <time>2016-06-11T09:12:46Z</time>
      </trkpt>
      <trkpt lat="46.63131" lon="5.92056">
        <ele>898.97</ele>
        <time>2016-06-11T09:12:59Z</time>
      </trkpt>
      <trkpt lat="46.63137" lon="5.92062">
        <ele>899.45</ele>
        <time>2016-06-11T09:13:14Z</time>
      </trkpt>
      <trkpt lat="46.63143" lon="5.92069">
        <ele>897.05</ele>
        <time>2016-06-11T09:13:29Z</time>
      </trkpt>
      <trkpt lat="46.63149" lon="5.92079">
        <ele>894.64</ele>
        <time>2016-06-11T09:13:41Z</time>
      </trkpt>
      <trkpt lat="46.63156" lon="5.92088">
        <ele>894.64</ele>
        <time>2016-06-11T09:13:54Z</time>
      </trkpt>
      <trkpt lat="46.63166" lon="5.92103">
        <ele>889.36</ele>
        <time>2016-06-11T09:14:05Z</time>
      </trkpt>
      <trkpt lat="46.63169" lon="5.92114">
        <ele>887.43</ele>
        <time>2016-06-11T09:14:19Z</time>
      </trkpt>
      <trkpt lat="46.63173" lon="5.92121">
        <ele>885.51</ele>
        <time>2016-06-11T09:14:33Z</time>
      </trkpt>
      <trkpt lat="46.63179" lon="5.92138">
        <ele>883.59</ele>
        <time>2016-06-11T09:14:45Z</time>
      </trkpt>
      <trkpt lat="46.63188" lon="5.92147">
        <ele>884.07</ele>
        <time>2016-06-11T09:15:01Z</time>
      </trkpt>
      <trkpt lat="46.6319" lon="5.92152">
        <ele>884.55</ele>
        <time>2016-06-11T09:15:13Z</time>
      </trkpt>
      <trkpt lat="46.63191" lon="5.92157">
        <ele>884.55</ele>
        <time>2016-06-11T09:15:27Z</time>
      </trkpt>
      <trkpt lat="46.63196" lon="5.92162">
        <ele>885.51</ele>
        <time>2016-06-11T09:15:43Z</time>
      </trkpt>
      <trkpt lat="46.63203" lon="5.92169">
        <ele>887.43</ele>
        <time>2016-06-11T09:15:57Z</time>
      </trkpt>
      <trkpt lat="46.6321" lon="5.9218">
        <ele>888.4</ele>
        <time>2016-06-11T09:16:14Z</time>
      </trkpt>
      <trkpt lat="46.63214" lon="5.92194">
        <ele>890.8</ele>
        <time>2016-06-11T09:16:27Z</time>
      </trkpt>
      <trkpt lat="46.6322" lon="5.92207">
        <ele>888.88</ele>
        <time>2016-06-11T09:16:38Z</time>
      </trkpt>
      <trkpt lat="46.63231" lon="5.92223">
        <ele>887.91</ele>
        <time>2016-06-11T09:16:51Z</time>
      </trkpt>
      <trkpt lat="46.63236" lon="5.92231">
        <ele>885.51</ele>
        <time>2016-06-11T09:17:02Z</time>
      </trkpt>
      <trkpt lat="46.63245" lon="5.92243">
        <ele>884.07</ele>
        <time>2016-06-11T09:17:15Z</time>
      </trkpt>
      <trkpt lat="46.63254" lon="5.9225">
        <ele>883.59</ele>
        <time>2016-06-11T09:17:29Z</time>
      </trkpt>
      <trkpt lat="46.63262" lon="5.92257">
        <ele>882.63</ele>
        <time>2016-06-11T09:17:45Z</time>
      </trkpt>
      <trkpt lat="46.63265" lon="5.92257">
        <ele>882.15</ele>
        <time>2016-06-11T09:17:56Z</time>
      </trkpt>
      <trkpt lat="46.6327" lon="5.92263">
        <ele>880.71</ele>
        <time>2016-06-11T09:18:08Z</time>
      </trkpt>
      <trkpt lat="46.63275" lon="5.9227">
        <ele>878.3</ele>
        <time>2016-06-11T09:18:21Z</time>
      </trkpt>
      <trkpt lat="46.63286" lon="5.92286">
        <ele>874.46</ele>
        <time>2016-06-11T09:18:34Z</time>
      </trkpt>
      <trkpt lat="46.63287" lon="5.92291">
        <ele>872.53</ele>
        <time>2016-06-11T09:18:37Z</time>
      </trkpt>
      <trkpt lat="46.63294" lon="5.923">
        <ele>870.13</ele>
        <time>2016-06-11T09:18:52Z</time>
      </trkpt>
      <trkpt lat="46.63302" lon="5.92324">
        <ele>865.8</ele>
        <time>2016-06-11T09:19:09Z</time>
      </trkpt>
      <trkpt lat="46.63308" lon="5.92333">
        <ele>867.25</ele>
        <time>2016-06-11T09:19:27Z</time>
      </trkpt>
      <trkpt lat="46.63308" lon="5.92334">
        <ele>865.8</ele>
        <time>2016-06-11T09:19:44Z</time>
      </trkpt>
      <trkpt lat="46.63307" lon="5.9233">
        <ele>864.36</ele>
        <time>2016-06-11T09:19:59Z</time>
      </trkpt>
      <trkpt lat="46.63306" lon="5.92328">
        <ele>863.4</ele>
        <time>2016-06-11T09:20:16Z</time>
      </trkpt>
      <trkpt lat="46.63305" lon="5.92326">
        <ele>861.48</ele>
        <time>2016-06-11T09:20:32Z</time>
      </trkpt>
      <trkpt lat="46.63306" lon="5.92323">
        <ele>860.52</ele>
        <time>2016-06-11T09:20:47Z</time>
      </trkpt>
      <trkpt lat="46.6331" lon="5.9232">
        <ele>857.15</ele>
        <time>2016-06-11T09:21:01Z</time>
      </trkpt>
      <trkpt lat="46.63314" lon="5.92311">
        <ele>854.75</ele>
        <time>2016-06-11T09:21:15Z</time>
      </trkpt>
      <trkpt lat="46.63315" lon="5.92306">
        <ele>854.27</ele>
        <time>2016-06-11T09:21:31Z</time>
      </trkpt>
      <trkpt lat="46.63318" lon="5.92306">
        <ele>853.31</ele>
        <time>2016-06-11T09:21:44Z</time>
      </trkpt>
      <trkpt lat="46.63322" lon="5.92305">
        <ele>852.83</ele>
        <time>2016-06-11T09:22:00Z</time>
      </trkpt>
      <trkpt lat="46.63335" lon="5.9231">
        <ele>849.94</ele>
        <time>2016-06-11T09:22:13Z</time>
      </trkpt>
      <trkpt lat="46.6334" lon="5.92314">
        <ele>847.06</ele>
        <time>2016-06-11T09:22:26Z</time>
      </trkpt>
      <trkpt lat="46.63346" lon="5.92317">
        <ele>845.62</ele>
        <time>2016-06-11T09:22:42Z</time>
      </trkpt>
      <trkpt lat="46.6335" lon="5.92321">
        <ele>844.18</ele>
        <time>2016-06-11T09:22:55Z</time>
      </trkpt>
      <trkpt lat="46.63354" lon="5.92323">
        <ele>843.21</ele>
        <time>2016-06-11T09:23:11Z</time>
      </trkpt>
      <trkpt lat="46.63359" lon="5.92325">
        <ele>842.73</ele>
        <time>2016-06-11T09:23:24Z</time>
      </trkpt>
      <trkpt lat="46.63361" lon="5.92326">
        <ele>841.29</ele>
        <time>2016-06-11T09:23:39Z</time>
      </trkpt>
      <trkpt lat="46.63368" lon="5.92329">
        <ele>839.85</ele>
        <time>2016-06-11T09:23:52Z</time>
      </trkpt>
      <trkpt lat="46.63377" lon="5.9233">
        <ele>838.89</ele>
        <time>2016-06-11T09:24:03Z</time>
      </trkpt>
      <trkpt lat="46.63378" lon="5.9233">
        <ele>836.48</ele>
        <time>2016-06-11T09:24:18Z</time>
      </trkpt>
      <trkpt lat="46.63382" lon="5.92328">
        <ele>834.56</ele>
        <time>2016-06-11T09:24:32Z</time>
      </trkpt>
      <trkpt lat="46.63385" lon="5.92328">
        <ele>832.64</ele>
        <time>2016-06-11T09:24:46Z</time>
      </trkpt>
      <trkpt lat="46.63392" lon="5.92326">
        <ele>831.68</ele>
        <time>2016-06-11T09:24:59Z</time>
      </trkpt>
      <trkpt lat="46.63395" lon="5.92327">
        <ele>830.24</ele>
        <time>2016-06-11T09:25:12Z</time>
      </trkpt>
      <trkpt lat="46.63402" lon="5.92327">
        <ele>827.35</ele>
        <time>2016-06-11T09:25:26Z</time>
      </trkpt>
      <trkpt lat="46.63407" lon="5.92327">
        <ele>826.87</ele>
        <time>2016-06-11T09:25:44Z</time>
      </trkpt>
      <trkpt lat="46.6341" lon="5.92326">
        <ele>824.95</ele>
        <time>2016-06-11T09:25:58Z</time>
      </trkpt>
      <trkpt lat="46.63413" lon="5.92327">
        <ele>821.58</ele>
        <time>2016-06-11T09:26:16Z</time>
      </trkpt>
      <trkpt lat="46.63414" lon="5.92319">
        <ele>819.18</ele>
        <time>2016-06-11T09:26:33Z</time>
      </trkpt>
      <trkpt lat="46.63416" lon="5.92314">
        <ele>815.82</ele>
        <time>2016-06-11T09:26:46Z</time>
      </trkpt>
      <trkpt lat="46.6342" lon="5.92309">
        <ele>815.34</ele>
        <time>2016-06-11T09:27:01Z</time>
      </trkpt>
      <trkpt lat="46.63425" lon="5.92305">
        <ele>813.89</ele>
        <time>2016-06-11T09:27:17Z</time>
      </trkpt>
      <trkpt lat="46.63429" lon="5.92294">
        <ele>809.09</ele>
        <time>2016-06-11T09:27:34Z</time>
      </trkpt>
      <trkpt lat="46.63433" lon="5.92293">
        <ele>808.61</ele>
        <time>2016-06-11T09:27:54Z</time>
      </trkpt>
      <trkpt lat="46.6343" lon="5.92291">
        <ele>808.13</ele>
        <time>2016-06-11T09:28:15Z</time>
      </trkpt>
      <trkpt lat="46.63426" lon="5.92289">
        <ele>807.16</ele>
        <time>2016-06-11T09:28:33Z</time>
      </trkpt>
      <trkpt lat="46.63419" lon="5.92281">
        <ele>805.72</ele>
        <time>2016-06-11T09:28:46Z</time>
      </trkpt>
      <trkpt lat="46.6342" lon="5.92271">
        <ele>803.8</ele>
        <time>2016-06-11T09:29:02Z</time>
      </trkpt>
      <trkpt lat="46.63435" lon="5.92272">
        <ele>799.95</ele>
        <time>2016-06-11T09:29:17Z</time>
      </trkpt>
      <trkpt lat="46.6345" lon="5.9227">
        <ele>797.55</ele>
        <time>2016-06-11T09:29:32Z</time>
      </trkpt>
      <trkpt lat="46.63456" lon="5.92271">
        <ele>797.07</ele>
        <time>2016-06-11T09:29:38Z</time>
      </trkpt>
      <trkpt lat="46.63466" lon="5.92269">
        <ele>794.67</ele>
        <time>2016-06-11T09:29:53Z</time>
      </trkpt>
      <trkpt lat="46.63467" lon="5.92267">
        <ele>792.26</ele>
        <time>2016-06-11T09:30:07Z</time>
      </trkpt>
      <trkpt lat="46.63468" lon="5.92268">
        <ele>790.82</ele>
        <time>2016-06-11T09:30:13Z</time>
      </trkpt>
      <trkpt lat="46.63477" lon="5.92264">
        <ele>786.98</ele>
        <time>2016-06-11T09:30:27Z</time>
      </trkpt>
      <trkpt lat="46.63482" lon="5.92264">
        <ele>785.05</ele>
        <time>2016-06-11T09:30:33Z</time>
      </trkpt>
      <trkpt lat="46.63486" lon="5.92266">
        <ele>783.61</ele>
        <time>2016-06-11T09:30:36Z</time>
      </trkpt>
      <trkpt lat="46.63489" lon="5.92268">
        <ele>781.69</ele>
        <time>2016-06-11T09:30:39Z</time>
      </trkpt>
      <trkpt lat="46.63493" lon="5.92272">
        <ele>778.81</ele>
        <time>2016-06-11T09:30:43Z</time>
      </trkpt>
      <trkpt lat="46.63506" lon="5.92275">
        <ele>774.96</ele>
        <time>2016-06-11T09:30:57Z</time>
      </trkpt>
      <trkpt lat="46.63514" lon="5.9228">
        <ele>774</ele>
        <time>2016-06-11T09:31:08Z</time>
      </trkpt>
      <trkpt lat="46.63515" lon="5.92283">
        <ele>773.52</ele>
        <time>2016-06-11T09:31:10Z</time>
      </trkpt>
      <trkpt lat="46.63523" lon="5.92289">
        <ele>772.08</ele>
        <time>2016-06-11T09:31:17Z</time>
      </trkpt>
      <trkpt lat="46.63528" lon="5.92294">
        <ele>771.6</ele>
        <time>2016-06-11T09:31:21Z</time>
      </trkpt>
      <trkpt lat="46.63539" lon="5.92304">
        <ele>770.15</ele>
        <time>2016-06-11T09:31:31Z</time>
      </trkpt>
      <trkpt lat="46.63542" lon="5.92308">
        <ele>769.67</ele>
        <time>2016-06-11T09:31:34Z</time>
      </trkpt>
      <trkpt lat="46.63556" lon="5.92319">
        <ele>767.27</ele>
        <time>2016-06-11T09:31:47Z</time>
      </trkpt>
      <trkpt lat="46.63561" lon="5.9233">
        <ele>768.23</ele>
        <time>2016-06-11T09:31:55Z</time>
      </trkpt>
      <trkpt lat="46.63566" lon="5.92335">
        <ele>769.19</ele>
        <time>2016-06-11T09:32:00Z</time>
      </trkpt>
      <trkpt lat="46.63583" lon="5.92352">
        <ele>769.19</ele>
        <time>2016-06-11T09:32:14Z</time>
      </trkpt>
      <trkpt lat="46.636" lon="5.92365">
        <ele>767.27</ele>
        <time>2016-06-11T09:32:29Z</time>
      </trkpt>
      <trkpt lat="46.63602" lon="5.9237">
        <ele>766.79</ele>
        <time>2016-06-11T09:32:32Z</time>
      </trkpt>
      <trkpt lat="46.63604" lon="5.92387">
        <ele>764.39</ele>
        <time>2016-06-11T09:32:41Z</time>
      </trkpt>
      <trkpt lat="46.63603" lon="5.92405">
        <ele>761.98</ele>
        <time>2016-06-11T09:32:50Z</time>
      </trkpt>
      <trkpt lat="46.63604" lon="5.92416">
        <ele>761.02</ele>
        <time>2016-06-11T09:32:55Z</time>
      </trkpt>
      <trkpt lat="46.63616" lon="5.9243">
        <ele>757.66</ele>
        <time>2016-06-11T09:33:08Z</time>
      </trkpt>
      <trkpt lat="46.63628" lon="5.9245">
        <ele>755.25</ele>
        <time>2016-06-11T09:33:24Z</time>
      </trkpt>
      <trkpt lat="46.63636" lon="5.92468">
        <ele>754.77</ele>
        <time>2016-06-11T09:33:38Z</time>
      </trkpt>
      <trkpt lat="46.63652" lon="5.92479">
        <ele>750.93</ele>
        <time>2016-06-11T09:33:52Z</time>
      </trkpt>
      <trkpt lat="46.63659" lon="5.92488">
        <ele>753.33</ele>
        <time>2016-06-11T09:34:07Z</time>
      </trkpt>
      <trkpt lat="46.63661" lon="5.92494">
        <ele>754.29</ele>
        <time>2016-06-11T09:34:15Z</time>
      </trkpt>
      <trkpt lat="46.63656" lon="5.92508">
        <ele>751.89</ele>
        <time>2016-06-11T09:34:19Z</time>
      </trkpt>
      <trkpt lat="46.63656" lon="5.92529">
        <ele>746.6</ele>
        <time>2016-06-11T09:34:31Z</time>
      </trkpt>
      <trkpt lat="46.63658" lon="5.92534">
        <ele>746.12</ele>
        <time>2016-06-11T09:34:37Z</time>
      </trkpt>
      <trkpt lat="46.63663" lon="5.92557">
        <ele>741.31</ele>
        <time>2016-06-11T09:34:49Z</time>
      </trkpt>
      <trkpt lat="46.63672" lon="5.92559">
        <ele>740.35</ele>
        <time>2016-06-11T09:34:57Z</time>
      </trkpt>
      <trkpt lat="46.63695" lon="5.92564">
        <ele>739.39</ele>
        <time>2016-06-11T09:35:06Z</time>
      </trkpt>
      <trkpt lat="46.63699" lon="5.92572">
        <ele>739.39</ele>
        <time>2016-06-11T09:35:11Z</time>
      </trkpt>
      <trkpt lat="46.63701" lon="5.92575">
        <ele>739.39</ele>
        <time>2016-06-11T09:35:13Z</time>
      </trkpt>
      <trkpt lat="46.63704" lon="5.92576">
        <ele>740.35</ele>
        <time>2016-06-11T09:35:15Z</time>
      </trkpt>
      <trkpt lat="46.63715" lon="5.92595">
        <ele>740.83</ele>
        <time>2016-06-11T09:35:26Z</time>
      </trkpt>
      <trkpt lat="46.6372" lon="5.92617">
        <ele>742.76</ele>
        <time>2016-06-11T09:35:37Z</time>
      </trkpt>
      <trkpt lat="46.63727" lon="5.92625">
        <ele>743.24</ele>
        <time>2016-06-11T09:35:44Z</time>
      </trkpt>
      <trkpt lat="46.63739" lon="5.92634">
        <ele>745.64</ele>
        <time>2016-06-11T09:35:57Z</time>
      </trkpt>
      <trkpt lat="46.63748" lon="5.92648">
        <ele>749</ele>
        <time>2016-06-11T09:36:10Z</time>
      </trkpt>
      <trkpt lat="46.63753" lon="5.92657">
        <ele>753.33</ele>
        <time>2016-06-11T09:36:20Z</time>
      </trkpt>
      <trkpt lat="46.63753" lon="5.92673">
        <ele>755.73</ele>
        <time>2016-06-11T09:36:31Z</time>
      </trkpt>
      <trkpt lat="46.63755" lon="5.9268">
        <ele>756.21</ele>
        <time>2016-06-11T09:36:34Z</time>
      </trkpt>
      <trkpt lat="46.63758" lon="5.92683">
        <ele>756.69</ele>
        <time>2016-06-11T09:36:37Z</time>
      </trkpt>
      <trkpt lat="46.63767" lon="5.92693">
        <ele>754.29</ele>
        <time>2016-06-11T09:36:48Z</time>
      </trkpt>
      <trkpt lat="46.63772" lon="5.92707">
        <ele>751.41</ele>
        <time>2016-06-11T09:37:01Z</time>
      </trkpt>
      <trkpt lat="46.63777" lon="5.92713">
        <ele>753.33</ele>
        <time>2016-06-11T09:37:13Z</time>
      </trkpt>
      <trkpt lat="46.63779" lon="5.92715">
        <ele>754.29</ele>
        <time>2016-06-11T09:37:29Z</time>
      </trkpt>
      <trkpt lat="46.63781" lon="5.92725">
        <ele>753.33</ele>
        <time>2016-06-11T09:37:55Z</time>
      </trkpt>
      <trkpt lat="46.63784" lon="5.92737">
        <ele>759.58</ele>
        <time>2016-06-11T09:38:23Z</time>
      </trkpt>
      <trkpt lat="46.63784" lon="5.9274">
        <ele>761.98</ele>
        <time>2016-06-11T09:38:49Z</time>
      </trkpt>
      <trkpt lat="46.63786" lon="5.92745">
        <ele>761.98</ele>
        <time>2016-06-11T09:39:01Z</time>
      </trkpt>
      <trkpt lat="46.63783" lon="5.92754">
        <ele>758.14</ele>
        <time>2016-06-11T09:39:15Z</time>
      </trkpt>
      <trkpt lat="46.63783" lon="5.92756">
        <ele>756.69</ele>
        <time>2016-06-11T09:39:21Z</time>
      </trkpt>
      <trkpt lat="46.63784" lon="5.92762">
        <ele>755.25</ele>
        <time>2016-06-11T09:39:26Z</time>
      </trkpt>
      <trkpt lat="46.63791" lon="5.92778">
        <ele>750.93</ele>
        <time>2016-06-11T09:39:40Z</time>
      </trkpt>
      <trkpt lat="46.63789" lon="5.92791">
        <ele>754.29</ele>
        <time>2016-06-11T09:39:54Z</time>
      </trkpt>
      <trkpt lat="46.63787" lon="5.92807">
        <ele>754.29</ele>
        <time>2016-06-11T09:40:06Z</time>
      </trkpt>
      <trkpt lat="46.63796" lon="5.92812">
        <ele>753.33</ele>
        <time>2016-06-11T09:40:19Z</time>
      </trkpt>
      <trkpt lat="46.63801" lon="5.92815">
        <ele>752.85</ele>
        <time>2016-06-11T09:40:23Z</time>
      </trkpt>
      <trkpt lat="46.63818" lon="5.92831">
        <ele>751.89</ele>
        <time>2016-06-11T09:40:37Z</time>
      </trkpt>
      <trkpt lat="46.63826" lon="5.92844">
        <ele>750.45</ele>
        <time>2016-06-11T09:40:48Z</time>
      </trkpt>
      <trkpt lat="46.63833" lon="5.92854">
        <ele>749.97</ele>
        <time>2016-06-11T09:40:57Z</time>
      </trkpt>
      <trkpt lat="46.6384" lon="5.92865">
        <ele>749</ele>
        <time>2016-06-11T09:41:04Z</time>
      </trkpt>
      <trkpt lat="46.63853" lon="5.92884">
        <ele>748.04</ele>
        <time>2016-06-11T09:41:19Z</time>
      </trkpt>
      <trkpt lat="46.63859" lon="5.92895">
        <ele>747.56</ele>
        <time>2016-06-11T09:41:28Z</time>
      </trkpt>
      <trkpt lat="46.63867" lon="5.92904">
        <ele>747.56</ele>
        <time>2016-06-11T09:41:41Z</time>
      </trkpt>
      <trkpt lat="46.63873" lon="5.92916">
        <ele>748.04</ele>
        <time>2016-06-11T09:41:56Z</time>
      </trkpt>
      <trkpt lat="46.63889" lon="5.92927">
        <ele>749</ele>
        <time>2016-06-11T09:42:07Z</time>
      </trkpt>
      <trkpt lat="46.63893" lon="5.92934">
        <ele>748.52</ele>
        <time>2016-06-11T09:42:19Z</time>
      </trkpt>
      <trkpt lat="46.63904" lon="5.92942">
        <ele>748.04</ele>
        <time>2016-06-11T09:42:33Z</time>
      </trkpt>
      <trkpt lat="46.63914" lon="5.92954">
        <ele>746.6</ele>
        <time>2016-06-11T09:42:44Z</time>
      </trkpt>
      <trkpt lat="46.6392" lon="5.92963">
        <ele>745.64</ele>
        <time>2016-06-11T09:42:50Z</time>
      </trkpt>
      <trkpt lat="46.63933" lon="5.92977">
        <ele>745.16</ele>
        <time>2016-06-11T09:43:03Z</time>
      </trkpt>
      <trkpt lat="46.63936" lon="5.92988">
        <ele>744.2</ele>
        <time>2016-06-11T09:43:14Z</time>
      </trkpt>
      <trkpt lat="46.63941" lon="5.93001">
        <ele>738.43</ele>
        <time>2016-06-11T09:43:27Z</time>
      </trkpt>
      <trkpt lat="46.63946" lon="5.93009">
        <ele>735.55</ele>
        <time>2016-06-11T09:43:39Z</time>
      </trkpt>
      <trkpt lat="46.63962" lon="5.93018">
        <ele>735.07</ele>
        <time>2016-06-11T09:43:53Z</time>
      </trkpt>
      <trkpt lat="46.63974" lon="5.93029">
        <ele>736.51</ele>
        <time>2016-06-11T09:44:05Z</time>
      </trkpt>
      <trkpt lat="46.63975" lon="5.93032">
        <ele>736.51</ele>
        <time>2016-06-11T09:44:08Z</time>
      </trkpt>
      <trkpt lat="46.63981" lon="5.93039">
        <ele>736.03</ele>
        <time>2016-06-11T09:44:13Z</time>
      </trkpt>
      <trkpt lat="46.63994" lon="5.93049">
        <ele>735.55</ele>
        <time>2016-06-11T09:44:26Z</time>
      </trkpt>
      <trkpt lat="46.64006" lon="5.93062">
        <ele>735.07</ele>
        <time>2016-06-11T09:44:39Z</time>
      </trkpt>
      <trkpt lat="46.64007" lon="5.93064">
        <ele>735.07</ele>
        <time>2016-06-11T09:44:40Z</time>
      </trkpt>
      <trkpt lat="46.64021" lon="5.93079">
        <ele>735.07</ele>
        <time>2016-06-11T09:44:54Z</time>
      </trkpt>
      <trkpt lat="46.64034" lon="5.93092">
        <ele>733.62</ele>
        <time>2016-06-11T09:45:05Z</time>
      </trkpt>
      <trkpt lat="46.64042" lon="5.93101">
        <ele>735.07</ele>
        <time>2016-06-11T09:45:18Z</time>
      </trkpt>
      <trkpt lat="46.64045" lon="5.93121">
        <ele>734.1</ele>
        <time>2016-06-11T09:45:31Z</time>
      </trkpt>
      <trkpt lat="46.64046" lon="5.93125">
        <ele>734.1</ele>
        <time>2016-06-11T09:45:55Z</time>
      </trkpt>
      <trkpt lat="46.64048" lon="5.93135">
        <ele>732.18</ele>
        <time>2016-06-11T09:46:09Z</time>
      </trkpt>
      <trkpt lat="46.64051" lon="5.93144">
        <ele>730.26</ele>
        <time>2016-06-11T09:46:23Z</time>
      </trkpt>
      <trkpt lat="46.64055" lon="5.93148">
        <ele>730.26</ele>
        <time>2016-06-11T09:46:34Z</time>
      </trkpt>
      <trkpt lat="46.64062" lon="5.93156">
        <ele>731.7</ele>
        <time>2016-06-11T09:46:51Z</time>
      </trkpt>
      <trkpt lat="46.6407" lon="5.93173">
        <ele>731.7</ele>
        <time>2016-06-11T09:47:05Z</time>
      </trkpt>
      <trkpt lat="46.64086" lon="5.93201">
        <ele>732.18</ele>
        <time>2016-06-11T09:47:19Z</time>
      </trkpt>
      <trkpt lat="46.64092" lon="5.93219">
        <ele>735.07</ele>
        <time>2016-06-11T09:47:30Z</time>
      </trkpt>
      <trkpt lat="46.64093" lon="5.93227">
        <ele>736.51</ele>
        <time>2016-06-11T09:47:39Z</time>
      </trkpt>
      <trkpt lat="46.6409" lon="5.93249">
        <ele>738.43</ele>
        <time>2016-06-11T09:47:50Z</time>
      </trkpt>
      <trkpt lat="46.64082" lon="5.93268">
        <ele>738.43</ele>
        <time>2016-06-11T09:48:03Z</time>
      </trkpt>
      <trkpt lat="46.6408" lon="5.93283">
        <ele>739.87</ele>
        <time>2016-06-11T09:48:17Z</time>
      </trkpt>
      <trkpt lat="46.64081" lon="5.93299">
        <ele>745.64</ele>
        <time>2016-06-11T09:48:33Z</time>
      </trkpt>
      <trkpt lat="46.64087" lon="5.93318">
        <ele>753.81</ele>
        <time>2016-06-11T09:48:45Z</time>
      </trkpt>
      <trkpt lat="46.64088" lon="5.93332">
        <ele>754.29</ele>
        <time>2016-06-11T09:48:57Z</time>
      </trkpt>
      <trkpt lat="46.64087" lon="5.93341">
        <ele>755.25</ele>
        <time>2016-06-11T09:49:10Z</time>
      </trkpt>
      <trkpt lat="46.64084" lon="5.9335">
        <ele>755.25</ele>
        <time>2016-06-11T09:49:23Z</time>
      </trkpt>
      <trkpt lat="46.64074" lon="5.93364">
        <ele>753.33</ele>
        <time>2016-06-11T09:49:37Z</time>
      </trkpt>
      <trkpt lat="46.64063" lon="5.93371">
        <ele>748.04</ele>
        <time>2016-06-11T09:49:52Z</time>
      </trkpt>
      <trkpt lat="46.64058" lon="5.93378">
        <ele>749.97</ele>
        <time>2016-06-11T09:50:05Z</time>
      </trkpt>
      <trkpt lat="46.64049" lon="5.93391">
        <ele>753.33</ele>
        <time>2016-06-11T09:50:18Z</time>
      </trkpt>
      <trkpt lat="46.64041" lon="5.93403">
        <ele>753.33</ele>
        <time>2016-06-11T09:50:31Z</time>
      </trkpt>
      <trkpt lat="46.64032" lon="5.93419">
        <ele>750.93</ele>
        <time>2016-06-11T09:50:44Z</time>
      </trkpt>
      <trkpt lat="46.64017" lon="5.93442">
        <ele>749</ele>
        <time>2016-06-11T09:50:58Z</time>
      </trkpt>
      <trkpt lat="46.64015" lon="5.93456">
        <ele>751.89</ele>
        <time>2016-06-11T09:51:16Z</time>
      </trkpt>
      <trkpt lat="46.64017" lon="5.93453">
        <ele>749.49</ele>
        <time>2016-06-11T09:51:27Z</time>
      </trkpt>
      <trkpt lat="46.64024" lon="5.9345">
        <ele>746.6</ele>
        <time>2016-06-11T09:51:35Z</time>
      </trkpt>
      <trkpt lat="46.64031" lon="5.93439">
        <ele>747.08</ele>
        <time>2016-06-11T09:51:47Z</time>
      </trkpt>
      <trkpt lat="46.64033" lon="5.93432">
        <ele>743.72</ele>
        <time>2016-06-11T09:52:00Z</time>
      </trkpt>
      <trkpt lat="46.64041" lon="5.9342">
        <ele>744.2</ele>
        <time>2016-06-11T09:52:07Z</time>
      </trkpt>
      <trkpt lat="46.64057" lon="5.934">
        <ele>745.16</ele>
        <time>2016-06-11T09:52:23Z</time>
      </trkpt>
      <trkpt lat="46.64064" lon="5.93391">
        <ele>741.79</ele>
        <time>2016-06-11T09:52:36Z</time>
      </trkpt>
      <trkpt lat="46.64072" lon="5.93381">
        <ele>739.87</ele>
        <time>2016-06-11T09:52:49Z</time>
      </trkpt>
      <trkpt lat="46.64082" lon="5.93368">
        <ele>738.91</ele>
        <time>2016-06-11T09:53:01Z</time>
      </trkpt>
      <trkpt lat="46.6409" lon="5.93361">
        <ele>741.79</ele>
        <time>2016-06-11T09:53:11Z</time>
      </trkpt>
      <trkpt lat="46.64094" lon="5.93363">
        <ele>743.72</ele>
        <time>2016-06-11T09:53:17Z</time>
      </trkpt>
      <trkpt lat="46.641" lon="5.9337">
        <ele>743.24</ele>
        <time>2016-06-11T09:53:29Z</time>
      </trkpt>
      <trkpt lat="46.64101" lon="5.93372">
        <ele>743.24</ele>
        <time>2016-06-11T09:53:32Z</time>
      </trkpt>
      <trkpt lat="46.64116" lon="5.93375">
        <ele>742.28</ele>
        <time>2016-06-11T09:53:44Z</time>
      </trkpt>
      <trkpt lat="46.64131" lon="5.93381">
        <ele>741.79</ele>
        <time>2016-06-11T09:53:54Z</time>
      </trkpt>
      <trkpt lat="46.64146" lon="5.93389">
        <ele>740.83</ele>
        <time>2016-06-11T09:54:09Z</time>
      </trkpt>
      <trkpt lat="46.64166" lon="5.93398">
        <ele>740.35</ele>
        <time>2016-06-11T09:54:21Z</time>
      </trkpt>
      <trkpt lat="46.64184" lon="5.93414">
        <ele>746.6</ele>
        <time>2016-06-11T09:54:34Z</time>
      </trkpt>
      <trkpt lat="46.64187" lon="5.93419">
        <ele>748.52</ele>
        <time>2016-06-11T09:54:38Z</time>
      </trkpt>
      <trkpt lat="46.64192" lon="5.93428">
        <ele>751.41</ele>
        <time>2016-06-11T09:54:44Z</time>
      </trkpt>
      <trkpt lat="46.64204" lon="5.93449">
        <ele>752.37</ele>
        <time>2016-06-11T09:54:57Z</time>
      </trkpt>
      <trkpt lat="46.64208" lon="5.93461">
        <ele>750.45</ele>
        <time>2016-06-11T09:55:09Z</time>
      </trkpt>
      <trkpt lat="46.64218" lon="5.9347">
        <ele>748.04</ele>
        <time>2016-06-11T09:55:22Z</time>
      </trkpt>
      <trkpt lat="46.64227" lon="5.93481">
        <ele>747.08</ele>
        <time>2016-06-11T09:55:36Z</time>
      </trkpt>
      <trkpt lat="46.64242" lon="5.93493">
        <ele>744.68</ele>
        <time>2016-06-11T09:55:51Z</time>
      </trkpt>
      <trkpt lat="46.64254" lon="5.93495">
        <ele>743.72</ele>
        <time>2016-06-11T09:56:08Z</time>
      </trkpt>
      <trkpt lat="46.64271" lon="5.93498">
        <ele>743.24</ele>
        <time>2016-06-11T09:56:17Z</time>
      </trkpt>
      <trkpt lat="46.64295" lon="5.9349">
        <ele>743.24</ele>
        <time>2016-06-11T09:56:34Z</time>
      </trkpt>
      <trkpt lat="46.643" lon="5.93479">
        <ele>743.24</ele>
        <time>2016-06-11T09:56:42Z</time>
      </trkpt>
      <trkpt lat="46.64315" lon="5.93459">
        <ele>747.56</ele>
        <time>2016-06-11T09:56:56Z</time>
      </trkpt>
      <trkpt lat="46.64319" lon="5.93452">
        <ele>747.56</ele>
        <time>2016-06-11T09:57:00Z</time>
      </trkpt>
      <trkpt lat="46.64331" lon="5.93431">
        <ele>747.56</ele>
        <time>2016-06-11T09:57:13Z</time>
      </trkpt>
      <trkpt lat="46.64345" lon="5.9343">
        <ele>746.6</ele>
        <time>2016-06-11T09:57:28Z</time>
      </trkpt>
      <trkpt lat="46.64346" lon="5.93431">
        <ele>747.08</ele>
        <time>2016-06-11T09:57:29Z</time>
      </trkpt>
      <trkpt lat="46.64357" lon="5.93431">
        <ele>744.2</ele>
        <time>2016-06-11T09:57:37Z</time>
      </trkpt>
      <trkpt lat="46.64375" lon="5.9343">
        <ele>744.2</ele>
        <time>2016-06-11T09:57:51Z</time>
      </trkpt>
      <trkpt lat="46.64392" lon="5.9343">
        <ele>742.28</ele>
        <time>2016-06-11T09:58:04Z</time>
      </trkpt>
      <trkpt lat="46.64405" lon="5.93434">
        <ele>741.31</ele>
        <time>2016-06-11T09:58:15Z</time>
      </trkpt>
      <trkpt lat="46.64418" lon="5.93434">
        <ele>739.87</ele>
        <time>2016-06-11T09:58:27Z</time>
      </trkpt>
      <trkpt lat="46.6443" lon="5.93441">
        <ele>736.03</ele>
        <time>2016-06-11T09:58:39Z</time>
      </trkpt>
      <trkpt lat="46.64443" lon="5.93448">
        <ele>732.18</ele>
        <time>2016-06-11T09:58:51Z</time>
      </trkpt>
      <trkpt lat="46.64457" lon="5.9345">
        <ele>728.34</ele>
        <time>2016-06-11T09:59:04Z</time>
      </trkpt>
      <trkpt lat="46.64458" lon="5.9345">
        <ele>728.34</ele>
        <time>2016-06-11T09:59:05Z</time>
      </trkpt>
      <trkpt lat="46.64461" lon="5.93448">
        <ele>727.37</ele>
        <time>2016-06-11T09:59:08Z</time>
      </trkpt>
      <trkpt lat="46.64464" lon="5.93448">
        <ele>727.37</ele>
        <time>2016-06-11T09:59:11Z</time>
      </trkpt>
      <trkpt lat="46.6447" lon="5.93447">
        <ele>726.89</ele>
        <time>2016-06-11T09:59:17Z</time>
      </trkpt>
      <trkpt lat="46.64476" lon="5.93446">
        <ele>726.89</ele>
        <time>2016-06-11T09:59:21Z</time>
      </trkpt>
      <trkpt lat="46.6449" lon="5.93446">
        <ele>726.41</ele>
        <time>2016-06-11T09:59:34Z</time>
      </trkpt>
      <trkpt lat="46.64499" lon="5.9344">
        <ele>723.53</ele>
        <time>2016-06-11T09:59:43Z</time>
      </trkpt>
      <trkpt lat="46.64509" lon="5.9344">
        <ele>719.68</ele>
        <time>2016-06-11T09:59:53Z</time>
      </trkpt>
      <trkpt lat="46.64521" lon="5.93436">
        <ele>720.16</ele>
        <time>2016-06-11T10:00:02Z</time>
      </trkpt>
      <trkpt lat="46.64525" lon="5.93436">
        <ele>720.16</ele>
        <time>2016-06-11T10:00:06Z</time>
      </trkpt>
      <trkpt lat="46.64543" lon="5.9344">
        <ele>719.68</ele>
        <time>2016-06-11T10:00:19Z</time>
      </trkpt>
      <trkpt lat="46.64549" lon="5.93441">
        <ele>719.2</ele>
        <time>2016-06-11T10:00:24Z</time>
      </trkpt>
      <trkpt lat="46.64558" lon="5.93444">
        <ele>718.24</ele>
        <time>2016-06-11T10:00:31Z</time>
      </trkpt>
      <trkpt lat="46.64562" lon="5.93446">
        <ele>718.24</ele>
        <time>2016-06-11T10:00:34Z</time>
      </trkpt>
      <trkpt lat="46.64573" lon="5.93443">
        <ele>717.76</ele>
        <time>2016-06-11T10:00:44Z</time>
      </trkpt>
      <trkpt lat="46.64575" lon="5.93441">
        <ele>717.76</ele>
        <time>2016-06-11T10:00:46Z</time>
      </trkpt>
      <trkpt lat="46.64577" lon="5.93438">
        <ele>717.76</ele>
        <time>2016-06-11T10:00:48Z</time>
      </trkpt>
      <trkpt lat="46.64583" lon="5.93438">
        <ele>716.8</ele>
        <time>2016-06-11T10:00:54Z</time>
      </trkpt>
      <trkpt lat="46.6459" lon="5.93437">
        <ele>716.8</ele>
        <time>2016-06-11T10:01:00Z</time>
      </trkpt>
      <trkpt lat="46.64601" lon="5.93442">
        <ele>716.8</ele>
        <time>2016-06-11T10:01:09Z</time>
      </trkpt>
      <trkpt lat="46.64616" lon="5.93451">
        <ele>716.32</ele>
        <time>2016-06-11T10:01:22Z</time>
      </trkpt>
      <trkpt lat="46.6463" lon="5.93469">
        <ele>714.88</ele>
        <time>2016-06-11T10:01:37Z</time>
      </trkpt>
      <trkpt lat="46.64636" lon="5.93478">
        <ele>714.88</ele>
        <time>2016-06-11T10:01:43Z</time>
      </trkpt>
      <trkpt lat="46.64641" lon="5.93481">
        <ele>714.88</ele>
        <time>2016-06-11T10:01:48Z</time>
      </trkpt>
      <trkpt lat="46.64654" lon="5.93489">
        <ele>713.44</ele>
        <time>2016-06-11T10:02:01Z</time>
      </trkpt>
      <trkpt lat="46.64664" lon="5.93491">
        <ele>711.51</ele>
        <time>2016-06-11T10:02:11Z</time>
      </trkpt>
      <trkpt lat="46.64667" lon="5.93492">
        <ele>711.03</ele>
        <time>2016-06-11T10:02:13Z</time>
      </trkpt>
      <trkpt lat="46.6468" lon="5.93494">
        <ele>711.03</ele>
        <time>2016-06-11T10:02:23Z</time>
      </trkpt>
      <trkpt lat="46.64684" lon="5.93497">
        <ele>710.55</ele>
        <time>2016-06-11T10:02:26Z</time>
      </trkpt>
      <trkpt lat="46.64698" lon="5.935">
        <ele>710.55</ele>
        <time>2016-06-11T10:02:38Z</time>
      </trkpt>
      <trkpt lat="46.64707" lon="5.93503">
        <ele>710.55</ele>
        <time>2016-06-11T10:02:46Z</time>
      </trkpt>
      <trkpt lat="46.64712" lon="5.93502">
        <ele>710.07</ele>
        <time>2016-06-11T10:02:50Z</time>
      </trkpt>
      <trkpt lat="46.64715" lon="5.93502">
        <ele>710.07</ele>
        <time>2016-06-11T10:02:52Z</time>
      </trkpt>
      <trkpt lat="46.64732" lon="5.93509">
        <ele>710.07</ele>
        <time>2016-06-11T10:03:05Z</time>
      </trkpt>
      <trkpt lat="46.64738" lon="5.93514">
        <ele>709.11</ele>
        <time>2016-06-11T10:03:11Z</time>
      </trkpt>
      <trkpt lat="46.64749" lon="5.93515">
        <ele>709.11</ele>
        <time>2016-06-11T10:03:23Z</time>
      </trkpt>
      <trkpt lat="46.64769" lon="5.93528">
        <ele>709.59</ele>
        <time>2016-06-11T10:03:34Z</time>
      </trkpt>
      <trkpt lat="46.64779" lon="5.93532">
        <ele>710.07</ele>
        <time>2016-06-11T10:03:44Z</time>
      </trkpt>
      <trkpt lat="46.64783" lon="5.93535">
        <ele>709.11</ele>
        <time>2016-06-11T10:03:48Z</time>
      </trkpt>
      <trkpt lat="46.64797" lon="5.93545">
        <ele>703.82</ele>
        <time>2016-06-11T10:04:02Z</time>
      </trkpt>
      <trkpt lat="46.64813" lon="5.93555">
        <ele>704.3</ele>
        <time>2016-06-11T10:04:14Z</time>
      </trkpt>
      <trkpt lat="46.64827" lon="5.93566">
        <ele>705.26</ele>
        <time>2016-06-11T10:04:26Z</time>
      </trkpt>
      <trkpt lat="46.64828" lon="5.93568">
        <ele>705.26</ele>
        <time>2016-06-11T10:04:27Z</time>
      </trkpt>
      <trkpt lat="46.64833" lon="5.93573">
        <ele>704.3</ele>
        <time>2016-06-11T10:04:31Z</time>
      </trkpt>
      <trkpt lat="46.64837" lon="5.93579">
        <ele>704.3</ele>
        <time>2016-06-11T10:04:34Z</time>
      </trkpt>
      <trkpt lat="46.64841" lon="5.93582">
        <ele>703.82</ele>
        <time>2016-06-11T10:04:37Z</time>
      </trkpt>
      <trkpt lat="46.64845" lon="5.93589">
        <ele>702.86</ele>
        <time>2016-06-11T10:04:43Z</time>
      </trkpt>
      <trkpt lat="46.64851" lon="5.93596">
        <ele>703.34</ele>
        <time>2016-06-11T10:04:49Z</time>
      </trkpt>
      <trkpt lat="46.64864" lon="5.93611">
        <ele>704.3</ele>
        <time>2016-06-11T10:05:04Z</time>
      </trkpt>
      <trkpt lat="46.64873" lon="5.93624">
        <ele>704.78</ele>
        <time>2016-06-11T10:05:14Z</time>
      </trkpt>
      <trkpt lat="46.64889" lon="5.93634">
        <ele>706.23</ele>
        <time>2016-06-11T10:05:28Z</time>
      </trkpt>
      <trkpt lat="46.64895" lon="5.93634">
        <ele>706.23</ele>
        <time>2016-06-11T10:05:33Z</time>
      </trkpt>
      <trkpt lat="46.649" lon="5.93634">
        <ele>707.67</ele>
        <time>2016-06-11T10:05:36Z</time>
      </trkpt>
      <trkpt lat="46.64902" lon="5.93633">
        <ele>708.15</ele>
        <time>2016-06-11T10:05:38Z</time>
      </trkpt>
      <trkpt lat="46.64913" lon="5.93634">
        <ele>709.11</ele>
        <time>2016-06-11T10:05:49Z</time>
      </trkpt>
      <trkpt lat="46.64915" lon="5.93634">
        <ele>709.11</ele>
        <time>2016-06-11T10:05:51Z</time>
      </trkpt>
      <trkpt lat="46.64926" lon="5.93636">
        <ele>709.59</ele>
        <time>2016-06-11T10:06:03Z</time>
      </trkpt>
      <trkpt lat="46.64926" lon="5.93636">
        <ele>709.11</ele>
        <time>2016-06-11T10:06:08Z</time>
      </trkpt>
      <trkpt lat="46.64937" lon="5.93636">
        <ele>707.67</ele>
        <time>2016-06-11T10:06:19Z</time>
      </trkpt>
      <trkpt lat="46.64945" lon="5.93635">
        <ele>705.26</ele>
        <time>2016-06-11T10:06:26Z</time>
      </trkpt>
      <trkpt lat="46.64948" lon="5.93636">
        <ele>704.78</ele>
        <time>2016-06-11T10:06:30Z</time>
      </trkpt>
      <trkpt lat="46.64956" lon="5.93633">
        <ele>702.86</ele>
        <time>2016-06-11T10:06:37Z</time>
      </trkpt>
      <trkpt lat="46.64963" lon="5.93634">
        <ele>700.94</ele>
        <time>2016-06-11T10:06:43Z</time>
      </trkpt>
      <trkpt lat="46.64975" lon="5.93633">
        <ele>699.5</ele>
        <time>2016-06-11T10:06:52Z</time>
      </trkpt>
      <trkpt lat="46.64981" lon="5.93634">
        <ele>699.5</ele>
        <time>2016-06-11T10:06:56Z</time>
      </trkpt>
      <trkpt lat="46.64999" lon="5.9363">
        <ele>701.9</ele>
        <time>2016-06-11T10:07:09Z</time>
      </trkpt>
      <trkpt lat="46.65005" lon="5.9363">
        <ele>702.86</ele>
        <time>2016-06-11T10:07:14Z</time>
      </trkpt>
      <trkpt lat="46.65022" lon="5.9364">
        <ele>705.26</ele>
        <time>2016-06-11T10:07:28Z</time>
      </trkpt>
      <trkpt lat="46.65023" lon="5.93642">
        <ele>704.78</ele>
        <time>2016-06-11T10:07:30Z</time>
      </trkpt>
      <trkpt lat="46.65028" lon="5.93647">
        <ele>706.23</ele>
        <time>2016-06-11T10:07:33Z</time>
      </trkpt>
      <trkpt lat="46.65033" lon="5.93649">
        <ele>706.71</ele>
        <time>2016-06-11T10:07:36Z</time>
      </trkpt>
      <trkpt lat="46.65037" lon="5.93653">
        <ele>707.19</ele>
        <time>2016-06-11T10:07:40Z</time>
      </trkpt>
      <trkpt lat="46.65046" lon="5.93655">
        <ele>706.71</ele>
        <time>2016-06-11T10:07:47Z</time>
      </trkpt>
      <trkpt lat="46.65059" lon="5.93652">
        <ele>706.23</ele>
        <time>2016-06-11T10:07:59Z</time>
      </trkpt>
      <trkpt lat="46.65064" lon="5.93649">
        <ele>705.75</ele>
        <time>2016-06-11T10:08:03Z</time>
      </trkpt>
      <trkpt lat="46.6508" lon="5.93641">
        <ele>704.78</ele>
        <time>2016-06-11T10:08:16Z</time>
      </trkpt>
      <trkpt lat="46.6509" lon="5.93643">
        <ele>703.82</ele>
        <time>2016-06-11T10:08:24Z</time>
      </trkpt>
      <trkpt lat="46.65098" lon="5.93656">
        <ele>701.9</ele>
        <time>2016-06-11T10:08:33Z</time>
      </trkpt>
      <trkpt lat="46.65101" lon="5.93661">
        <ele>701.42</ele>
        <time>2016-06-11T10:08:36Z</time>
      </trkpt>
      <trkpt lat="46.65104" lon="5.93668">
        <ele>700.94</ele>
        <time>2016-06-11T10:08:40Z</time>
      </trkpt>
      <trkpt lat="46.65106" lon="5.93671">
        <ele>700.46</ele>
        <time>2016-06-11T10:08:43Z</time>
      </trkpt>
      <trkpt lat="46.65113" lon="5.93689">
        <ele>699.02</ele>
        <time>2016-06-11T10:08:56Z</time>
      </trkpt>
      <trkpt lat="46.65117" lon="5.93697">
        <ele>699.02</ele>
        <time>2016-06-11T10:09:01Z</time>
      </trkpt>
      <trkpt lat="46.65125" lon="5.93707">
        <ele>699.02</ele>
        <time>2016-06-11T10:09:08Z</time>
      </trkpt>
      <trkpt lat="46.65131" lon="5.93719">
        <ele>700.94</ele>
        <time>2016-06-11T10:09:15Z</time>
      </trkpt>
      <trkpt lat="46.65137" lon="5.9373">
        <ele>702.86</ele>
        <time>2016-06-11T10:09:22Z</time>
      </trkpt>
      <trkpt lat="46.65145" lon="5.9375">
        <ele>702.86</ele>
        <time>2016-06-11T10:09:35Z</time>
      </trkpt>
      <trkpt lat="46.6515" lon="5.93763">
        <ele>697.57</ele>
        <time>2016-06-11T10:09:47Z</time>
      </trkpt>
      <trkpt lat="46.65155" lon="5.93771">
        <ele>694.69</ele>
        <time>2016-06-11T10:09:54Z</time>
      </trkpt>
      <trkpt lat="46.65157" lon="5.93773">
        <ele>694.21</ele>
        <time>2016-06-11T10:09:56Z</time>
      </trkpt>
      <trkpt lat="46.65164" lon="5.93781">
        <ele>694.69</ele>
        <time>2016-06-11T10:10:04Z</time>
      </trkpt>
      <trkpt lat="46.65172" lon="5.93786">
        <ele>696.13</ele>
        <time>2016-06-11T10:10:11Z</time>
      </trkpt>
      <trkpt lat="46.65177" lon="5.93789">
        <ele>698.05</ele>
        <time>2016-06-11T10:10:16Z</time>
      </trkpt>
      <trkpt lat="46.65181" lon="5.93795">
        <ele>699.5</ele>
        <time>2016-06-11T10:10:20Z</time>
      </trkpt>
      <trkpt lat="46.65183" lon="5.93799">
        <ele>699.5</ele>
        <time>2016-06-11T10:10:23Z</time>
      </trkpt>
      <trkpt lat="46.65195" lon="5.93806">
        <ele>699.5</ele>
        <time>2016-06-11T10:10:38Z</time>
      </trkpt>
      <trkpt lat="46.65198" lon="5.93809">
        <ele>698.05</ele>
        <time>2016-06-11T10:10:46Z</time>
      </trkpt>
      <trkpt lat="46.652" lon="5.93811">
        <ele>696.61</ele>
        <time>2016-06-11T10:10:50Z</time>
      </trkpt>
      <trkpt lat="46.65211" lon="5.93829">
        <ele>692.29</ele>
        <time>2016-06-11T10:11:01Z</time>
      </trkpt>
      <trkpt lat="46.65214" lon="5.9383">
        <ele>692.77</ele>
        <time>2016-06-11T10:11:03Z</time>
      </trkpt>
      <trkpt lat="46.65228" lon="5.9384">
        <ele>695.65</ele>
        <time>2016-06-11T10:11:10Z</time>
      </trkpt>
      <trkpt lat="46.6523" lon="5.93844">
        <ele>695.65</ele>
        <time>2016-06-11T10:11:13Z</time>
      </trkpt>
      <trkpt lat="46.65244" lon="5.93856">
        <ele>697.09</ele>
        <time>2016-06-11T10:11:22Z</time>
      </trkpt>
      <trkpt lat="46.65264" lon="5.93868">
        <ele>699.5</ele>
        <time>2016-06-11T10:11:37Z</time>
      </trkpt>
      <trkpt lat="46.65266" lon="5.93868">
        <ele>699.5</ele>
        <time>2016-06-11T10:11:38Z</time>
      </trkpt>
      <trkpt lat="46.65272" lon="5.93872">
        <ele>699.5</ele>
        <time>2016-06-11T10:11:43Z</time>
      </trkpt>
      <trkpt lat="46.6528" lon="5.9389">
        <ele>695.17</ele>
        <time>2016-06-11T10:11:58Z</time>
      </trkpt>
      <trkpt lat="46.6528" lon="5.93891">
        <ele>694.69</ele>
        <time>2016-06-11T10:11:59Z</time>
      </trkpt>
      <trkpt lat="46.65296" lon="5.93902">
        <ele>699.5</ele>
        <time>2016-06-11T10:12:11Z</time>
      </trkpt>
      <trkpt lat="46.65297" lon="5.93902">
        <ele>699.98</ele>
        <time>2016-06-11T10:12:12Z</time>
      </trkpt>
      <trkpt lat="46.65303" lon="5.93904">
        <ele>700.94</ele>
        <time>2016-06-11T10:12:18Z</time>
      </trkpt>
      <trkpt lat="46.6531" lon="5.93911">
        <ele>703.34</ele>
        <time>2016-06-11T10:12:26Z</time>
      </trkpt>
      <trkpt lat="46.65315" lon="5.93915">
        <ele>703.82</ele>
        <time>2016-06-11T10:12:30Z</time>
      </trkpt>
      <trkpt lat="46.65336" lon="5.93931">
        <ele>706.23</ele>
        <time>2016-06-11T10:12:46Z</time>
      </trkpt>
      <trkpt lat="46.65352" lon="5.93946">
        <ele>707.19</ele>
        <time>2016-06-11T10:12:59Z</time>
      </trkpt>
      <trkpt lat="46.65368" lon="5.9396">
        <ele>709.11</ele>
        <time>2016-06-11T10:13:13Z</time>
      </trkpt>
      <trkpt lat="46.65375" lon="5.93969">
        <ele>711.03</ele>
        <time>2016-06-11T10:13:18Z</time>
      </trkpt>
      <trkpt lat="46.65378" lon="5.93972">
        <ele>711.51</ele>
        <time>2016-06-11T10:13:20Z</time>
      </trkpt>
      <trkpt lat="46.6538" lon="5.93974">
        <ele>711.03</ele>
        <time>2016-06-11T10:13:22Z</time>
      </trkpt>
      <trkpt lat="46.65388" lon="5.93986">
        <ele>711.51</ele>
        <time>2016-06-11T10:13:30Z</time>
      </trkpt>
      <trkpt lat="46.654" lon="5.94003">
        <ele>712.95</ele>
        <time>2016-06-11T10:13:43Z</time>
      </trkpt>
      <trkpt lat="46.65411" lon="5.94016">
        <ele>716.32</ele>
        <time>2016-06-11T10:13:55Z</time>
      </trkpt>
      <trkpt lat="46.65423" lon="5.94029">
        <ele>719.2</ele>
        <time>2016-06-11T10:14:06Z</time>
      </trkpt>
      <trkpt lat="46.6543" lon="5.94042">
        <ele>718.24</ele>
        <time>2016-06-11T10:14:16Z</time>
      </trkpt>
      <trkpt lat="46.6544" lon="5.94064">
        <ele>719.2</ele>
        <time>2016-06-11T10:14:31Z</time>
      </trkpt>
      <trkpt lat="46.65441" lon="5.94068">
        <ele>719.2</ele>
        <time>2016-06-11T10:14:33Z</time>
      </trkpt>
      <trkpt lat="46.65445" lon="5.94078">
        <ele>721.13</ele>
        <time>2016-06-11T10:14:44Z</time>
      </trkpt>
      <trkpt lat="46.65442" lon="5.94089">
        <ele>720.16</ele>
        <time>2016-06-11T10:14:52Z</time>
      </trkpt>
      <trkpt lat="46.65443" lon="5.94096">
        <ele>719.2</ele>
        <time>2016-06-11T10:14:57Z</time>
      </trkpt>
      <trkpt lat="46.65455" lon="5.94097">
        <ele>718.72</ele>
        <time>2016-06-11T10:15:09Z</time>
      </trkpt>
      <trkpt lat="46.65457" lon="5.94097">
        <ele>719.2</ele>
        <time>2016-06-11T10:15:11Z</time>
      </trkpt>
      <trkpt lat="46.65459" lon="5.941">
        <ele>719.2</ele>
        <time>2016-06-11T10:15:14Z</time>
      </trkpt>
      <trkpt lat="46.65465" lon="5.94097">
        <ele>719.2</ele>
        <time>2016-06-11T10:15:20Z</time>
      </trkpt>
      <trkpt lat="46.6548" lon="5.941">
        <ele>715.84</ele>
        <time>2016-06-11T10:15:33Z</time>
      </trkpt>
      <trkpt lat="46.65489" lon="5.94104">
        <ele>714.4</ele>
        <time>2016-06-11T10:15:40Z</time>
      </trkpt>
      <trkpt lat="46.65498" lon="5.94113">
        <ele>713.92</ele>
        <time>2016-06-11T10:15:49Z</time>
      </trkpt>
      <trkpt lat="46.65501" lon="5.94114">
        <ele>712.95</ele>
        <time>2016-06-11T10:15:51Z</time>
      </trkpt>
      <trkpt lat="46.65506" lon="5.94118">
        <ele>714.4</ele>
        <time>2016-06-11T10:15:56Z</time>
      </trkpt>
      <trkpt lat="46.65519" lon="5.94127">
        <ele>718.24</ele>
        <time>2016-06-11T10:16:04Z</time>
      </trkpt>
      <trkpt lat="46.65522" lon="5.94138">
        <ele>716.32</ele>
        <time>2016-06-11T10:16:11Z</time>
      </trkpt>
      <trkpt lat="46.65525" lon="5.94143">
        <ele>716.32</ele>
        <time>2016-06-11T10:16:15Z</time>
      </trkpt>
      <trkpt lat="46.6553" lon="5.94156">
        <ele>715.36</ele>
        <time>2016-06-11T10:16:23Z</time>
      </trkpt>
      <trkpt lat="46.65536" lon="5.94179">
        <ele>713.44</ele>
        <time>2016-06-11T10:16:36Z</time>
      </trkpt>
      <trkpt lat="46.65543" lon="5.94194">
        <ele>715.84</ele>
        <time>2016-06-11T10:16:44Z</time>
      </trkpt>
      <trkpt lat="46.65547" lon="5.94205">
        <ele>715.36</ele>
        <time>2016-06-11T10:16:51Z</time>
      </trkpt>
      <trkpt lat="46.6555" lon="5.94212">
        <ele>714.4</ele>
        <time>2016-06-11T10:16:56Z</time>
      </trkpt>
      <trkpt lat="46.65554" lon="5.94227">
        <ele>713.44</ele>
        <time>2016-06-11T10:17:05Z</time>
      </trkpt>
      <trkpt lat="46.65555" lon="5.94234">
        <ele>712.95</ele>
        <time>2016-06-11T10:17:09Z</time>
      </trkpt>
      <trkpt lat="46.65569" lon="5.94258">
        <ele>716.8</ele>
        <time>2016-06-11T10:17:25Z</time>
      </trkpt>
      <trkpt lat="46.65581" lon="5.94279">
        <ele>716.8</ele>
        <time>2016-06-11T10:17:39Z</time>
      </trkpt>
      <trkpt lat="46.65591" lon="5.94297">
        <ele>717.76</ele>
        <time>2016-06-11T10:17:51Z</time>
      </trkpt>
      <trkpt lat="46.65594" lon="5.94308">
        <ele>716.8</ele>
        <time>2016-06-11T10:17:58Z</time>
      </trkpt>
      <trkpt lat="46.65595" lon="5.94322">
        <ele>713.92</ele>
        <time>2016-06-11T10:18:08Z</time>
      </trkpt>
      <trkpt lat="46.65592" lon="5.94345">
        <ele>712.95</ele>
        <time>2016-06-11T10:18:21Z</time>
      </trkpt>
      <trkpt lat="46.65594" lon="5.94351">
        <ele>713.44</ele>
        <time>2016-06-11T10:18:24Z</time>
      </trkpt>
      <trkpt lat="46.65594" lon="5.94356">
        <ele>712.95</ele>
        <time>2016-06-11T10:18:27Z</time>
      </trkpt>
      <trkpt lat="46.65593" lon="5.94364">
        <ele>713.44</ele>
        <time>2016-06-11T10:18:32Z</time>
      </trkpt>
      <trkpt lat="46.65591" lon="5.9437">
        <ele>714.4</ele>
        <time>2016-06-11T10:18:36Z</time>
      </trkpt>
      <trkpt lat="46.65587" lon="5.94388">
        <ele>714.4</ele>
        <time>2016-06-11T10:18:49Z</time>
      </trkpt>
      <trkpt lat="46.65587" lon="5.94388">
        <ele>714.4</ele>
        <time>2016-06-11T10:18:50Z</time>
      </trkpt>
      <trkpt lat="46.65575" lon="5.94407">
        <ele>716.32</ele>
        <time>2016-06-11T10:19:02Z</time>
      </trkpt>
      <trkpt lat="46.6557" lon="5.94422">
        <ele>716.32</ele>
        <time>2016-06-11T10:19:10Z</time>
      </trkpt>
      <trkpt lat="46.65567" lon="5.94445">
        <ele>716.32</ele>
        <time>2016-06-11T10:19:24Z</time>
      </trkpt>
      <trkpt lat="46.65565" lon="5.94462">
        <ele>715.84</ele>
        <time>2016-06-11T10:19:35Z</time>
      </trkpt>
      <trkpt lat="46.65565" lon="5.94466">
        <ele>715.84</ele>
        <time>2016-06-11T10:19:38Z</time>
      </trkpt>
      <trkpt lat="46.65565" lon="5.94469">
        <ele>716.32</ele>
        <time>2016-06-11T10:19:40Z</time>
      </trkpt>
      <trkpt lat="46.65564" lon="5.94478">
        <ele>716.32</ele>
        <time>2016-06-11T10:19:46Z</time>
      </trkpt>
      <trkpt lat="46.65554" lon="5.94494">
        <ele>717.76</ele>
        <time>2016-06-11T10:19:59Z</time>
      </trkpt>
      <trkpt lat="46.65542" lon="5.94492">
        <ele>716.8</ele>
        <time>2016-06-11T10:20:09Z</time>
      </trkpt>
      <trkpt lat="46.65526" lon="5.94478">
        <ele>715.36</ele>
        <time>2016-06-11T10:20:24Z</time>
      </trkpt>
      <trkpt lat="46.65511" lon="5.9447">
        <ele>713.92</ele>
        <time>2016-06-11T10:20:37Z</time>
      </trkpt>
      <trkpt lat="46.65503" lon="5.94465">
        <ele>713.44</ele>
        <time>2016-06-11T10:20:45Z</time>
      </trkpt>
      <trkpt lat="46.65492" lon="5.9446">
        <ele>712.95</ele>
        <time>2016-06-11T10:20:55Z</time>
      </trkpt>
      <trkpt lat="46.65489" lon="5.94457">
        <ele>712.95</ele>
        <time>2016-06-11T10:20:58Z</time>
      </trkpt>
      <trkpt lat="46.65487" lon="5.94456">
        <ele>712.95</ele>
        <time>2016-06-11T10:21:00Z</time>
      </trkpt>
      <trkpt lat="46.65483" lon="5.94452">
        <ele>713.44</ele>
        <time>2016-06-11T10:21:04Z</time>
      </trkpt>
      <trkpt lat="46.65467" lon="5.94441">
        <ele>715.36</ele>
        <time>2016-06-11T10:21:19Z</time>
      </trkpt>
      <trkpt lat="46.65457" lon="5.94435">
        <ele>716.8</ele>
        <time>2016-06-11T10:21:29Z</time>
      </trkpt>
      <trkpt lat="46.65452" lon="5.94432">
        <ele>716.8</ele>
        <time>2016-06-11T10:21:33Z</time>
      </trkpt>
      <trkpt lat="46.65438" lon="5.94424">
        <ele>716.8</ele>
        <time>2016-06-11T10:21:46Z</time>
      </trkpt>
      <trkpt lat="46.65432" lon="5.94418">
        <ele>717.28</ele>
        <time>2016-06-11T10:21:51Z</time>
      </trkpt>
      <trkpt lat="46.65423" lon="5.94415">
        <ele>717.76</ele>
        <time>2016-06-11T10:21:58Z</time>
      </trkpt>
      <trkpt lat="46.6542" lon="5.94409">
        <ele>718.24</ele>
        <time>2016-06-11T10:22:03Z</time>
      </trkpt>
      <trkpt lat="46.65412" lon="5.94395">
        <ele>719.68</ele>
        <time>2016-06-11T10:22:16Z</time>
      </trkpt>
      <trkpt lat="46.6541" lon="5.94389">
        <ele>720.65</ele>
        <time>2016-06-11T10:22:31Z</time>
      </trkpt>
      <trkpt lat="46.6541" lon="5.9439">
        <ele>721.13</ele>
        <time>2016-06-11T10:22:50Z</time>
      </trkpt>
      <trkpt lat="46.6541" lon="5.9439">
        <ele>721.13</ele>
        <time>2016-06-11T10:23:14Z</time>
      </trkpt>
      <trkpt lat="46.65411" lon="5.94389">
        <ele>721.13</ele>
        <time>2016-06-11T10:23:30Z</time>
      </trkpt>
      <trkpt lat="46.65412" lon="5.94388">
        <ele>721.61</ele>
        <time>2016-06-11T10:23:56Z</time>
      </trkpt>
      <trkpt lat="46.65412" lon="5.94389">
        <ele>721.61</ele>
        <time>2016-06-11T10:24:14Z</time>
      </trkpt>
      <trkpt lat="46.65412" lon="5.94389">
        <ele>721.61</ele>
        <time>2016-06-11T10:24:40Z</time>
      </trkpt>
      <trkpt lat="46.65412" lon="5.94389">
        <ele>721.61</ele>
        <time>2016-06-11T10:25:04Z</time>
      </trkpt>
      <trkpt lat="46.65412" lon="5.94391">
        <ele>721.61</ele>
        <time>2016-06-11T10:25:33Z</time>
      </trkpt>
      <trkpt lat="46.65411" lon="5.94391">
        <ele>721.61</ele>
        <time>2016-06-11T10:25:58Z</time>
      </trkpt>
      <trkpt lat="46.65411" lon="5.9439">
        <ele>721.61</ele>
        <time>2016-06-11T10:26:21Z</time>
      </trkpt>
      <trkpt lat="46.65411" lon="5.94392">
        <ele>721.61</ele>
        <time>2016-06-11T10:26:45Z</time>
      </trkpt>
      <trkpt lat="46.65412" lon="5.94393">
        <ele>722.09</ele>
        <time>2016-06-11T10:27:11Z</time>
      </trkpt>
      <trkpt lat="46.65411" lon="5.94393">
        <ele>721.61</ele>
        <time>2016-06-11T10:27:36Z</time>
      </trkpt>
      <trkpt lat="46.65411" lon="5.94393">
        <ele>721.61</ele>
        <time>2016-06-11T10:27:53Z</time>
      </trkpt>
      <trkpt lat="46.65413" lon="5.94389">
        <ele>720.65</ele>
        <time>2016-06-11T10:28:14Z</time>
      </trkpt>
      <trkpt lat="46.65412" lon="5.9439">
        <ele>720.65</ele>
        <time>2016-06-11T10:28:38Z</time>
      </trkpt>
      <trkpt lat="46.65411" lon="5.94392">
        <ele>720.65</ele>
        <time>2016-06-11T10:29:01Z</time>
      </trkpt>
      <trkpt lat="46.65409" lon="5.94394">
        <ele>721.61</ele>
        <time>2016-06-11T10:29:09Z</time>
      </trkpt>
      <trkpt lat="46.65404" lon="5.94394">
        <ele>722.57</ele>
        <time>2016-06-11T10:29:22Z</time>
      </trkpt>
      <trkpt lat="46.65404" lon="5.94393">
        <ele>722.57</ele>
        <time>2016-06-11T10:29:49Z</time>
      </trkpt>
      <trkpt lat="46.654" lon="5.94391">
        <ele>722.57</ele>
        <time>2016-06-11T10:29:55Z</time>
      </trkpt>
      <trkpt lat="46.65396" lon="5.94389">
        <ele>723.53</ele>
        <time>2016-06-11T10:29:59Z</time>
      </trkpt>
      <trkpt lat="46.65388" lon="5.94387">
        <ele>724.01</ele>
        <time>2016-06-11T10:30:06Z</time>
      </trkpt>
      <trkpt lat="46.65382" lon="5.94387">
        <ele>724.49</ele>
        <time>2016-06-11T10:30:11Z</time>
      </trkpt>
      <trkpt lat="46.6538" lon="5.94386">
        <ele>724.49</ele>
        <time>2016-06-11T10:30:13Z</time>
      </trkpt>
      <trkpt lat="46.65377" lon="5.94383">
        <ele>724.49</ele>
        <time>2016-06-11T10:30:26Z</time>
      </trkpt>
      <trkpt lat="46.65376" lon="5.94381">
        <ele>724.97</ele>
        <time>2016-06-11T10:30:41Z</time>
      </trkpt>
      <trkpt lat="46.65365" lon="5.94378">
        <ele>724.97</ele>
        <time>2016-06-11T10:30:53Z</time>
      </trkpt>
      <trkpt lat="46.65361" lon="5.94377">
        <ele>724.97</ele>
        <time>2016-06-11T10:30:58Z</time>
      </trkpt>
      <trkpt lat="46.6535" lon="5.94377">
        <ele>726.41</ele>
        <time>2016-06-11T10:31:08Z</time>
      </trkpt>
      <trkpt lat="46.65347" lon="5.94377">
        <ele>726.41</ele>
        <time>2016-06-11T10:31:11Z</time>
      </trkpt>
      <trkpt lat="46.6534" lon="5.94377">
        <ele>726.41</ele>
        <time>2016-06-11T10:31:18Z</time>
      </trkpt>
      <trkpt lat="46.65337" lon="5.94378">
        <ele>726.41</ele>
        <time>2016-06-11T10:31:22Z</time>
      </trkpt>
      <trkpt lat="46.65321" lon="5.94377">
        <ele>725.93</ele>
        <time>2016-06-11T10:31:37Z</time>
      </trkpt>
      <trkpt lat="46.65313" lon="5.94378">
        <ele>723.05</ele>
        <time>2016-06-11T10:31:46Z</time>
      </trkpt>
      <trkpt lat="46.65308" lon="5.94377">
        <ele>723.05</ele>
        <time>2016-06-11T10:31:49Z</time>
      </trkpt>
      <trkpt lat="46.65293" lon="5.94377">
        <ele>724.01</ele>
        <time>2016-06-11T10:32:01Z</time>
      </trkpt>
      <trkpt lat="46.65275" lon="5.94376">
        <ele>724.01</ele>
        <time>2016-06-11T10:32:17Z</time>
      </trkpt>
      <trkpt lat="46.65267" lon="5.94376">
        <ele>723.05</ele>
        <time>2016-06-11T10:32:24Z</time>
      </trkpt>
      <trkpt lat="46.65262" lon="5.94377">
        <ele>723.05</ele>
        <time>2016-06-11T10:32:28Z</time>
      </trkpt>
      <trkpt lat="46.65252" lon="5.94381">
        <ele>721.13</ele>
        <time>2016-06-11T10:32:42Z</time>
      </trkpt>
      <trkpt lat="46.65248" lon="5.94383">
        <ele>719.68</ele>
        <time>2016-06-11T10:32:48Z</time>
      </trkpt>
      <trkpt lat="46.65235" lon="5.94389">
        <ele>714.4</ele>
        <time>2016-06-11T10:33:00Z</time>
      </trkpt>
      <trkpt lat="46.65221" lon="5.944">
        <ele>706.23</ele>
        <time>2016-06-11T10:33:14Z</time>
      </trkpt>
      <trkpt lat="46.6521" lon="5.94407">
        <ele>702.86</ele>
        <time>2016-06-11T10:33:24Z</time>
      </trkpt>
      <trkpt lat="46.65205" lon="5.94411">
        <ele>700.94</ele>
        <time>2016-06-11T10:33:29Z</time>
      </trkpt>
      <trkpt lat="46.65192" lon="5.9442">
        <ele>693.73</ele>
        <time>2016-06-11T10:33:43Z</time>
      </trkpt>
      <trkpt lat="46.65184" lon="5.94433">
        <ele>684.6</ele>
        <time>2016-06-11T10:33:56Z</time>
      </trkpt>
      <trkpt lat="46.65175" lon="5.94443">
        <ele>675.46</ele>
        <time>2016-06-11T10:34:07Z</time>
      </trkpt>
      <trkpt lat="46.65165" lon="5.94458">
        <ele>668.25</ele>
        <time>2016-06-11T10:34:19Z</time>
      </trkpt>
      <trkpt lat="46.6516" lon="5.94459">
        <ele>669.7</ele>
        <time>2016-06-11T10:34:31Z</time>
      </trkpt>
      <trkpt lat="46.65156" lon="5.94455">
        <ele>672.58</ele>
        <time>2016-06-11T10:34:45Z</time>
      </trkpt>
      <trkpt lat="46.65153" lon="5.94461">
        <ele>673.06</ele>
        <time>2016-06-11T10:34:56Z</time>
      </trkpt>
      <trkpt lat="46.65147" lon="5.9447">
        <ele>676.42</ele>
        <time>2016-06-11T10:35:09Z</time>
      </trkpt>
      <trkpt lat="46.65141" lon="5.94475">
        <ele>675.94</ele>
        <time>2016-06-11T10:35:19Z</time>
      </trkpt>
      <trkpt lat="46.65136" lon="5.94476">
        <ele>672.58</ele>
        <time>2016-06-11T10:35:32Z</time>
      </trkpt>
      <trkpt lat="46.65127" lon="5.94478">
        <ele>671.14</ele>
        <time>2016-06-11T10:35:45Z</time>
      </trkpt>
      <trkpt lat="46.65119" lon="5.94482">
        <ele>670.18</ele>
        <time>2016-06-11T10:35:57Z</time>
      </trkpt>
      <trkpt lat="46.65112" lon="5.94483">
        <ele>671.62</ele>
        <time>2016-06-11T10:36:08Z</time>
      </trkpt>
      <trkpt lat="46.65099" lon="5.94482">
        <ele>681.71</ele>
        <time>2016-06-11T10:36:19Z</time>
      </trkpt>
      <trkpt lat="46.6509" lon="5.94483">
        <ele>685.08</ele>
        <time>2016-06-11T10:36:26Z</time>
      </trkpt>
      <trkpt lat="46.65077" lon="5.94478">
        <ele>689.88</ele>
        <time>2016-06-11T10:36:38Z</time>
      </trkpt>
      <trkpt lat="46.65066" lon="5.94473">
        <ele>689.88</ele>
        <time>2016-06-11T10:36:49Z</time>
      </trkpt>
      <trkpt lat="46.65054" lon="5.94472">
        <ele>689.88</ele>
        <time>2016-06-11T10:36:59Z</time>
      </trkpt>
      <trkpt lat="46.65039" lon="5.94468">
        <ele>688.44</ele>
        <time>2016-06-11T10:37:12Z</time>
      </trkpt>
      <trkpt lat="46.65027" lon="5.94463">
        <ele>691.81</ele>
        <time>2016-06-11T10:37:23Z</time>
      </trkpt>
      <trkpt lat="46.65017" lon="5.94456">
        <ele>694.69</ele>
        <time>2016-06-11T10:37:34Z</time>
      </trkpt>
      <trkpt lat="46.65005" lon="5.94448">
        <ele>695.17</ele>
        <time>2016-06-11T10:37:44Z</time>
      </trkpt>
      <trkpt lat="46.64999" lon="5.94449">
        <ele>695.17</ele>
        <time>2016-06-11T10:37:50Z</time>
      </trkpt>
      <trkpt lat="46.64985" lon="5.94443">
        <ele>694.69</ele>
        <time>2016-06-11T10:38:04Z</time>
      </trkpt>
      <trkpt lat="46.64978" lon="5.94443">
        <ele>697.09</ele>
        <time>2016-06-11T10:38:10Z</time>
      </trkpt>
      <trkpt lat="46.64967" lon="5.94445">
        <ele>701.9</ele>
        <time>2016-06-11T10:38:21Z</time>
      </trkpt>
      <trkpt lat="46.64961" lon="5.94449">
        <ele>702.86</ele>
        <time>2016-06-11T10:38:34Z</time>
      </trkpt>
      <trkpt lat="46.6495" lon="5.9445">
        <ele>701.9</ele>
        <time>2016-06-11T10:38:42Z</time>
      </trkpt>
      <trkpt lat="46.64942" lon="5.9445">
        <ele>700.46</ele>
        <time>2016-06-11T10:38:49Z</time>
      </trkpt>
      <trkpt lat="46.64925" lon="5.94446">
        <ele>698.53</ele>
        <time>2016-06-11T10:39:02Z</time>
      </trkpt>
      <trkpt lat="46.64912" lon="5.94443">
        <ele>695.17</ele>
        <time>2016-06-11T10:39:14Z</time>
      </trkpt>
      <trkpt lat="46.64906" lon="5.94443">
        <ele>691.33</ele>
        <time>2016-06-11T10:39:23Z</time>
      </trkpt>
      <trkpt lat="46.64899" lon="5.94442">
        <ele>689.88</ele>
        <time>2016-06-11T10:39:31Z</time>
      </trkpt>
      <trkpt lat="46.6489" lon="5.9444">
        <ele>689.88</ele>
        <time>2016-06-11T10:39:42Z</time>
      </trkpt>
      <trkpt lat="46.64888" lon="5.94438">
        <ele>688.92</ele>
        <time>2016-06-11T10:39:47Z</time>
      </trkpt>
      <trkpt lat="46.6488" lon="5.94432">
        <ele>688.44</ele>
        <time>2016-06-11T10:39:57Z</time>
      </trkpt>
      <trkpt lat="46.64879" lon="5.94428">
        <ele>688.92</ele>
        <time>2016-06-11T10:40:01Z</time>
      </trkpt>
      <trkpt lat="46.64868" lon="5.94418">
        <ele>693.73</ele>
        <time>2016-06-11T10:40:12Z</time>
      </trkpt>
      <trkpt lat="46.64867" lon="5.94419">
        <ele>694.69</ele>
        <time>2016-06-11T10:40:14Z</time>
      </trkpt>
      <trkpt lat="46.64865" lon="5.94433">
        <ele>696.13</ele>
        <time>2016-06-11T10:40:26Z</time>
      </trkpt>
      <trkpt lat="46.64861" lon="5.94438">
        <ele>699.02</ele>
        <time>2016-06-11T10:40:40Z</time>
      </trkpt>
      <trkpt lat="46.64854" lon="5.94441">
        <ele>701.9</ele>
        <time>2016-06-11T10:40:49Z</time>
      </trkpt>
      <trkpt lat="46.64853" lon="5.94448">
        <ele>702.38</ele>
        <time>2016-06-11T10:40:59Z</time>
      </trkpt>
      <trkpt lat="46.64848" lon="5.94454">
        <ele>697.57</ele>
        <time>2016-06-11T10:41:10Z</time>
      </trkpt>
      <trkpt lat="46.64847" lon="5.94461">
        <ele>696.13</ele>
        <time>2016-06-11T10:41:17Z</time>
      </trkpt>
      <trkpt lat="46.64844" lon="5.94466">
        <ele>694.69</ele>
        <time>2016-06-11T10:41:21Z</time>
      </trkpt>
      <trkpt lat="46.6484" lon="5.94477">
        <ele>691.81</ele>
        <time>2016-06-11T10:41:32Z</time>
      </trkpt>
      <trkpt lat="46.64834" lon="5.94477">
        <ele>694.69</ele>
        <time>2016-06-11T10:41:36Z</time>
      </trkpt>
      <trkpt lat="46.64813" lon="5.9447">
        <ele>702.86</ele>
        <time>2016-06-11T10:41:48Z</time>
      </trkpt>
      <trkpt lat="46.64805" lon="5.94468">
        <ele>705.75</ele>
        <time>2016-06-11T10:41:59Z</time>
      </trkpt>
      <trkpt lat="46.64793" lon="5.94466">
        <ele>708.15</ele>
        <time>2016-06-11T10:42:13Z</time>
      </trkpt>
      <trkpt lat="46.64791" lon="5.94473">
        <ele>706.71</ele>
        <time>2016-06-11T10:42:25Z</time>
      </trkpt>
      <trkpt lat="46.6479" lon="5.94478">
        <ele>705.75</ele>
        <time>2016-06-11T10:42:36Z</time>
      </trkpt>
      <trkpt lat="46.6478" lon="5.94483">
        <ele>704.3</ele>
        <time>2016-06-11T10:42:50Z</time>
      </trkpt>
      <trkpt lat="46.64772" lon="5.94492">
        <ele>703.34</ele>
        <time>2016-06-11T10:43:03Z</time>
      </trkpt>
      <trkpt lat="46.64762" lon="5.94497">
        <ele>706.23</ele>
        <time>2016-06-11T10:43:17Z</time>
      </trkpt>
      <trkpt lat="46.64748" lon="5.94494">
        <ele>706.23</ele>
        <time>2016-06-11T10:43:30Z</time>
      </trkpt>
      <trkpt lat="46.6473" lon="5.94489">
        <ele>710.55</ele>
        <time>2016-06-11T10:43:44Z</time>
      </trkpt>
      <trkpt lat="46.6472" lon="5.94483">
        <ele>712.95</ele>
        <time>2016-06-11T10:43:56Z</time>
      </trkpt>
      <trkpt lat="46.64713" lon="5.94478">
        <ele>715.36</ele>
        <time>2016-06-11T10:44:05Z</time>
      </trkpt>
      <trkpt lat="46.64702" lon="5.94471">
        <ele>714.88</ele>
        <time>2016-06-11T10:44:18Z</time>
      </trkpt>
      <trkpt lat="46.64699" lon="5.94473">
        <ele>713.44</ele>
        <time>2016-06-11T10:44:31Z</time>
      </trkpt>
      <trkpt lat="46.64693" lon="5.94469">
        <ele>711.03</ele>
        <time>2016-06-11T10:44:41Z</time>
      </trkpt>
      <trkpt lat="46.64683" lon="5.94461">
        <ele>710.07</ele>
        <time>2016-06-11T10:44:52Z</time>
      </trkpt>
      <trkpt lat="46.64675" lon="5.94453">
        <ele>711.99</ele>
        <time>2016-06-11T10:45:03Z</time>
      </trkpt>
      <trkpt lat="46.64669" lon="5.94448">
        <ele>716.32</ele>
        <time>2016-06-11T10:45:16Z</time>
      </trkpt>
      <trkpt lat="46.64663" lon="5.94432">
        <ele>719.2</ele>
        <time>2016-06-11T10:45:26Z</time>
      </trkpt>
      <trkpt lat="46.64659" lon="5.94423">
        <ele>722.57</ele>
        <time>2016-06-11T10:45:32Z</time>
      </trkpt>
      <trkpt lat="46.64657" lon="5.94414">
        <ele>724.49</ele>
        <time>2016-06-11T10:45:38Z</time>
      </trkpt>
      <trkpt lat="46.6465" lon="5.94399">
        <ele>726.89</ele>
        <time>2016-06-11T10:45:50Z</time>
      </trkpt>
      <trkpt lat="46.64649" lon="5.94397">
        <ele>726.89</ele>
        <time>2016-06-11T10:46:02Z</time>
      </trkpt>
      <trkpt lat="46.64647" lon="5.94391">
        <ele>726.89</ele>
        <time>2016-06-11T10:46:16Z</time>
      </trkpt>
      <trkpt lat="46.64648" lon="5.94385">
        <ele>726.41</ele>
        <time>2016-06-11T10:46:30Z</time>
      </trkpt>
      <trkpt lat="46.64638" lon="5.94375">
        <ele>726.41</ele>
        <time>2016-06-11T10:46:45Z</time>
      </trkpt>
      <trkpt lat="46.64629" lon="5.94374">
        <ele>729.3</ele>
        <time>2016-06-11T10:46:57Z</time>
      </trkpt>
      <trkpt lat="46.64624" lon="5.94384">
        <ele>730.74</ele>
        <time>2016-06-11T10:47:12Z</time>
      </trkpt>
      <trkpt lat="46.64621" lon="5.94393">
        <ele>734.1</ele>
        <time>2016-06-11T10:47:26Z</time>
      </trkpt>
      <trkpt lat="46.64616" lon="5.94405">
        <ele>738.43</ele>
        <time>2016-06-11T10:47:38Z</time>
      </trkpt>
      <trkpt lat="46.64601" lon="5.94404">
        <ele>747.56</ele>
        <time>2016-06-11T10:47:51Z</time>
      </trkpt>
      <trkpt lat="46.64595" lon="5.94418">
        <ele>751.89</ele>
        <time>2016-06-11T10:48:07Z</time>
      </trkpt>
      <trkpt lat="46.64588" lon="5.94428">
        <ele>754.29</ele>
        <time>2016-06-11T10:48:20Z</time>
      </trkpt>
      <trkpt lat="46.64587" lon="5.94442">
        <ele>759.58</ele>
        <time>2016-06-11T10:48:32Z</time>
      </trkpt>
      <trkpt lat="46.64586" lon="5.94447">
        <ele>760.06</ele>
        <time>2016-06-11T10:48:37Z</time>
      </trkpt>
      <trkpt lat="46.6458" lon="5.94463">
        <ele>756.69</ele>
        <time>2016-06-11T10:48:51Z</time>
      </trkpt>
      <trkpt lat="46.64578" lon="5.94473">
        <ele>755.73</ele>
        <time>2016-06-11T10:49:03Z</time>
      </trkpt>
      <trkpt lat="46.64577" lon="5.94484">
        <ele>754.29</ele>
        <time>2016-06-11T10:49:18Z</time>
      </trkpt>
      <trkpt lat="46.64577" lon="5.94508">
        <ele>755.73</ele>
        <time>2016-06-11T10:49:35Z</time>
      </trkpt>
      <trkpt lat="46.64577" lon="5.94528">
        <ele>756.21</ele>
        <time>2016-06-11T10:49:50Z</time>
      </trkpt>
      <trkpt lat="46.64578" lon="5.94542">
        <ele>759.58</ele>
        <time>2016-06-11T10:50:04Z</time>
      </trkpt>
      <trkpt lat="46.64581" lon="5.94558">
        <ele>763.9</ele>
        <time>2016-06-11T10:50:17Z</time>
      </trkpt>
      <trkpt lat="46.64588" lon="5.94564">
        <ele>765.83</ele>
        <time>2016-06-11T10:50:30Z</time>
      </trkpt>
      <trkpt lat="46.6459" lon="5.94574">
        <ele>767.75</ele>
        <time>2016-06-11T10:50:46Z</time>
      </trkpt>
      <trkpt lat="46.6459" lon="5.94576">
        <ele>768.23</ele>
        <time>2016-06-11T10:50:49Z</time>
      </trkpt>
      <trkpt lat="46.6459" lon="5.94587">
        <ele>768.71</ele>
        <time>2016-06-11T10:51:06Z</time>
      </trkpt>
      <trkpt lat="46.6459" lon="5.94591">
        <ele>768.71</ele>
        <time>2016-06-11T10:51:21Z</time>
      </trkpt>
      <trkpt lat="46.64586" lon="5.9461">
        <ele>765.35</ele>
        <time>2016-06-11T10:51:36Z</time>
      </trkpt>
      <trkpt lat="46.64588" lon="5.94617">
        <ele>765.83</ele>
        <time>2016-06-11T10:51:52Z</time>
      </trkpt>
      <trkpt lat="46.64587" lon="5.94622">
        <ele>765.35</ele>
        <time>2016-06-11T10:52:05Z</time>
      </trkpt>
      <trkpt lat="46.64584" lon="5.94623">
        <ele>765.83</ele>
        <time>2016-06-11T10:52:07Z</time>
      </trkpt>
      <trkpt lat="46.64579" lon="5.9463">
        <ele>766.31</ele>
        <time>2016-06-11T10:52:25Z</time>
      </trkpt>
      <trkpt lat="46.64578" lon="5.94633">
        <ele>766.79</ele>
        <time>2016-06-11T10:52:32Z</time>
      </trkpt>
      <trkpt lat="46.64585" lon="5.94648">
        <ele>766.31</ele>
        <time>2016-06-11T10:52:45Z</time>
      </trkpt>
      <trkpt lat="46.64587" lon="5.94663">
        <ele>766.31</ele>
        <time>2016-06-11T10:52:58Z</time>
      </trkpt>
      <trkpt lat="46.64591" lon="5.94687">
        <ele>767.75</ele>
        <time>2016-06-11T10:53:13Z</time>
      </trkpt>
      <trkpt lat="46.64595" lon="5.94708">
        <ele>766.79</ele>
        <time>2016-06-11T10:53:27Z</time>
      </trkpt>
      <trkpt lat="46.646" lon="5.94726">
        <ele>763.9</ele>
        <time>2016-06-11T10:53:38Z</time>
      </trkpt>
      <trkpt lat="46.64611" lon="5.94753">
        <ele>764.87</ele>
        <time>2016-06-11T10:53:49Z</time>
      </trkpt>
      <trkpt lat="46.6462" lon="5.94775">
        <ele>761.98</ele>
        <time>2016-06-11T10:54:03Z</time>
      </trkpt>
      <trkpt lat="46.64626" lon="5.94799">
        <ele>762.94</ele>
        <time>2016-06-11T10:54:15Z</time>
      </trkpt>
      <trkpt lat="46.64622" lon="5.9481">
        <ele>763.42</ele>
        <time>2016-06-11T10:54:26Z</time>
      </trkpt>
      <trkpt lat="46.6462" lon="5.94825">
        <ele>759.1</ele>
        <time>2016-06-11T10:54:41Z</time>
      </trkpt>
      <trkpt lat="46.64629" lon="5.94848">
        <ele>757.18</ele>
        <time>2016-06-11T10:54:53Z</time>
      </trkpt>
      <trkpt lat="46.64645" lon="5.94889">
        <ele>761.5</ele>
        <time>2016-06-11T10:55:09Z</time>
      </trkpt>
      <trkpt lat="46.64651" lon="5.94914">
        <ele>760.06</ele>
        <time>2016-06-11T10:55:26Z</time>
      </trkpt>
      <trkpt lat="46.64657" lon="5.94932">
        <ele>761.02</ele>
        <time>2016-06-11T10:55:38Z</time>
      </trkpt>
      <trkpt lat="46.64666" lon="5.94953">
        <ele>761.98</ele>
        <time>2016-06-11T10:55:52Z</time>
      </trkpt>
      <trkpt lat="46.64671" lon="5.94969">
        <ele>761.5</ele>
        <time>2016-06-11T10:56:05Z</time>
      </trkpt>
      <trkpt lat="46.64674" lon="5.94981">
        <ele>761.5</ele>
        <time>2016-06-11T10:56:17Z</time>
      </trkpt>
      <trkpt lat="46.64674" lon="5.94987">
        <ele>761.02</ele>
        <time>2016-06-11T10:56:23Z</time>
      </trkpt>
      <trkpt lat="46.64679" lon="5.95004">
        <ele>756.21</ele>
        <time>2016-06-11T10:56:35Z</time>
      </trkpt>
      <trkpt lat="46.64687" lon="5.95016">
        <ele>750.93</ele>
        <time>2016-06-11T10:56:47Z</time>
      </trkpt>
      <trkpt lat="46.64694" lon="5.95028">
        <ele>744.68</ele>
        <time>2016-06-11T10:57:03Z</time>
      </trkpt>
      <trkpt lat="46.64702" lon="5.95038">
        <ele>740.83</ele>
        <time>2016-06-11T10:57:18Z</time>
      </trkpt>
      <trkpt lat="46.64707" lon="5.95046">
        <ele>738.91</ele>
        <time>2016-06-11T10:57:30Z</time>
      </trkpt>
      <trkpt lat="46.64714" lon="5.95056">
        <ele>735.07</ele>
        <time>2016-06-11T10:57:42Z</time>
      </trkpt>
      <trkpt lat="46.64726" lon="5.95065">
        <ele>730.26</ele>
        <time>2016-06-11T10:57:54Z</time>
      </trkpt>
      <trkpt lat="46.64729" lon="5.95069">
        <ele>730.26</ele>
        <time>2016-06-11T10:57:57Z</time>
      </trkpt>
      <trkpt lat="46.64742" lon="5.95085">
        <ele>733.14</ele>
        <time>2016-06-11T10:58:11Z</time>
      </trkpt>
      <trkpt lat="46.64747" lon="5.9509">
        <ele>734.58</ele>
        <time>2016-06-11T10:58:14Z</time>
      </trkpt>
      <trkpt lat="46.64755" lon="5.951">
        <ele>740.83</ele>
        <time>2016-06-11T10:58:25Z</time>
      </trkpt>
      <trkpt lat="46.64764" lon="5.95109">
        <ele>743.72</ele>
        <time>2016-06-11T10:58:39Z</time>
      </trkpt>
      <trkpt lat="46.64772" lon="5.95119">
        <ele>749</ele>
        <time>2016-06-11T10:58:56Z</time>
      </trkpt>
      <trkpt lat="46.64779" lon="5.95126">
        <ele>751.89</ele>
        <time>2016-06-11T10:59:08Z</time>
      </trkpt>
      <trkpt lat="46.64791" lon="5.95133">
        <ele>749.97</ele>
        <time>2016-06-11T10:59:19Z</time>
      </trkpt>
      <trkpt lat="46.64793" lon="5.95135">
        <ele>749.49</ele>
        <time>2016-06-11T10:59:23Z</time>
      </trkpt>
      <trkpt lat="46.64801" lon="5.9514">
        <ele>749</ele>
        <time>2016-06-11T10:59:34Z</time>
      </trkpt>
      <trkpt lat="46.64809" lon="5.95148">
        <ele>748.52</ele>
        <time>2016-06-11T10:59:47Z</time>
      </trkpt>
      <trkpt lat="46.64817" lon="5.95156">
        <ele>749</ele>
        <time>2016-06-11T11:00:01Z</time>
      </trkpt>
      <trkpt lat="46.64818" lon="5.95158">
        <ele>749</ele>
        <time>2016-06-11T11:00:08Z</time>
      </trkpt>
      <trkpt lat="46.64824" lon="5.95165">
        <ele>750.93</ele>
        <time>2016-06-11T11:00:19Z</time>
      </trkpt>
      <trkpt lat="46.64834" lon="5.95177">
        <ele>752.85</ele>
        <time>2016-06-11T11:00:32Z</time>
      </trkpt>
      <trkpt lat="46.64837" lon="5.95183">
        <ele>754.29</ele>
        <time>2016-06-11T11:00:37Z</time>
      </trkpt>
      <trkpt lat="46.64846" lon="5.95197">
        <ele>756.21</ele>
        <time>2016-06-11T11:00:50Z</time>
      </trkpt>
      <trkpt lat="46.64848" lon="5.95199">
        <ele>756.69</ele>
        <time>2016-06-11T11:00:53Z</time>
      </trkpt>
      <trkpt lat="46.64853" lon="5.95203">
        <ele>757.66</ele>
        <time>2016-06-11T11:00:58Z</time>
      </trkpt>
      <trkpt lat="46.64856" lon="5.95205">
        <ele>758.14</ele>
        <time>2016-06-11T11:01:01Z</time>
      </trkpt>
      <trkpt lat="46.64862" lon="5.95215">
        <ele>763.42</ele>
        <time>2016-06-11T11:01:12Z</time>
      </trkpt>
      <trkpt lat="46.6487" lon="5.95246">
        <ele>785.05</ele>
        <time>2016-06-11T11:01:20Z</time>
      </trkpt>
      <trkpt lat="46.64878" lon="5.95252">
        <ele>789.86</ele>
        <time>2016-06-11T11:01:33Z</time>
      </trkpt>
      <trkpt lat="46.64886" lon="5.95257">
        <ele>793.22</ele>
        <time>2016-06-11T11:01:43Z</time>
      </trkpt>
      <trkpt lat="46.64895" lon="5.9526">
        <ele>794.19</ele>
        <time>2016-06-11T11:01:56Z</time>
      </trkpt>
      <trkpt lat="46.64901" lon="5.95263">
        <ele>797.55</ele>
        <time>2016-06-11T11:02:05Z</time>
      </trkpt>
      <trkpt lat="46.64907" lon="5.95267">
        <ele>799.47</ele>
        <time>2016-06-11T11:02:17Z</time>
      </trkpt>
      <trkpt lat="46.64916" lon="5.95273">
        <ele>799.95</ele>
        <time>2016-06-11T11:02:30Z</time>
      </trkpt>
      <trkpt lat="46.64926" lon="5.95278">
        <ele>800.92</ele>
        <time>2016-06-11T11:02:46Z</time>
      </trkpt>
      <trkpt lat="46.64934" lon="5.95283">
        <ele>799.47</ele>
        <time>2016-06-11T11:02:59Z</time>
      </trkpt>
      <trkpt lat="46.64941" lon="5.95288">
        <ele>800.92</ele>
        <time>2016-06-11T11:03:10Z</time>
      </trkpt>
      <trkpt lat="46.64948" lon="5.95296">
        <ele>801.88</ele>
        <time>2016-06-11T11:03:19Z</time>
      </trkpt>
      <trkpt lat="46.64956" lon="5.95308">
        <ele>803.8</ele>
        <time>2016-06-11T11:03:29Z</time>
      </trkpt>
      <trkpt lat="46.64958" lon="5.95312">
        <ele>804.28</ele>
        <time>2016-06-11T11:03:33Z</time>
      </trkpt>
      <trkpt lat="46.64964" lon="5.95319">
        <ele>805.24</ele>
        <time>2016-06-11T11:03:45Z</time>
      </trkpt>
      <trkpt lat="46.64978" lon="5.95329">
        <ele>807.16</ele>
        <time>2016-06-11T11:03:58Z</time>
      </trkpt>
      <trkpt lat="46.64989" lon="5.95337">
        <ele>807.64</ele>
        <time>2016-06-11T11:04:14Z</time>
      </trkpt>
      <trkpt lat="46.64999" lon="5.95346">
        <ele>807.16</ele>
        <time>2016-06-11T11:04:25Z</time>
      </trkpt>
      <trkpt lat="46.65" lon="5.9536">
        <ele>806.2</ele>
        <time>2016-06-11T11:04:39Z</time>
      </trkpt>
      <trkpt lat="46.65001" lon="5.95379">
        <ele>801.4</ele>
        <time>2016-06-11T11:04:52Z</time>
      </trkpt>
      <trkpt lat="46.64997" lon="5.95395">
        <ele>802.36</ele>
        <time>2016-06-11T11:05:05Z</time>
      </trkpt>
      <trkpt lat="46.65003" lon="5.95417">
        <ele>802.84</ele>
        <time>2016-06-11T11:05:17Z</time>
      </trkpt>
      <trkpt lat="46.65017" lon="5.95435">
        <ele>804.28</ele>
        <time>2016-06-11T11:05:30Z</time>
      </trkpt>
      <trkpt lat="46.65026" lon="5.95447">
        <ele>802.84</ele>
        <time>2016-06-11T11:05:44Z</time>
      </trkpt>
      <trkpt lat="46.65037" lon="5.95463">
        <ele>802.84</ele>
        <time>2016-06-11T11:05:58Z</time>
      </trkpt>
      <trkpt lat="46.65044" lon="5.95471">
        <ele>800.44</ele>
        <time>2016-06-11T11:06:11Z</time>
      </trkpt>
      <trkpt lat="46.65049" lon="5.9548">
        <ele>800.92</ele>
        <time>2016-06-11T11:06:23Z</time>
      </trkpt>
      <trkpt lat="46.65053" lon="5.95492">
        <ele>799.95</ele>
        <time>2016-06-11T11:06:34Z</time>
      </trkpt>
      <trkpt lat="46.65057" lon="5.95517">
        <ele>799.95</ele>
        <time>2016-06-11T11:06:48Z</time>
      </trkpt>
      <trkpt lat="46.65059" lon="5.95533">
        <ele>801.88</ele>
        <time>2016-06-11T11:07:01Z</time>
      </trkpt>
      <trkpt lat="46.65065" lon="5.95551">
        <ele>799.47</ele>
        <time>2016-06-11T11:07:13Z</time>
      </trkpt>
      <trkpt lat="46.65072" lon="5.95565">
        <ele>801.88</ele>
        <time>2016-06-11T11:07:22Z</time>
      </trkpt>
      <trkpt lat="46.65081" lon="5.95586">
        <ele>802.84</ele>
        <time>2016-06-11T11:07:37Z</time>
      </trkpt>
      <trkpt lat="46.65091" lon="5.95593">
        <ele>798.99</ele>
        <time>2016-06-11T11:07:50Z</time>
      </trkpt>
      <trkpt lat="46.65094" lon="5.95596">
        <ele>798.03</ele>
        <time>2016-06-11T11:08:05Z</time>
      </trkpt>
      <trkpt lat="46.65098" lon="5.95595">
        <ele>797.55</ele>
        <time>2016-06-11T11:08:17Z</time>
      </trkpt>
      <trkpt lat="46.65113" lon="5.95591">
        <ele>798.03</ele>
        <time>2016-06-11T11:08:30Z</time>
      </trkpt>
      <trkpt lat="46.6512" lon="5.95586">
        <ele>798.99</ele>
        <time>2016-06-11T11:08:45Z</time>
      </trkpt>
      <trkpt lat="46.65124" lon="5.95584">
        <ele>798.03</ele>
        <time>2016-06-11T11:09:00Z</time>
      </trkpt>
      <trkpt lat="46.65135" lon="5.95583">
        <ele>796.59</ele>
        <time>2016-06-11T11:09:15Z</time>
      </trkpt>
      <trkpt lat="46.65142" lon="5.95586">
        <ele>796.59</ele>
        <time>2016-06-11T11:09:28Z</time>
      </trkpt>
      <trkpt lat="46.65156" lon="5.95594">
        <ele>791.3</ele>
        <time>2016-06-11T11:09:41Z</time>
      </trkpt>
      <trkpt lat="46.65159" lon="5.95596">
        <ele>791.3</ele>
        <time>2016-06-11T11:09:51Z</time>
      </trkpt>
      <trkpt lat="46.65163" lon="5.956">
        <ele>788.9</ele>
        <time>2016-06-11T11:10:05Z</time>
      </trkpt>
      <trkpt lat="46.65176" lon="5.95603">
        <ele>790.82</ele>
        <time>2016-06-11T11:10:17Z</time>
      </trkpt>
      <trkpt lat="46.65187" lon="5.95614">
        <ele>790.34</ele>
        <time>2016-06-11T11:10:28Z</time>
      </trkpt>
      <trkpt lat="46.6519" lon="5.95621">
        <ele>790.82</ele>
        <time>2016-06-11T11:10:35Z</time>
      </trkpt>
      <trkpt lat="46.65194" lon="5.95636">
        <ele>792.74</ele>
        <time>2016-06-11T11:10:47Z</time>
      </trkpt>
      <trkpt lat="46.65192" lon="5.9564">
        <ele>793.22</ele>
        <time>2016-06-11T11:10:50Z</time>
      </trkpt>
      <trkpt lat="46.65187" lon="5.95657">
        <ele>792.74</ele>
        <time>2016-06-11T11:11:04Z</time>
      </trkpt>
      <trkpt lat="46.65179" lon="5.95674">
        <ele>793.22</ele>
        <time>2016-06-11T11:11:18Z</time>
      </trkpt>
      <trkpt lat="46.65178" lon="5.95685">
        <ele>792.74</ele>
        <time>2016-06-11T11:11:31Z</time>
      </trkpt>
      <trkpt lat="46.65182" lon="5.95705">
        <ele>794.67</ele>
        <time>2016-06-11T11:11:43Z</time>
      </trkpt>
      <trkpt lat="46.6519" lon="5.95722">
        <ele>796.59</ele>
        <time>2016-06-11T11:11:58Z</time>
      </trkpt>
      <trkpt lat="46.65198" lon="5.95729">
        <ele>795.63</ele>
        <time>2016-06-11T11:12:09Z</time>
      </trkpt>
      <trkpt lat="46.65213" lon="5.95737">
        <ele>794.19</ele>
        <time>2016-06-11T11:12:23Z</time>
      </trkpt>
      <trkpt lat="46.65223" lon="5.95751">
        <ele>795.15</ele>
        <time>2016-06-11T11:12:37Z</time>
      </trkpt>
      <trkpt lat="46.65231" lon="5.95764">
        <ele>794.19</ele>
        <time>2016-06-11T11:12:49Z</time>
      </trkpt>
      <trkpt lat="46.65238" lon="5.95776">
        <ele>792.74</ele>
        <time>2016-06-11T11:13:01Z</time>
      </trkpt>
      <trkpt lat="46.65242" lon="5.9578">
        <ele>792.26</ele>
        <time>2016-06-11T11:13:17Z</time>
      </trkpt>
      <trkpt lat="46.65251" lon="5.95794">
        <ele>791.3</ele>
        <time>2016-06-11T11:13:28Z</time>
      </trkpt>
      <trkpt lat="46.65261" lon="5.95808">
        <ele>788.9</ele>
        <time>2016-06-11T11:13:42Z</time>
      </trkpt>
      <trkpt lat="46.65272" lon="5.95826">
        <ele>786.02</ele>
        <time>2016-06-11T11:13:56Z</time>
      </trkpt>
      <trkpt lat="46.65284" lon="5.95851">
        <ele>784.57</ele>
        <time>2016-06-11T11:14:11Z</time>
      </trkpt>
      <trkpt lat="46.65294" lon="5.95872">
        <ele>782.65</ele>
        <time>2016-06-11T11:14:27Z</time>
      </trkpt>
      <trkpt lat="46.65298" lon="5.95887">
        <ele>780.25</ele>
        <time>2016-06-11T11:14:42Z</time>
      </trkpt>
      <trkpt lat="46.65302" lon="5.95912">
        <ele>779.77</ele>
        <time>2016-06-11T11:14:59Z</time>
      </trkpt>
      <trkpt lat="46.65306" lon="5.95927">
        <ele>776.88</ele>
        <time>2016-06-11T11:15:14Z</time>
      </trkpt>
      <trkpt lat="46.65309" lon="5.95961">
        <ele>776.4</ele>
        <time>2016-06-11T11:15:27Z</time>
      </trkpt>
      <trkpt lat="46.6532" lon="5.95976">
        <ele>777.36</ele>
        <time>2016-06-11T11:15:42Z</time>
      </trkpt>
      <trkpt lat="46.65334" lon="5.95978">
        <ele>775.92</ele>
        <time>2016-06-11T11:15:57Z</time>
      </trkpt>
      <trkpt lat="46.6535" lon="5.95981">
        <ele>776.88</ele>
        <time>2016-06-11T11:16:13Z</time>
      </trkpt>
      <trkpt lat="46.6536" lon="5.95982">
        <ele>778.81</ele>
        <time>2016-06-11T11:16:25Z</time>
      </trkpt>
      <trkpt lat="46.65366" lon="5.95983">
        <ele>780.73</ele>
        <time>2016-06-11T11:16:40Z</time>
      </trkpt>
      <trkpt lat="46.65381" lon="5.95991">
        <ele>782.17</ele>
        <time>2016-06-11T11:16:53Z</time>
      </trkpt>
      <trkpt lat="46.65384" lon="5.95993">
        <ele>782.17</ele>
        <time>2016-06-11T11:16:57Z</time>
      </trkpt>
      <trkpt lat="46.65399" lon="5.96004">
        <ele>783.13</ele>
        <time>2016-06-11T11:17:09Z</time>
      </trkpt>
      <trkpt lat="46.65417" lon="5.96018">
        <ele>780.25</ele>
        <time>2016-06-11T11:17:23Z</time>
      </trkpt>
      <trkpt lat="46.65419" lon="5.96035">
        <ele>774</ele>
        <time>2016-06-11T11:17:36Z</time>
      </trkpt>
      <trkpt lat="46.65424" lon="5.96048">
        <ele>771.11</ele>
        <time>2016-06-11T11:17:48Z</time>
      </trkpt>
      <trkpt lat="46.6543" lon="5.96062">
        <ele>765.35</ele>
        <time>2016-06-11T11:18:02Z</time>
      </trkpt>
      <trkpt lat="46.65456" lon="5.96069">
        <ele>767.27</ele>
        <time>2016-06-11T11:18:15Z</time>
      </trkpt>
      <trkpt lat="46.65479" lon="5.96077">
        <ele>769.19</ele>
        <time>2016-06-11T11:18:28Z</time>
      </trkpt>
      <trkpt lat="46.65492" lon="5.96088">
        <ele>770.63</ele>
        <time>2016-06-11T11:18:40Z</time>
      </trkpt>
      <trkpt lat="46.65503" lon="5.961">
        <ele>768.71</ele>
        <time>2016-06-11T11:18:52Z</time>
      </trkpt>
      <trkpt lat="46.65515" lon="5.96111">
        <ele>767.75</ele>
        <time>2016-06-11T11:19:04Z</time>
      </trkpt>
      <trkpt lat="46.65524" lon="5.96117">
        <ele>768.23</ele>
        <time>2016-06-11T11:19:12Z</time>
      </trkpt>
      <trkpt lat="46.65526" lon="5.96119">
        <ele>768.23</ele>
        <time>2016-06-11T11:19:14Z</time>
      </trkpt>
      <trkpt lat="46.65529" lon="5.9612">
        <ele>768.71</ele>
        <time>2016-06-11T11:19:16Z</time>
      </trkpt>
      <trkpt lat="46.65543" lon="5.9613">
        <ele>770.15</ele>
        <time>2016-06-11T11:19:30Z</time>
      </trkpt>
      <trkpt lat="46.65551" lon="5.96135">
        <ele>770.63</ele>
        <time>2016-06-11T11:19:38Z</time>
      </trkpt>
      <trkpt lat="46.6556" lon="5.96141">
        <ele>771.11</ele>
        <time>2016-06-11T11:19:46Z</time>
      </trkpt>
      <trkpt lat="46.65572" lon="5.96148">
        <ele>772.08</ele>
        <time>2016-06-11T11:19:58Z</time>
      </trkpt>
      <trkpt lat="46.65583" lon="5.96156">
        <ele>771.6</ele>
        <time>2016-06-11T11:20:10Z</time>
      </trkpt>
      <trkpt lat="46.65594" lon="5.96165">
        <ele>771.6</ele>
        <time>2016-06-11T11:20:21Z</time>
      </trkpt>
      <trkpt lat="46.6561" lon="5.96175">
        <ele>771.6</ele>
        <time>2016-06-11T11:20:36Z</time>
      </trkpt>
      <trkpt lat="46.65615" lon="5.9618">
        <ele>771.11</ele>
        <time>2016-06-11T11:20:41Z</time>
      </trkpt>
      <trkpt lat="46.65621" lon="5.96189">
        <ele>769.19</ele>
        <time>2016-06-11T11:20:49Z</time>
      </trkpt>
      <trkpt lat="46.65623" lon="5.96193">
        <ele>768.23</ele>
        <time>2016-06-11T11:20:52Z</time>
      </trkpt>
      <trkpt lat="46.65626" lon="5.96196">
        <ele>767.27</ele>
        <time>2016-06-11T11:20:56Z</time>
      </trkpt>
      <trkpt lat="46.65629" lon="5.96197">
        <ele>766.79</ele>
        <time>2016-06-11T11:20:58Z</time>
      </trkpt>
      <trkpt lat="46.65635" lon="5.96205">
        <ele>765.35</ele>
        <time>2016-06-11T11:21:06Z</time>
      </trkpt>
      <trkpt lat="46.65636" lon="5.96211">
        <ele>763.9</ele>
        <time>2016-06-11T11:21:12Z</time>
      </trkpt>
      <trkpt lat="46.65624" lon="5.96236">
        <ele>761.02</ele>
        <time>2016-06-11T11:21:27Z</time>
      </trkpt>
      <trkpt lat="46.65616" lon="5.96257">
        <ele>760.54</ele>
        <time>2016-06-11T11:21:41Z</time>
      </trkpt>
      <trkpt lat="46.6561" lon="5.96276">
        <ele>761.98</ele>
        <time>2016-06-11T11:21:54Z</time>
      </trkpt>
      <trkpt lat="46.65606" lon="5.96288">
        <ele>762.94</ele>
        <time>2016-06-11T11:22:00Z</time>
      </trkpt>
      <trkpt lat="46.65598" lon="5.96306">
        <ele>762.46</ele>
        <time>2016-06-11T11:22:13Z</time>
      </trkpt>
      <trkpt lat="46.65597" lon="5.96309">
        <ele>762.46</ele>
        <time>2016-06-11T11:22:15Z</time>
      </trkpt>
      <trkpt lat="46.65589" lon="5.96323">
        <ele>761.5</ele>
        <time>2016-06-11T11:22:26Z</time>
      </trkpt>
      <trkpt lat="46.65587" lon="5.96325">
        <ele>761.5</ele>
        <time>2016-06-11T11:22:28Z</time>
      </trkpt>
      <trkpt lat="46.65577" lon="5.9634">
        <ele>761.5</ele>
        <time>2016-06-11T11:22:41Z</time>
      </trkpt>
      <trkpt lat="46.65572" lon="5.96349">
        <ele>761.5</ele>
        <time>2016-06-11T11:22:47Z</time>
      </trkpt>
      <trkpt lat="46.65559" lon="5.96366">
        <ele>759.58</ele>
        <time>2016-06-11T11:23:01Z</time>
      </trkpt>
      <trkpt lat="46.65558" lon="5.96369">
        <ele>760.06</ele>
        <time>2016-06-11T11:23:03Z</time>
      </trkpt>
      <trkpt lat="46.65557" lon="5.96372">
        <ele>759.58</ele>
        <time>2016-06-11T11:23:05Z</time>
      </trkpt>
      <trkpt lat="46.6555" lon="5.96379">
        <ele>758.62</ele>
        <time>2016-06-11T11:23:12Z</time>
      </trkpt>
      <trkpt lat="46.65543" lon="5.96386">
        <ele>757.18</ele>
        <time>2016-06-11T11:23:19Z</time>
      </trkpt>
      <trkpt lat="46.65538" lon="5.96388">
        <ele>756.69</ele>
        <time>2016-06-11T11:23:23Z</time>
      </trkpt>
      <trkpt lat="46.65529" lon="5.96391">
        <ele>755.25</ele>
        <time>2016-06-11T11:23:36Z</time>
      </trkpt>
      <trkpt lat="46.65529" lon="5.96392">
        <ele>755.25</ele>
        <time>2016-06-11T11:23:43Z</time>
      </trkpt>
      <trkpt lat="46.65526" lon="5.96395">
        <ele>754.77</ele>
        <time>2016-06-11T11:23:47Z</time>
      </trkpt>
      <trkpt lat="46.65523" lon="5.96396">
        <ele>753.81</ele>
        <time>2016-06-11T11:23:58Z</time>
      </trkpt>
      <trkpt lat="46.65515" lon="5.96402">
        <ele>752.85</ele>
        <time>2016-06-11T11:24:06Z</time>
      </trkpt>
      <trkpt lat="46.65513" lon="5.96405">
        <ele>752.85</ele>
        <time>2016-06-11T11:24:08Z</time>
      </trkpt>
      <trkpt lat="46.65498" lon="5.9642">
        <ele>751.41</ele>
        <time>2016-06-11T11:24:21Z</time>
      </trkpt>
      <trkpt lat="46.65488" lon="5.9643">
        <ele>750.93</ele>
        <time>2016-06-11T11:24:32Z</time>
      </trkpt>
      <trkpt lat="46.65481" lon="5.96434">
        <ele>749.49</ele>
        <time>2016-06-11T11:24:38Z</time>
      </trkpt>
      <trkpt lat="46.65475" lon="5.96439">
        <ele>748.04</ele>
        <time>2016-06-11T11:24:44Z</time>
      </trkpt>
      <trkpt lat="46.65463" lon="5.96446">
        <ele>747.08</ele>
        <time>2016-06-11T11:24:56Z</time>
      </trkpt>
      <trkpt lat="46.65453" lon="5.96454">
        <ele>745.64</ele>
        <time>2016-06-11T11:25:07Z</time>
      </trkpt>
      <trkpt lat="46.65444" lon="5.96467">
        <ele>744.2</ele>
        <time>2016-06-11T11:25:19Z</time>
      </trkpt>
      <trkpt lat="46.65441" lon="5.96471">
        <ele>743.72</ele>
        <time>2016-06-11T11:25:23Z</time>
      </trkpt>
      <trkpt lat="46.6544" lon="5.96472">
        <ele>743.24</ele>
        <time>2016-06-11T11:25:25Z</time>
      </trkpt>
      <trkpt lat="46.65435" lon="5.96479">
        <ele>742.76</ele>
        <time>2016-06-11T11:25:32Z</time>
      </trkpt>
      <trkpt lat="46.65427" lon="5.96484">
        <ele>740.35</ele>
        <time>2016-06-11T11:25:46Z</time>
      </trkpt>
      <trkpt lat="46.65423" lon="5.96491">
        <ele>740.35</ele>
        <time>2016-06-11T11:25:52Z</time>
      </trkpt>
      <trkpt lat="46.65423" lon="5.96496">
        <ele>741.31</ele>
        <time>2016-06-11T11:26:04Z</time>
      </trkpt>
      <trkpt lat="46.65418" lon="5.96498">
        <ele>741.79</ele>
        <time>2016-06-11T11:26:17Z</time>
      </trkpt>
      <trkpt lat="46.654" lon="5.96505">
        <ele>741.31</ele>
        <time>2016-06-11T11:26:34Z</time>
      </trkpt>
      <trkpt lat="46.65389" lon="5.96511">
        <ele>743.24</ele>
        <time>2016-06-11T11:26:41Z</time>
      </trkpt>
      <trkpt lat="46.65387" lon="5.96512">
        <ele>743.72</ele>
        <time>2016-06-11T11:26:43Z</time>
      </trkpt>
      <trkpt lat="46.6537" lon="5.96518">
        <ele>746.12</ele>
        <time>2016-06-11T11:26:58Z</time>
      </trkpt>
      <trkpt lat="46.65358" lon="5.96525">
        <ele>747.56</ele>
        <time>2016-06-11T11:27:09Z</time>
      </trkpt>
      <trkpt lat="46.65342" lon="5.96532">
        <ele>749.97</ele>
        <time>2016-06-11T11:27:24Z</time>
      </trkpt>
      <trkpt lat="46.65327" lon="5.96543">
        <ele>750.93</ele>
        <time>2016-06-11T11:27:37Z</time>
      </trkpt>
      <trkpt lat="46.6531" lon="5.96547">
        <ele>753.33</ele>
        <time>2016-06-11T11:27:50Z</time>
      </trkpt>
      <trkpt lat="46.65308" lon="5.96548">
        <ele>753.81</ele>
        <time>2016-06-11T11:27:51Z</time>
      </trkpt>
      <trkpt lat="46.65304" lon="5.96549">
        <ele>755.25</ele>
        <time>2016-06-11T11:27:55Z</time>
      </trkpt>
      <trkpt lat="46.65295" lon="5.96552">
        <ele>757.66</ele>
        <time>2016-06-11T11:28:02Z</time>
      </trkpt>
      <trkpt lat="46.65293" lon="5.96552">
        <ele>757.66</ele>
        <time>2016-06-11T11:28:04Z</time>
      </trkpt>
      <trkpt lat="46.65288" lon="5.96551">
        <ele>757.18</ele>
        <time>2016-06-11T11:28:09Z</time>
      </trkpt>
      <trkpt lat="46.65283" lon="5.96551">
        <ele>757.18</ele>
        <time>2016-06-11T11:28:13Z</time>
      </trkpt>
      <trkpt lat="46.65267" lon="5.96551">
        <ele>759.58</ele>
        <time>2016-06-11T11:28:26Z</time>
      </trkpt>
      <trkpt lat="46.65252" lon="5.96547">
        <ele>760.54</ele>
        <time>2016-06-11T11:28:39Z</time>
      </trkpt>
      <trkpt lat="46.65237" lon="5.96544">
        <ele>761.5</ele>
        <time>2016-06-11T11:28:52Z</time>
      </trkpt>
      <trkpt lat="46.65233" lon="5.96543">
        <ele>763.42</ele>
        <time>2016-06-11T11:28:56Z</time>
      </trkpt>
      <trkpt lat="46.65231" lon="5.96542">
        <ele>763.9</ele>
        <time>2016-06-11T11:28:58Z</time>
      </trkpt>
      <trkpt lat="46.6522" lon="5.96541">
        <ele>765.83</ele>
        <time>2016-06-11T11:29:08Z</time>
      </trkpt>
      <trkpt lat="46.65213" lon="5.96541">
        <ele>763.9</ele>
        <time>2016-06-11T11:29:15Z</time>
      </trkpt>
      <trkpt lat="46.65204" lon="5.96543">
        <ele>762.46</ele>
        <time>2016-06-11T11:29:22Z</time>
      </trkpt>
      <trkpt lat="46.65201" lon="5.96544">
        <ele>761.5</ele>
        <time>2016-06-11T11:29:25Z</time>
      </trkpt>
      <trkpt lat="46.65186" lon="5.96546">
        <ele>759.1</ele>
        <time>2016-06-11T11:29:39Z</time>
      </trkpt>
      <trkpt lat="46.65178" lon="5.96548">
        <ele>758.14</ele>
        <time>2016-06-11T11:29:46Z</time>
      </trkpt>
      <trkpt lat="46.6517" lon="5.96547">
        <ele>758.14</ele>
        <time>2016-06-11T11:29:53Z</time>
      </trkpt>
      <trkpt lat="46.65156" lon="5.96547">
        <ele>759.58</ele>
        <time>2016-06-11T11:30:05Z</time>
      </trkpt>
      <trkpt lat="46.65142" lon="5.96547">
        <ele>761.02</ele>
        <time>2016-06-11T11:30:17Z</time>
      </trkpt>
      <trkpt lat="46.65128" lon="5.96552">
        <ele>761.02</ele>
        <time>2016-06-11T11:30:29Z</time>
      </trkpt>
      <trkpt lat="46.65115" lon="5.96561">
        <ele>761.02</ele>
        <time>2016-06-11T11:30:41Z</time>
      </trkpt>
      <trkpt lat="46.65114" lon="5.96562">
        <ele>761.02</ele>
        <time>2016-06-11T11:30:42Z</time>
      </trkpt>
      <trkpt lat="46.65106" lon="5.96567">
        <ele>760.06</ele>
        <time>2016-06-11T11:30:49Z</time>
      </trkpt>
      <trkpt lat="46.65092" lon="5.96577">
        <ele>759.58</ele>
        <time>2016-06-11T11:31:04Z</time>
      </trkpt>
      <trkpt lat="46.65081" lon="5.96586">
        <ele>760.06</ele>
        <time>2016-06-11T11:31:16Z</time>
      </trkpt>
      <trkpt lat="46.6508" lon="5.96587">
        <ele>760.06</ele>
        <time>2016-06-11T11:31:17Z</time>
      </trkpt>
      <trkpt lat="46.65076" lon="5.96597">
        <ele>760.06</ele>
        <time>2016-06-11T11:31:28Z</time>
      </trkpt>
      <trkpt lat="46.65075" lon="5.96611">
        <ele>761.02</ele>
        <time>2016-06-11T11:31:38Z</time>
      </trkpt>
      <trkpt lat="46.65075" lon="5.96613">
        <ele>761.5</ele>
        <time>2016-06-11T11:31:39Z</time>
      </trkpt>
      <trkpt lat="46.65074" lon="5.9663">
        <ele>761.98</ele>
        <time>2016-06-11T11:31:46Z</time>
      </trkpt>
      <trkpt lat="46.65075" lon="5.96646">
        <ele>760.06</ele>
        <time>2016-06-11T11:31:58Z</time>
      </trkpt>
      <trkpt lat="46.65077" lon="5.96661">
        <ele>758.62</ele>
        <time>2016-06-11T11:32:13Z</time>
      </trkpt>
      <trkpt lat="46.65079" lon="5.96681">
        <ele>761.02</ele>
        <time>2016-06-11T11:32:29Z</time>
      </trkpt>
      <trkpt lat="46.65075" lon="5.96696">
        <ele>764.39</ele>
        <time>2016-06-11T11:32:43Z</time>
      </trkpt>
      <trkpt lat="46.6508" lon="5.96719">
        <ele>768.71</ele>
        <time>2016-06-11T11:32:58Z</time>
      </trkpt>
      <trkpt lat="46.6508" lon="5.96738">
        <ele>771.6</ele>
        <time>2016-06-11T11:33:12Z</time>
      </trkpt>
      <trkpt lat="46.65072" lon="5.96753">
        <ele>770.63</ele>
        <time>2016-06-11T11:33:24Z</time>
      </trkpt>
      <trkpt lat="46.65074" lon="5.96763">
        <ele>769.19</ele>
        <time>2016-06-11T11:33:30Z</time>
      </trkpt>
      <trkpt lat="46.65074" lon="5.96782">
        <ele>767.27</ele>
        <time>2016-06-11T11:33:42Z</time>
      </trkpt>
      <trkpt lat="46.65088" lon="5.9682">
        <ele>769.19</ele>
        <time>2016-06-11T11:33:56Z</time>
      </trkpt>
      <trkpt lat="46.65085" lon="5.96835">
        <ele>769.67</ele>
        <time>2016-06-11T11:34:07Z</time>
      </trkpt>
      <trkpt lat="46.65083" lon="5.96852">
        <ele>768.23</ele>
        <time>2016-06-11T11:34:21Z</time>
      </trkpt>
      <trkpt lat="46.65083" lon="5.96853">
        <ele>768.23</ele>
        <time>2016-06-11T11:34:22Z</time>
      </trkpt>
      <trkpt lat="46.6508" lon="5.9687">
        <ele>764.87</ele>
        <time>2016-06-11T11:34:37Z</time>
      </trkpt>
      <trkpt lat="46.65079" lon="5.96893">
        <ele>766.79</ele>
        <time>2016-06-11T11:34:53Z</time>
      </trkpt>
      <trkpt lat="46.65074" lon="5.96918">
        <ele>765.83</ele>
        <time>2016-06-11T11:35:10Z</time>
      </trkpt>
      <trkpt lat="46.65072" lon="5.96927">
        <ele>765.35</ele>
        <time>2016-06-11T11:35:16Z</time>
      </trkpt>
      <trkpt lat="46.65068" lon="5.96938">
        <ele>764.87</ele>
        <time>2016-06-11T11:35:25Z</time>
      </trkpt>
      <trkpt lat="46.65068" lon="5.96959">
        <ele>770.63</ele>
        <time>2016-06-11T11:35:37Z</time>
      </trkpt>
      <trkpt lat="46.65071" lon="5.96974">
        <ele>775.92</ele>
        <time>2016-06-11T11:35:48Z</time>
      </trkpt>
      <trkpt lat="46.65068" lon="5.96981">
        <ele>776.4</ele>
        <time>2016-06-11T11:36:02Z</time>
      </trkpt>
      <trkpt lat="46.65068" lon="5.96989">
        <ele>774.96</ele>
        <time>2016-06-11T11:36:14Z</time>
      </trkpt>
      <trkpt lat="46.65065" lon="5.97004">
        <ele>772.56</ele>
        <time>2016-06-11T11:36:28Z</time>
      </trkpt>
      <trkpt lat="46.65063" lon="5.97009">
        <ele>772.56</ele>
        <time>2016-06-11T11:36:32Z</time>
      </trkpt>
      <trkpt lat="46.6506" lon="5.97031">
        <ele>771.11</ele>
        <time>2016-06-11T11:36:49Z</time>
      </trkpt>
      <trkpt lat="46.65066" lon="5.97047">
        <ele>771.6</ele>
        <time>2016-06-11T11:37:02Z</time>
      </trkpt>
      <trkpt lat="46.65069" lon="5.97089">
        <ele>779.77</ele>
        <time>2016-06-11T11:37:19Z</time>
      </trkpt>
      <trkpt lat="46.65068" lon="5.97102">
        <ele>781.21</ele>
        <time>2016-06-11T11:37:25Z</time>
      </trkpt>
      <trkpt lat="46.65075" lon="5.97151">
        <ele>792.74</ele>
        <time>2016-06-11T11:37:41Z</time>
      </trkpt>
      <trkpt lat="46.65078" lon="5.97172">
        <ele>797.55</ele>
        <time>2016-06-11T11:37:56Z</time>
      </trkpt>
      <trkpt lat="46.65081" lon="5.97188">
        <ele>799.95</ele>
        <time>2016-06-11T11:38:08Z</time>
      </trkpt>
      <trkpt lat="46.65084" lon="5.97212">
        <ele>801.88</ele>
        <time>2016-06-11T11:38:25Z</time>
      </trkpt>
      <trkpt lat="46.65086" lon="5.97229">
        <ele>804.76</ele>
        <time>2016-06-11T11:38:38Z</time>
      </trkpt>
      <trkpt lat="46.6508" lon="5.97242">
        <ele>804.76</ele>
        <time>2016-06-11T11:38:50Z</time>
      </trkpt>
      <trkpt lat="46.65077" lon="5.97246">
        <ele>803.8</ele>
        <time>2016-06-11T11:38:55Z</time>
      </trkpt>
      <trkpt lat="46.65063" lon="5.9725">
        <ele>801.88</ele>
        <time>2016-06-11T11:39:12Z</time>
      </trkpt>
      <trkpt lat="46.65049" lon="5.97251">
        <ele>798.99</ele>
        <time>2016-06-11T11:39:25Z</time>
      </trkpt>
      <trkpt lat="46.65044" lon="5.97256">
        <ele>798.03</ele>
        <time>2016-06-11T11:39:29Z</time>
      </trkpt>
      <trkpt lat="46.65041" lon="5.97259">
        <ele>799.95</ele>
        <time>2016-06-11T11:39:32Z</time>
      </trkpt>
      <trkpt lat="46.65023" lon="5.97265">
        <ele>800.92</ele>
        <time>2016-06-11T11:39:47Z</time>
      </trkpt>
      <trkpt lat="46.65014" lon="5.97266">
        <ele>797.55</ele>
        <time>2016-06-11T11:40:00Z</time>
      </trkpt>
      <trkpt lat="46.65002" lon="5.97274">
        <ele>794.67</ele>
        <time>2016-06-11T11:40:12Z</time>
      </trkpt>
      <trkpt lat="46.64994" lon="5.9728">
        <ele>790.34</ele>
        <time>2016-06-11T11:40:25Z</time>
      </trkpt>
      <trkpt lat="46.64985" lon="5.97283">
        <ele>785.53</ele>
        <time>2016-06-11T11:40:37Z</time>
      </trkpt>
      <trkpt lat="46.64958" lon="5.97284">
        <ele>787.94</ele>
        <time>2016-06-11T11:40:53Z</time>
      </trkpt>
      <trkpt lat="46.6493" lon="5.97283">
        <ele>791.78</ele>
        <time>2016-06-11T11:41:09Z</time>
      </trkpt>
      <trkpt lat="46.64924" lon="5.97285">
        <ele>796.11</ele>
        <time>2016-06-11T11:41:14Z</time>
      </trkpt>
      <trkpt lat="46.64907" lon="5.97283">
        <ele>803.8</ele>
        <time>2016-06-11T11:41:27Z</time>
      </trkpt>
      <trkpt lat="46.64903" lon="5.97282">
        <ele>803.8</ele>
        <time>2016-06-11T11:41:31Z</time>
      </trkpt>
      <trkpt lat="46.649" lon="5.97278">
        <ele>802.36</ele>
        <time>2016-06-11T11:41:34Z</time>
      </trkpt>
      <trkpt lat="46.64886" lon="5.9727">
        <ele>801.88</ele>
        <time>2016-06-11T11:41:48Z</time>
      </trkpt>
      <trkpt lat="46.64871" lon="5.9726">
        <ele>798.51</ele>
        <time>2016-06-11T11:42:02Z</time>
      </trkpt>
      <trkpt lat="46.64857" lon="5.97246">
        <ele>793.22</ele>
        <time>2016-06-11T11:42:16Z</time>
      </trkpt>
      <trkpt lat="46.64852" lon="5.9724">
        <ele>791.3</ele>
        <time>2016-06-11T11:42:22Z</time>
      </trkpt>
      <trkpt lat="46.64841" lon="5.97235">
        <ele>791.3</ele>
        <time>2016-06-11T11:42:30Z</time>
      </trkpt>
      <trkpt lat="46.64831" lon="5.9724">
        <ele>794.19</ele>
        <time>2016-06-11T11:42:42Z</time>
      </trkpt>
      <trkpt lat="46.64823" lon="5.97252">
        <ele>795.63</ele>
        <time>2016-06-11T11:42:53Z</time>
      </trkpt>
      <trkpt lat="46.64821" lon="5.97269">
        <ele>797.07</ele>
        <time>2016-06-11T11:43:06Z</time>
      </trkpt>
      <trkpt lat="46.64821" lon="5.97279">
        <ele>798.99</ele>
        <time>2016-06-11T11:43:18Z</time>
      </trkpt>
      <trkpt lat="46.64822" lon="5.97279">
        <ele>799.95</ele>
        <time>2016-06-11T11:43:34Z</time>
      </trkpt>
      <trkpt lat="46.64821" lon="5.9728">
        <ele>801.4</ele>
        <time>2016-06-11T11:44:03Z</time>
      </trkpt>
      <trkpt lat="46.64822" lon="5.97278">
        <ele>803.32</ele>
        <time>2016-06-11T11:44:35Z</time>
      </trkpt>
      <trkpt lat="46.64823" lon="5.97278">
        <ele>805.24</ele>
        <time>2016-06-11T11:44:56Z</time>
      </trkpt>
      <trkpt lat="46.64828" lon="5.97285">
        <ele>805.24</ele>
        <time>2016-06-11T11:45:07Z</time>
      </trkpt>
      <trkpt lat="46.64839" lon="5.97297">
        <ele>801.88</ele>
        <time>2016-06-11T11:45:19Z</time>
      </trkpt>
      <trkpt lat="46.64848" lon="5.97313">
        <ele>798.99</ele>
        <time>2016-06-11T11:45:34Z</time>
      </trkpt>
      <trkpt lat="46.64852" lon="5.9732">
        <ele>798.03</ele>
        <time>2016-06-11T11:45:47Z</time>
      </trkpt>
      <trkpt lat="46.64851" lon="5.9732">
        <ele>797.07</ele>
        <time>2016-06-11T11:46:15Z</time>
      </trkpt>
      <trkpt lat="46.6485" lon="5.9732">
        <ele>797.55</ele>
        <time>2016-06-11T11:46:33Z</time>
      </trkpt>
      <trkpt lat="46.6485" lon="5.97321">
        <ele>798.03</ele>
        <time>2016-06-11T11:46:56Z</time>
      </trkpt>
      <trkpt lat="46.6486" lon="5.97329">
        <ele>799.95</ele>
        <time>2016-06-11T11:47:10Z</time>
      </trkpt>
      <trkpt lat="46.64872" lon="5.97344">
        <ele>797.55</ele>
        <time>2016-06-11T11:47:25Z</time>
      </trkpt>
      <trkpt lat="46.64883" lon="5.97355">
        <ele>794.19</ele>
        <time>2016-06-11T11:47:39Z</time>
      </trkpt>
      <trkpt lat="46.64892" lon="5.97369">
        <ele>792.26</ele>
        <time>2016-06-11T11:47:52Z</time>
      </trkpt>
      <trkpt lat="46.64894" lon="5.97372">
        <ele>792.74</ele>
        <time>2016-06-11T11:47:54Z</time>
      </trkpt>
      <trkpt lat="46.64902" lon="5.97384">
        <ele>792.74</ele>
        <time>2016-06-11T11:48:01Z</time>
      </trkpt>
      <trkpt lat="46.64911" lon="5.974">
        <ele>789.38</ele>
        <time>2016-06-11T11:48:12Z</time>
      </trkpt>
      <trkpt lat="46.64917" lon="5.97412">
        <ele>787.94</ele>
        <time>2016-06-11T11:48:24Z</time>
      </trkpt>
      <trkpt lat="46.64924" lon="5.97427">
        <ele>790.82</ele>
        <time>2016-06-11T11:48:37Z</time>
      </trkpt>
      <trkpt lat="46.64925" lon="5.97433">
        <ele>791.78</ele>
        <time>2016-06-11T11:48:41Z</time>
      </trkpt>
      <trkpt lat="46.64932" lon="5.97446">
        <ele>794.67</ele>
        <time>2016-06-11T11:48:53Z</time>
      </trkpt>
      <trkpt lat="46.64938" lon="5.97455">
        <ele>796.11</ele>
        <time>2016-06-11T11:49:06Z</time>
      </trkpt>
      <trkpt lat="46.64941" lon="5.97456">
        <ele>796.59</ele>
        <time>2016-06-11T11:49:17Z</time>
      </trkpt>
      <trkpt lat="46.64942" lon="5.97456">
        <ele>797.55</ele>
        <time>2016-06-11T11:49:33Z</time>
      </trkpt>
      <trkpt lat="46.64942" lon="5.97458">
        <ele>798.51</ele>
        <time>2016-06-11T11:49:47Z</time>
      </trkpt>
      <trkpt lat="46.64942" lon="5.97458">
        <ele>798.99</ele>
        <time>2016-06-11T11:50:05Z</time>
      </trkpt>
      <trkpt lat="46.64943" lon="5.97458">
        <ele>799.47</ele>
        <time>2016-06-11T11:50:17Z</time>
      </trkpt>
      <trkpt lat="46.64945" lon="5.97461">
        <ele>799.95</ele>
        <time>2016-06-11T11:50:29Z</time>
      </trkpt>
      <trkpt lat="46.64955" lon="5.9748">
        <ele>797.55</ele>
        <time>2016-06-11T11:50:43Z</time>
      </trkpt>
      <trkpt lat="46.64956" lon="5.97481">
        <ele>796.59</ele>
        <time>2016-06-11T11:50:58Z</time>
      </trkpt>
      <trkpt lat="46.64957" lon="5.97481">
        <ele>796.11</ele>
        <time>2016-06-11T11:51:14Z</time>
      </trkpt>
      <trkpt lat="46.64959" lon="5.97487">
        <ele>795.63</ele>
        <time>2016-06-11T11:51:28Z</time>
      </trkpt>
      <trkpt lat="46.64962" lon="5.97494">
        <ele>793.22</ele>
        <time>2016-06-11T11:51:42Z</time>
      </trkpt>
      <trkpt lat="46.64962" lon="5.97496">
        <ele>792.26</ele>
        <time>2016-06-11T11:51:56Z</time>
      </trkpt>
      <trkpt lat="46.64962" lon="5.97496">
        <ele>791.78</ele>
        <time>2016-06-11T11:52:12Z</time>
      </trkpt>
      <trkpt lat="46.64967" lon="5.97504">
        <ele>791.78</ele>
        <time>2016-06-11T11:52:28Z</time>
      </trkpt>
      <trkpt lat="46.64973" lon="5.97523">
        <ele>790.82</ele>
        <time>2016-06-11T11:52:41Z</time>
      </trkpt>
      <trkpt lat="46.6498" lon="5.97542">
        <ele>790.34</ele>
        <time>2016-06-11T11:52:55Z</time>
      </trkpt>
      <trkpt lat="46.64982" lon="5.97552">
        <ele>787.94</ele>
        <time>2016-06-11T11:53:06Z</time>
      </trkpt>
      <trkpt lat="46.64982" lon="5.97554">
        <ele>787.46</ele>
        <time>2016-06-11T11:53:08Z</time>
      </trkpt>
      <trkpt lat="46.64982" lon="5.97563">
        <ele>786.98</ele>
        <time>2016-06-11T11:53:14Z</time>
      </trkpt>
      <trkpt lat="46.64989" lon="5.97586">
        <ele>787.94</ele>
        <time>2016-06-11T11:53:28Z</time>
      </trkpt>
      <trkpt lat="46.64989" lon="5.97588">
        <ele>787.94</ele>
        <time>2016-06-11T11:53:29Z</time>
      </trkpt>
      <trkpt lat="46.64995" lon="5.97603">
        <ele>791.3</ele>
        <time>2016-06-11T11:53:44Z</time>
      </trkpt>
      <trkpt lat="46.64999" lon="5.97625">
        <ele>791.78</ele>
        <time>2016-06-11T11:53:59Z</time>
      </trkpt>
      <trkpt lat="46.65011" lon="5.97646">
        <ele>795.63</ele>
        <time>2016-06-11T11:54:13Z</time>
      </trkpt>
      <trkpt lat="46.65021" lon="5.97662">
        <ele>796.59</ele>
        <time>2016-06-11T11:54:28Z</time>
      </trkpt>
      <trkpt lat="46.65026" lon="5.97666">
        <ele>796.59</ele>
        <time>2016-06-11T11:54:41Z</time>
      </trkpt>
      <trkpt lat="46.65028" lon="5.97675">
        <ele>797.07</ele>
        <time>2016-06-11T11:54:53Z</time>
      </trkpt>
      <trkpt lat="46.6503" lon="5.97678">
        <ele>798.99</ele>
        <time>2016-06-11T11:55:08Z</time>
      </trkpt>
      <trkpt lat="46.65035" lon="5.97684">
        <ele>798.51</ele>
        <time>2016-06-11T11:55:21Z</time>
      </trkpt>
      <trkpt lat="46.65039" lon="5.97687">
        <ele>800.92</ele>
        <time>2016-06-11T11:55:33Z</time>
      </trkpt>
      <trkpt lat="46.65042" lon="5.97695">
        <ele>799.47</ele>
        <time>2016-06-11T11:55:51Z</time>
      </trkpt>
      <trkpt lat="46.65042" lon="5.97702">
        <ele>798.03</ele>
        <time>2016-06-11T11:56:01Z</time>
      </trkpt>
      <trkpt lat="46.65048" lon="5.97707">
        <ele>795.63</ele>
        <time>2016-06-11T11:56:14Z</time>
      </trkpt>
      <trkpt lat="46.65055" lon="5.97709">
        <ele>795.63</ele>
        <time>2016-06-11T11:56:26Z</time>
      </trkpt>
      <trkpt lat="46.65061" lon="5.97718">
        <ele>793.22</ele>
        <time>2016-06-11T11:56:39Z</time>
      </trkpt>
      <trkpt lat="46.65065" lon="5.9773">
        <ele>792.74</ele>
        <time>2016-06-11T11:56:52Z</time>
      </trkpt>
      <trkpt lat="46.65077" lon="5.9774">
        <ele>792.26</ele>
        <time>2016-06-11T11:57:05Z</time>
      </trkpt>
      <trkpt lat="46.65083" lon="5.97753">
        <ele>793.71</ele>
        <time>2016-06-11T11:57:17Z</time>
      </trkpt>
      <trkpt lat="46.65082" lon="5.97763">
        <ele>795.63</ele>
        <time>2016-06-11T11:57:27Z</time>
      </trkpt>
      <trkpt lat="46.65085" lon="5.97769">
        <ele>794.19</ele>
        <time>2016-06-11T11:57:38Z</time>
      </trkpt>
      <trkpt lat="46.65091" lon="5.97778">
        <ele>792.26</ele>
        <time>2016-06-11T11:57:51Z</time>
      </trkpt>
      <trkpt lat="46.65097" lon="5.97785">
        <ele>791.78</ele>
        <time>2016-06-11T11:58:03Z</time>
      </trkpt>
      <trkpt lat="46.65103" lon="5.97793">
        <ele>792.74</ele>
        <time>2016-06-11T11:58:11Z</time>
      </trkpt>
      <trkpt lat="46.65104" lon="5.97806">
        <ele>788.42</ele>
        <time>2016-06-11T11:58:23Z</time>
      </trkpt>
      <trkpt lat="46.65109" lon="5.97817">
        <ele>786.98</ele>
        <time>2016-06-11T11:58:30Z</time>
      </trkpt>
      <trkpt lat="46.65113" lon="5.97833">
        <ele>794.67</ele>
        <time>2016-06-11T11:58:39Z</time>
      </trkpt>
      <trkpt lat="46.65113" lon="5.97845">
        <ele>794.67</ele>
        <time>2016-06-11T11:58:49Z</time>
      </trkpt>
      <trkpt lat="46.6512" lon="5.97859">
        <ele>795.63</ele>
        <time>2016-06-11T11:59:01Z</time>
      </trkpt>
      <trkpt lat="46.65125" lon="5.97867">
        <ele>794.19</ele>
        <time>2016-06-11T11:59:13Z</time>
      </trkpt>
      <trkpt lat="46.65131" lon="5.97869">
        <ele>791.78</ele>
        <time>2016-06-11T11:59:24Z</time>
      </trkpt>
      <trkpt lat="46.65136" lon="5.97876">
        <ele>793.22</ele>
        <time>2016-06-11T11:59:37Z</time>
      </trkpt>
      <trkpt lat="46.65143" lon="5.97887">
        <ele>797.55</ele>
        <time>2016-06-11T11:59:46Z</time>
      </trkpt>
      <trkpt lat="46.65153" lon="5.97905">
        <ele>801.4</ele>
        <time>2016-06-11T11:59:59Z</time>
      </trkpt>
      <trkpt lat="46.65148" lon="5.9791">
        <ele>802.84</ele>
        <time>2016-06-11T12:00:11Z</time>
      </trkpt>
      <trkpt lat="46.65149" lon="5.97911">
        <ele>804.76</ele>
        <time>2016-06-11T12:00:26Z</time>
      </trkpt>
      <trkpt lat="46.65149" lon="5.9791">
        <ele>805.72</ele>
        <time>2016-06-11T12:00:38Z</time>
      </trkpt>
      <trkpt lat="46.65149" lon="5.97909">
        <ele>805.24</ele>
        <time>2016-06-11T12:00:52Z</time>
      </trkpt>
      <trkpt lat="46.65148" lon="5.97905">
        <ele>804.28</ele>
        <time>2016-06-11T12:01:08Z</time>
      </trkpt>
      <trkpt lat="46.65149" lon="5.97904">
        <ele>803.8</ele>
        <time>2016-06-11T12:01:33Z</time>
      </trkpt>
      <trkpt lat="46.65148" lon="5.97904">
        <ele>803.8</ele>
        <time>2016-06-11T12:02:09Z</time>
      </trkpt>
      <trkpt lat="46.65147" lon="5.97905">
        <ele>803.32</ele>
        <time>2016-06-11T12:02:32Z</time>
      </trkpt>
      <trkpt lat="46.65149" lon="5.97904">
        <ele>803.8</ele>
        <time>2016-06-11T12:02:52Z</time>
      </trkpt>
      <trkpt lat="46.65149" lon="5.97903">
        <ele>804.28</ele>
        <time>2016-06-11T12:03:10Z</time>
      </trkpt>
      <trkpt lat="46.6515" lon="5.97903">
        <ele>804.28</ele>
        <time>2016-06-11T12:03:21Z</time>
      </trkpt>
      <trkpt lat="46.65155" lon="5.97906">
        <ele>804.76</ele>
        <time>2016-06-11T12:03:41Z</time>
      </trkpt>
      <trkpt lat="46.65154" lon="5.97906">
        <ele>804.76</ele>
        <time>2016-06-11T12:03:55Z</time>
      </trkpt>
      <trkpt lat="46.65156" lon="5.97916">
        <ele>806.2</ele>
        <time>2016-06-11T12:04:06Z</time>
      </trkpt>
      <trkpt lat="46.6515" lon="5.97931">
        <ele>809.09</ele>
        <time>2016-06-11T12:04:20Z</time>
      </trkpt>
      <trkpt lat="46.65145" lon="5.97947">
        <ele>809.09</ele>
        <time>2016-06-11T12:04:33Z</time>
      </trkpt>
      <trkpt lat="46.65145" lon="5.97953">
        <ele>808.61</ele>
        <time>2016-06-11T12:04:38Z</time>
      </trkpt>
      <trkpt lat="46.65146" lon="5.9797">
        <ele>805.24</ele>
        <time>2016-06-11T12:04:54Z</time>
      </trkpt>
      <trkpt lat="46.65148" lon="5.97989">
        <ele>801.88</ele>
        <time>2016-06-11T12:05:07Z</time>
      </trkpt>
      <trkpt lat="46.65155" lon="5.98">
        <ele>799.95</ele>
        <time>2016-06-11T12:05:19Z</time>
      </trkpt>
      <trkpt lat="46.6516" lon="5.98014">
        <ele>800.44</ele>
        <time>2016-06-11T12:05:31Z</time>
      </trkpt>
      <trkpt lat="46.6516" lon="5.98026">
        <ele>804.28</ele>
        <time>2016-06-11T12:05:45Z</time>
      </trkpt>
      <trkpt lat="46.65162" lon="5.98036">
        <ele>805.24</ele>
        <time>2016-06-11T12:05:57Z</time>
      </trkpt>
      <trkpt lat="46.65162" lon="5.98049">
        <ele>804.76</ele>
        <time>2016-06-11T12:06:10Z</time>
      </trkpt>
      <trkpt lat="46.65161" lon="5.9807">
        <ele>801.88</ele>
        <time>2016-06-11T12:06:25Z</time>
      </trkpt>
      <trkpt lat="46.65161" lon="5.98091">
        <ele>802.84</ele>
        <time>2016-06-11T12:06:40Z</time>
      </trkpt>
      <trkpt lat="46.65163" lon="5.98108">
        <ele>804.76</ele>
        <time>2016-06-11T12:06:54Z</time>
      </trkpt>
      <trkpt lat="46.65168" lon="5.98123">
        <ele>810.05</ele>
        <time>2016-06-11T12:07:06Z</time>
      </trkpt>
      <trkpt lat="46.65172" lon="5.98136">
        <ele>814.37</ele>
        <time>2016-06-11T12:07:18Z</time>
      </trkpt>
      <trkpt lat="46.65174" lon="5.98144">
        <ele>814.85</ele>
        <time>2016-06-11T12:07:33Z</time>
      </trkpt>
      <trkpt lat="46.65177" lon="5.98153">
        <ele>814.85</ele>
        <time>2016-06-11T12:07:41Z</time>
      </trkpt>
      <trkpt lat="46.65178" lon="5.98174">
        <ele>813.41</ele>
        <time>2016-06-11T12:07:56Z</time>
      </trkpt>
      <trkpt lat="46.65177" lon="5.98185">
        <ele>811.97</ele>
        <time>2016-06-11T12:08:12Z</time>
      </trkpt>
      <trkpt lat="46.65177" lon="5.9819">
        <ele>811.97</ele>
        <time>2016-06-11T12:08:23Z</time>
      </trkpt>
      <trkpt lat="46.65175" lon="5.98194">
        <ele>810.53</ele>
        <time>2016-06-11T12:08:38Z</time>
      </trkpt>
      <trkpt lat="46.65171" lon="5.98202">
        <ele>809.57</ele>
        <time>2016-06-11T12:08:53Z</time>
      </trkpt>
      <trkpt lat="46.6517" lon="5.98203">
        <ele>809.57</ele>
        <time>2016-06-11T12:08:59Z</time>
      </trkpt>
      <trkpt lat="46.65167" lon="5.98221">
        <ele>809.09</ele>
        <time>2016-06-11T12:09:16Z</time>
      </trkpt>
      <trkpt lat="46.65164" lon="5.98249">
        <ele>816.78</ele>
        <time>2016-06-11T12:09:30Z</time>
      </trkpt>
      <trkpt lat="46.65156" lon="5.98262">
        <ele>824.47</ele>
        <time>2016-06-11T12:09:45Z</time>
      </trkpt>
      <trkpt lat="46.65155" lon="5.98273">
        <ele>830.24</ele>
        <time>2016-06-11T12:09:58Z</time>
      </trkpt>
      <trkpt lat="46.65155" lon="5.98287">
        <ele>830.24</ele>
        <time>2016-06-11T12:10:13Z</time>
      </trkpt>
      <trkpt lat="46.65158" lon="5.98299">
        <ele>828.79</ele>
        <time>2016-06-11T12:10:28Z</time>
      </trkpt>
      <trkpt lat="46.65158" lon="5.98309">
        <ele>830.72</ele>
        <time>2016-06-11T12:10:40Z</time>
      </trkpt>
      <trkpt lat="46.65159" lon="5.98321">
        <ele>830.72</ele>
        <time>2016-06-11T12:10:53Z</time>
      </trkpt>
      <trkpt lat="46.65162" lon="5.98334">
        <ele>833.6</ele>
        <time>2016-06-11T12:11:08Z</time>
      </trkpt>
      <trkpt lat="46.65166" lon="5.9835">
        <ele>836.48</ele>
        <time>2016-06-11T12:11:20Z</time>
      </trkpt>
      <trkpt lat="46.65169" lon="5.98361">
        <ele>836.96</ele>
        <time>2016-06-11T12:11:33Z</time>
      </trkpt>
      <trkpt lat="46.65171" lon="5.98379">
        <ele>836.96</ele>
        <time>2016-06-11T12:11:45Z</time>
      </trkpt>
      <trkpt lat="46.65176" lon="5.98395">
        <ele>838.89</ele>
        <time>2016-06-11T12:11:57Z</time>
      </trkpt>
      <trkpt lat="46.65175" lon="5.98409">
        <ele>839.37</ele>
        <time>2016-06-11T12:12:09Z</time>
      </trkpt>
      <trkpt lat="46.65179" lon="5.98424">
        <ele>839.37</ele>
        <time>2016-06-11T12:12:22Z</time>
      </trkpt>
      <trkpt lat="46.65183" lon="5.98438">
        <ele>839.85</ele>
        <time>2016-06-11T12:12:35Z</time>
      </trkpt>
      <trkpt lat="46.65184" lon="5.98454">
        <ele>841.29</ele>
        <time>2016-06-11T12:12:48Z</time>
      </trkpt>
      <trkpt lat="46.65185" lon="5.98473">
        <ele>844.18</ele>
        <time>2016-06-11T12:13:04Z</time>
      </trkpt>
      <trkpt lat="46.65192" lon="5.98487">
        <ele>847.06</ele>
        <time>2016-06-11T12:13:17Z</time>
      </trkpt>
      <trkpt lat="46.65192" lon="5.98504">
        <ele>846.58</ele>
        <time>2016-06-11T12:13:31Z</time>
      </trkpt>
      <trkpt lat="46.65192" lon="5.98519">
        <ele>845.14</ele>
        <time>2016-06-11T12:13:43Z</time>
      </trkpt>
      <trkpt lat="46.65196" lon="5.98537">
        <ele>845.62</ele>
        <time>2016-06-11T12:13:55Z</time>
      </trkpt>
      <trkpt lat="46.65198" lon="5.98553">
        <ele>845.14</ele>
        <time>2016-06-11T12:14:10Z</time>
      </trkpt>
      <trkpt lat="46.65195" lon="5.98565">
        <ele>847.06</ele>
        <time>2016-06-11T12:14:22Z</time>
      </trkpt>
      <trkpt lat="46.65194" lon="5.98575">
        <ele>847.06</ele>
        <time>2016-06-11T12:14:37Z</time>
      </trkpt>
      <trkpt lat="46.65193" lon="5.98594">
        <ele>848.98</ele>
        <time>2016-06-11T12:14:49Z</time>
      </trkpt>
      <trkpt lat="46.65197" lon="5.98614">
        <ele>851.87</ele>
        <time>2016-06-11T12:15:03Z</time>
      </trkpt>
      <trkpt lat="46.65197" lon="5.98628">
        <ele>849.94</ele>
        <time>2016-06-11T12:15:16Z</time>
      </trkpt>
      <trkpt lat="46.65189" lon="5.98654">
        <ele>849.46</ele>
        <time>2016-06-11T12:15:29Z</time>
      </trkpt>
      <trkpt lat="46.65191" lon="5.98672">
        <ele>851.38</ele>
        <time>2016-06-11T12:15:41Z</time>
      </trkpt>
      <trkpt lat="46.65189" lon="5.98684">
        <ele>848.5</ele>
        <time>2016-06-11T12:15:52Z</time>
      </trkpt>
      <trkpt lat="46.65186" lon="5.98701">
        <ele>848.5</ele>
        <time>2016-06-11T12:16:04Z</time>
      </trkpt>
      <trkpt lat="46.65183" lon="5.98718">
        <ele>849.94</ele>
        <time>2016-06-11T12:16:18Z</time>
      </trkpt>
      <trkpt lat="46.65176" lon="5.98734">
        <ele>848.02</ele>
        <time>2016-06-11T12:16:32Z</time>
      </trkpt>
      <trkpt lat="46.65171" lon="5.9875">
        <ele>848.02</ele>
        <time>2016-06-11T12:16:45Z</time>
      </trkpt>
      <trkpt lat="46.65166" lon="5.98765">
        <ele>847.54</ele>
        <time>2016-06-11T12:16:59Z</time>
      </trkpt>
      <trkpt lat="46.65159" lon="5.98786">
        <ele>848.98</ele>
        <time>2016-06-11T12:17:13Z</time>
      </trkpt>
      <trkpt lat="46.65157" lon="5.98795">
        <ele>849.94</ele>
        <time>2016-06-11T12:17:23Z</time>
      </trkpt>
      <trkpt lat="46.65151" lon="5.98805">
        <ele>848.98</ele>
        <time>2016-06-11T12:17:30Z</time>
      </trkpt>
      <trkpt lat="46.65145" lon="5.98821">
        <ele>848.02</ele>
        <time>2016-06-11T12:17:46Z</time>
      </trkpt>
      <trkpt lat="46.65145" lon="5.98823">
        <ele>848.98</ele>
        <time>2016-06-11T12:17:47Z</time>
      </trkpt>
      <trkpt lat="46.65126" lon="5.98845">
        <ele>853.79</ele>
        <time>2016-06-11T12:18:04Z</time>
      </trkpt>
      <trkpt lat="46.65114" lon="5.98858">
        <ele>855.71</ele>
        <time>2016-06-11T12:18:18Z</time>
      </trkpt>
      <trkpt lat="46.65103" lon="5.98876">
        <ele>855.71</ele>
        <time>2016-06-11T12:18:34Z</time>
      </trkpt>
      <trkpt lat="46.651" lon="5.98887">
        <ele>854.27</ele>
        <time>2016-06-11T12:18:51Z</time>
      </trkpt>
      <trkpt lat="46.65096" lon="5.98897">
        <ele>850.9</ele>
        <time>2016-06-11T12:19:05Z</time>
      </trkpt>
      <trkpt lat="46.65087" lon="5.98908">
        <ele>849.46</ele>
        <time>2016-06-11T12:19:16Z</time>
      </trkpt>
      <trkpt lat="46.65071" lon="5.9893">
        <ele>848.98</ele>
        <time>2016-06-11T12:19:29Z</time>
      </trkpt>
      <trkpt lat="46.65067" lon="5.98945">
        <ele>850.42</ele>
        <time>2016-06-11T12:19:45Z</time>
      </trkpt>
      <trkpt lat="46.65065" lon="5.98953">
        <ele>849.46</ele>
        <time>2016-06-11T12:19:53Z</time>
      </trkpt>
      <trkpt lat="46.65059" lon="5.98978">
        <ele>852.35</ele>
        <time>2016-06-11T12:20:06Z</time>
      </trkpt>
      <trkpt lat="46.65062" lon="5.98992">
        <ele>852.35</ele>
        <time>2016-06-11T12:20:19Z</time>
      </trkpt>
      <trkpt lat="46.65068" lon="5.99012">
        <ele>850.9</ele>
        <time>2016-06-11T12:20:33Z</time>
      </trkpt>
      <trkpt lat="46.65074" lon="5.99032">
        <ele>850.42</ele>
        <time>2016-06-11T12:20:47Z</time>
      </trkpt>
      <trkpt lat="46.65078" lon="5.99042">
        <ele>852.35</ele>
        <time>2016-06-11T12:20:53Z</time>
      </trkpt>
      <trkpt lat="46.65087" lon="5.99058">
        <ele>857.15</ele>
        <time>2016-06-11T12:21:06Z</time>
      </trkpt>
      <trkpt lat="46.6509" lon="5.99068">
        <ele>855.71</ele>
        <time>2016-06-11T12:21:16Z</time>
      </trkpt>
      <trkpt lat="46.65092" lon="5.99082">
        <ele>852.83</ele>
        <time>2016-06-11T12:21:30Z</time>
      </trkpt>
      <trkpt lat="46.65091" lon="5.99116">
        <ele>852.35</ele>
        <time>2016-06-11T12:21:46Z</time>
      </trkpt>
      <trkpt lat="46.65091" lon="5.99122">
        <ele>851.87</ele>
        <time>2016-06-11T12:21:51Z</time>
      </trkpt>
      <trkpt lat="46.6509" lon="5.9914">
        <ele>849.94</ele>
        <time>2016-06-11T12:22:03Z</time>
      </trkpt>
      <trkpt lat="46.65092" lon="5.99146">
        <ele>849.94</ele>
        <time>2016-06-11T12:22:12Z</time>
      </trkpt>
      <trkpt lat="46.65096" lon="5.99154">
        <ele>846.1</ele>
        <time>2016-06-11T12:22:23Z</time>
      </trkpt>
      <trkpt lat="46.65097" lon="5.99164">
        <ele>842.73</ele>
        <time>2016-06-11T12:22:34Z</time>
      </trkpt>
      <trkpt lat="46.65098" lon="5.99171">
        <ele>839.85</ele>
        <time>2016-06-11T12:22:40Z</time>
      </trkpt>
      <trkpt lat="46.651" lon="5.99185">
        <ele>837.45</ele>
        <time>2016-06-11T12:22:54Z</time>
      </trkpt>
      <trkpt lat="46.65105" lon="5.99197">
        <ele>836</ele>
        <time>2016-06-11T12:23:06Z</time>
      </trkpt>
      <trkpt lat="46.65101" lon="5.99233">
        <ele>839.85</ele>
        <time>2016-06-11T12:23:22Z</time>
      </trkpt>
      <trkpt lat="46.65101" lon="5.99234">
        <ele>839.37</ele>
        <time>2016-06-11T12:23:23Z</time>
      </trkpt>
      <trkpt lat="46.651" lon="5.9924">
        <ele>837.45</ele>
        <time>2016-06-11T12:23:28Z</time>
      </trkpt>
      <trkpt lat="46.65099" lon="5.99248">
        <ele>833.12</ele>
        <time>2016-06-11T12:23:39Z</time>
      </trkpt>
      <trkpt lat="46.65106" lon="5.99258">
        <ele>833.12</ele>
        <time>2016-06-11T12:23:51Z</time>
      </trkpt>
      <trkpt lat="46.65109" lon="5.99269">
        <ele>835.52</ele>
        <time>2016-06-11T12:23:58Z</time>
      </trkpt>
      <trkpt lat="46.65109" lon="5.99283">
        <ele>835.04</ele>
        <time>2016-06-11T12:24:08Z</time>
      </trkpt>
      <trkpt lat="46.65111" lon="5.99291">
        <ele>834.56</ele>
        <time>2016-06-11T12:24:13Z</time>
      </trkpt>
      <trkpt lat="46.65107" lon="5.99309">
        <ele>833.6</ele>
        <time>2016-06-11T12:24:25Z</time>
      </trkpt>
      <trkpt lat="46.65099" lon="5.99322">
        <ele>832.16</ele>
        <time>2016-06-11T12:24:35Z</time>
      </trkpt>
      <trkpt lat="46.65097" lon="5.99328">
        <ele>829.76</ele>
        <time>2016-06-11T12:24:41Z</time>
      </trkpt>
      <trkpt lat="46.65095" lon="5.99332">
        <ele>829.27</ele>
        <time>2016-06-11T12:24:44Z</time>
      </trkpt>
      <trkpt lat="46.65086" lon="5.99358">
        <ele>831.68</ele>
        <time>2016-06-11T12:24:57Z</time>
      </trkpt>
      <trkpt lat="46.65083" lon="5.99363">
        <ele>832.64</ele>
        <time>2016-06-11T12:25:00Z</time>
      </trkpt>
      <trkpt lat="46.65079" lon="5.99368">
        <ele>832.16</ele>
        <time>2016-06-11T12:25:06Z</time>
      </trkpt>
      <trkpt lat="46.65066" lon="5.99379">
        <ele>829.76</ele>
        <time>2016-06-11T12:25:18Z</time>
      </trkpt>
      <trkpt lat="46.65057" lon="5.99394">
        <ele>823.51</ele>
        <time>2016-06-11T12:25:33Z</time>
      </trkpt>
      <trkpt lat="46.65056" lon="5.99412">
        <ele>824.47</ele>
        <time>2016-06-11T12:25:48Z</time>
      </trkpt>
      <trkpt lat="46.65056" lon="5.99415">
        <ele>824.47</ele>
        <time>2016-06-11T12:25:50Z</time>
      </trkpt>
      <trkpt lat="46.65052" lon="5.99438">
        <ele>823.03</ele>
        <time>2016-06-11T12:26:05Z</time>
      </trkpt>
      <trkpt lat="46.65048" lon="5.99451">
        <ele>822.06</ele>
        <time>2016-06-11T12:26:11Z</time>
      </trkpt>
      <trkpt lat="46.6504" lon="5.99475">
        <ele>823.99</ele>
        <time>2016-06-11T12:26:24Z</time>
      </trkpt>
      <trkpt lat="46.65033" lon="5.9949">
        <ele>820.62</ele>
        <time>2016-06-11T12:26:37Z</time>
      </trkpt>
      <trkpt lat="46.65034" lon="5.99496">
        <ele>819.66</ele>
        <time>2016-06-11T12:26:44Z</time>
      </trkpt>
      <trkpt lat="46.65031" lon="5.99521">
        <ele>813.41</ele>
        <time>2016-06-11T12:26:57Z</time>
      </trkpt>
      <trkpt lat="46.65031" lon="5.99523">
        <ele>812.45</ele>
        <time>2016-06-11T12:26:58Z</time>
      </trkpt>
      <trkpt lat="46.65027" lon="5.99536">
        <ele>808.13</ele>
        <time>2016-06-11T12:27:08Z</time>
      </trkpt>
      <trkpt lat="46.65024" lon="5.99551">
        <ele>803.8</ele>
        <time>2016-06-11T12:27:19Z</time>
      </trkpt>
      <trkpt lat="46.65017" lon="5.99572">
        <ele>798.99</ele>
        <time>2016-06-11T12:27:31Z</time>
      </trkpt>
      <trkpt lat="46.65016" lon="5.99589">
        <ele>796.11</ele>
        <time>2016-06-11T12:27:43Z</time>
      </trkpt>
      <trkpt lat="46.65011" lon="5.9961">
        <ele>793.22</ele>
        <time>2016-06-11T12:27:55Z</time>
      </trkpt>
      <trkpt lat="46.65013" lon="5.99634">
        <ele>794.67</ele>
        <time>2016-06-11T12:28:10Z</time>
      </trkpt>
      <trkpt lat="46.65017" lon="5.99649">
        <ele>796.11</ele>
        <time>2016-06-11T12:28:23Z</time>
      </trkpt>
      <trkpt lat="46.65011" lon="5.99671">
        <ele>791.78</ele>
        <time>2016-06-11T12:28:34Z</time>
      </trkpt>
      <trkpt lat="46.65013" lon="5.99694">
        <ele>793.71</ele>
        <time>2016-06-11T12:28:46Z</time>
      </trkpt>
      <trkpt lat="46.65006" lon="5.99709">
        <ele>786.98</ele>
        <time>2016-06-11T12:28:58Z</time>
      </trkpt>
      <trkpt lat="46.64999" lon="5.99727">
        <ele>781.69</ele>
        <time>2016-06-11T12:29:09Z</time>
      </trkpt>
      <trkpt lat="46.64996" lon="5.99738">
        <ele>778.32</ele>
        <time>2016-06-11T12:29:16Z</time>
      </trkpt>
      <trkpt lat="46.64992" lon="5.99758">
        <ele>777.84</ele>
        <time>2016-06-11T12:29:29Z</time>
      </trkpt>
      <trkpt lat="46.64991" lon="5.99775">
        <ele>781.21</ele>
        <time>2016-06-11T12:29:38Z</time>
      </trkpt>
      <trkpt lat="46.64993" lon="5.99801">
        <ele>787.46</ele>
        <time>2016-06-11T12:29:53Z</time>
      </trkpt>
      <trkpt lat="46.64993" lon="5.99825">
        <ele>790.34</ele>
        <time>2016-06-11T12:30:07Z</time>
      </trkpt>
      <trkpt lat="46.64983" lon="5.99849">
        <ele>792.74</ele>
        <time>2016-06-11T12:30:21Z</time>
      </trkpt>
      <trkpt lat="46.64977" lon="5.99857">
        <ele>790.34</ele>
        <time>2016-06-11T12:30:36Z</time>
      </trkpt>
      <trkpt lat="46.64972" lon="5.99874">
        <ele>789.38</ele>
        <time>2016-06-11T12:30:49Z</time>
      </trkpt>
      <trkpt lat="46.64973" lon="5.99876">
        <ele>789.38</ele>
        <time>2016-06-11T12:30:50Z</time>
      </trkpt>
      <trkpt lat="46.64972" lon="5.9988">
        <ele>789.38</ele>
        <time>2016-06-11T12:30:52Z</time>
      </trkpt>
      <trkpt lat="46.64972" lon="5.9989">
        <ele>789.38</ele>
        <time>2016-06-11T12:30:58Z</time>
      </trkpt>
      <trkpt lat="46.64972" lon="5.999">
        <ele>788.42</ele>
        <time>2016-06-11T12:31:03Z</time>
      </trkpt>
      <trkpt lat="46.64974" lon="5.99907">
        <ele>787.94</ele>
        <time>2016-06-11T12:31:07Z</time>
      </trkpt>
      <trkpt lat="46.64974" lon="5.99914">
        <ele>786.5</ele>
        <time>2016-06-11T12:31:11Z</time>
      </trkpt>
      <trkpt lat="46.64975" lon="5.9992">
        <ele>786.5</ele>
        <time>2016-06-11T12:31:14Z</time>
      </trkpt>
      <trkpt lat="46.64976" lon="5.99924">
        <ele>785.53</ele>
        <time>2016-06-11T12:31:17Z</time>
      </trkpt>
      <trkpt lat="46.64978" lon="5.99929">
        <ele>785.53</ele>
        <time>2016-06-11T12:31:20Z</time>
      </trkpt>
      <trkpt lat="46.6498" lon="5.99941">
        <ele>785.05</ele>
        <time>2016-06-11T12:31:27Z</time>
      </trkpt>
      <trkpt lat="46.64983" lon="5.99957">
        <ele>783.61</ele>
        <time>2016-06-11T12:31:37Z</time>
      </trkpt>
      <trkpt lat="46.64982" lon="5.99965">
        <ele>782.17</ele>
        <time>2016-06-11T12:31:42Z</time>
      </trkpt>
      <trkpt lat="46.64982" lon="5.99977">
        <ele>781.69</ele>
        <time>2016-06-11T12:31:47Z</time>
      </trkpt>
      <trkpt lat="46.64982" lon="5.9998">
        <ele>780.73</ele>
        <time>2016-06-11T12:31:49Z</time>
      </trkpt>
      <trkpt lat="46.6498" lon="5.9999">
        <ele>778.81</ele>
        <time>2016-06-11T12:31:54Z</time>
      </trkpt>
      <trkpt lat="46.64979" lon="5.99999">
        <ele>778.81</ele>
        <time>2016-06-11T12:31:58Z</time>
      </trkpt>
      <trkpt lat="46.64978" lon="6.00012">
        <ele>777.84</ele>
        <time>2016-06-11T12:32:05Z</time>
      </trkpt>
      <trkpt lat="46.64985" lon="6.00022">
        <ele>776.88</ele>
        <time>2016-06-11T12:32:13Z</time>
      </trkpt>
      <trkpt lat="46.64987" lon="6.00027">
        <ele>776.4</ele>
        <time>2016-06-11T12:32:16Z</time>
      </trkpt>
      <trkpt lat="46.64991" lon="6.00042">
        <ele>777.36</ele>
        <time>2016-06-11T12:32:25Z</time>
      </trkpt>
      <trkpt lat="46.64994" lon="6.00054">
        <ele>776.88</ele>
        <time>2016-06-11T12:32:31Z</time>
      </trkpt>
      <trkpt lat="46.64994" lon="6.00061">
        <ele>774.96</ele>
        <time>2016-06-11T12:32:35Z</time>
      </trkpt>
      <trkpt lat="46.64995" lon="6.00064">
        <ele>774</ele>
        <time>2016-06-11T12:32:37Z</time>
      </trkpt>
      <trkpt lat="46.64994" lon="6.00067">
        <ele>773.52</ele>
        <time>2016-06-11T12:32:39Z</time>
      </trkpt>
      <trkpt lat="46.64995" lon="6.0007">
        <ele>772.56</ele>
        <time>2016-06-11T12:32:41Z</time>
      </trkpt>
      <trkpt lat="46.64998" lon="6.00078">
        <ele>770.63</ele>
        <time>2016-06-11T12:32:47Z</time>
      </trkpt>
      <trkpt lat="46.64998" lon="6.00088">
        <ele>768.23</ele>
        <time>2016-06-11T12:32:54Z</time>
      </trkpt>
      <trkpt lat="46.64997" lon="6.00096">
        <ele>766.79</ele>
        <time>2016-06-11T12:32:58Z</time>
      </trkpt>
      <trkpt lat="46.64995" lon="6.00109">
        <ele>763.42</ele>
        <time>2016-06-11T12:33:06Z</time>
      </trkpt>
      <trkpt lat="46.64996" lon="6.00119">
        <ele>763.9</ele>
        <time>2016-06-11T12:33:11Z</time>
      </trkpt>
      <trkpt lat="46.65003" lon="6.0014">
        <ele>764.39</ele>
        <time>2016-06-11T12:33:24Z</time>
      </trkpt>
      <trkpt lat="46.65003" lon="6.00147">
        <ele>764.87</ele>
        <time>2016-06-11T12:33:28Z</time>
      </trkpt>
      <trkpt lat="46.65002" lon="6.00151">
        <ele>764.39</ele>
        <time>2016-06-11T12:33:30Z</time>
      </trkpt>
      <trkpt lat="46.65004" lon="6.00158">
        <ele>764.39</ele>
        <time>2016-06-11T12:33:34Z</time>
      </trkpt>
      <trkpt lat="46.65004" lon="6.00166">
        <ele>763.9</ele>
        <time>2016-06-11T12:33:39Z</time>
      </trkpt>
      <trkpt lat="46.65008" lon="6.00186">
        <ele>763.42</ele>
        <time>2016-06-11T12:33:50Z</time>
      </trkpt>
      <trkpt lat="46.6501" lon="6.00196">
        <ele>763.9</ele>
        <time>2016-06-11T12:33:56Z</time>
      </trkpt>
      <trkpt lat="46.65009" lon="6.00203">
        <ele>764.39</ele>
        <time>2016-06-11T12:34:00Z</time>
      </trkpt>
      <trkpt lat="46.65009" lon="6.00207">
        <ele>763.9</ele>
        <time>2016-06-11T12:34:02Z</time>
      </trkpt>
      <trkpt lat="46.65011" lon="6.00213">
        <ele>763.9</ele>
        <time>2016-06-11T12:34:06Z</time>
      </trkpt>
      <trkpt lat="46.6502" lon="6.0024">
        <ele>767.27</ele>
        <time>2016-06-11T12:34:20Z</time>
      </trkpt>
      <trkpt lat="46.65025" lon="6.00256">
        <ele>767.27</ele>
        <time>2016-06-11T12:34:29Z</time>
      </trkpt>
      <trkpt lat="46.65026" lon="6.00277">
        <ele>764.87</ele>
        <time>2016-06-11T12:34:43Z</time>
      </trkpt>
      <trkpt lat="46.65025" lon="6.00284">
        <ele>763.9</ele>
        <time>2016-06-11T12:34:46Z</time>
      </trkpt>
      <trkpt lat="46.65025" lon="6.00297">
        <ele>762.46</ele>
        <time>2016-06-11T12:34:54Z</time>
      </trkpt>
      <trkpt lat="46.65021" lon="6.00311">
        <ele>757.18</ele>
        <time>2016-06-11T12:35:05Z</time>
      </trkpt>
      <trkpt lat="46.65021" lon="6.00314">
        <ele>756.21</ele>
        <time>2016-06-11T12:35:07Z</time>
      </trkpt>
      <trkpt lat="46.65021" lon="6.00321">
        <ele>754.29</ele>
        <time>2016-06-11T12:35:11Z</time>
      </trkpt>
      <trkpt lat="46.65018" lon="6.00336">
        <ele>749</ele>
        <time>2016-06-11T12:35:22Z</time>
      </trkpt>
      <trkpt lat="46.65015" lon="6.00348">
        <ele>744.68</ele>
        <time>2016-06-11T12:35:31Z</time>
      </trkpt>
      <trkpt lat="46.65012" lon="6.0037">
        <ele>745.64</ele>
        <time>2016-06-11T12:35:42Z</time>
      </trkpt>
      <trkpt lat="46.65014" lon="6.00385">
        <ele>747.08</ele>
        <time>2016-06-11T12:35:55Z</time>
      </trkpt>
      <trkpt lat="46.65014" lon="6.00386">
        <ele>747.08</ele>
        <time>2016-06-11T12:35:56Z</time>
      </trkpt>
      <trkpt lat="46.65011" lon="6.00397">
        <ele>748.04</ele>
        <time>2016-06-11T12:36:02Z</time>
      </trkpt>
      <trkpt lat="46.65005" lon="6.00414">
        <ele>748.52</ele>
        <time>2016-06-11T12:36:13Z</time>
      </trkpt>
      <trkpt lat="46.65002" lon="6.00425">
        <ele>749</ele>
        <time>2016-06-11T12:36:20Z</time>
      </trkpt>
      <trkpt lat="46.65" lon="6.00431">
        <ele>749</ele>
        <time>2016-06-11T12:36:23Z</time>
      </trkpt>
      <trkpt lat="46.64996" lon="6.00444">
        <ele>750.93</ele>
        <time>2016-06-11T12:36:30Z</time>
      </trkpt>
      <trkpt lat="46.64991" lon="6.00452">
        <ele>751.89</ele>
        <time>2016-06-11T12:36:34Z</time>
      </trkpt>
      <trkpt lat="46.64983" lon="6.00471">
        <ele>751.41</ele>
        <time>2016-06-11T12:36:45Z</time>
      </trkpt>
      <trkpt lat="46.64975" lon="6.00484">
        <ele>749.97</ele>
        <time>2016-06-11T12:36:56Z</time>
      </trkpt>
      <trkpt lat="46.6497" lon="6.005">
        <ele>747.56</ele>
        <time>2016-06-11T12:37:08Z</time>
      </trkpt>
      <trkpt lat="46.64966" lon="6.00506">
        <ele>746.12</ele>
        <time>2016-06-11T12:37:13Z</time>
      </trkpt>
      <trkpt lat="46.64962" lon="6.0051">
        <ele>745.16</ele>
        <time>2016-06-11T12:37:17Z</time>
      </trkpt>
      <trkpt lat="46.64958" lon="6.0052">
        <ele>743.72</ele>
        <time>2016-06-11T12:37:24Z</time>
      </trkpt>
      <trkpt lat="46.6495" lon="6.00537">
        <ele>744.2</ele>
        <time>2016-06-11T12:37:35Z</time>
      </trkpt>
      <trkpt lat="46.6494" lon="6.00551">
        <ele>743.72</ele>
        <time>2016-06-11T12:37:43Z</time>
      </trkpt>
      <trkpt lat="46.64938" lon="6.00555">
        <ele>743.72</ele>
        <time>2016-06-11T12:37:45Z</time>
      </trkpt>
      <trkpt lat="46.64932" lon="6.00563">
        <ele>742.28</ele>
        <time>2016-06-11T12:37:51Z</time>
      </trkpt>
      <trkpt lat="46.64929" lon="6.0057">
        <ele>740.83</ele>
        <time>2016-06-11T12:37:56Z</time>
      </trkpt>
      <trkpt lat="46.64917" lon="6.00585">
        <ele>740.35</ele>
        <time>2016-06-11T12:38:08Z</time>
      </trkpt>
      <trkpt lat="46.64912" lon="6.00601">
        <ele>740.83</ele>
        <time>2016-06-11T12:38:16Z</time>
      </trkpt>
      <trkpt lat="46.64909" lon="6.00609">
        <ele>740.83</ele>
        <time>2016-06-11T12:38:23Z</time>
      </trkpt>
      <trkpt lat="46.64904" lon="6.00627">
        <ele>743.72</ele>
        <time>2016-06-11T12:38:34Z</time>
      </trkpt>
      <trkpt lat="46.64891" lon="6.00643">
        <ele>742.76</ele>
        <time>2016-06-11T12:38:45Z</time>
      </trkpt>
      <trkpt lat="46.64885" lon="6.00654">
        <ele>739.39</ele>
        <time>2016-06-11T12:38:54Z</time>
      </trkpt>
      <trkpt lat="46.64872" lon="6.00668">
        <ele>737.95</ele>
        <time>2016-06-11T12:39:07Z</time>
      </trkpt>
      <trkpt lat="46.64859" lon="6.0068">
        <ele>736.51</ele>
        <time>2016-06-11T12:39:20Z</time>
      </trkpt>
      <trkpt lat="46.6485" lon="6.00688">
        <ele>735.55</ele>
        <time>2016-06-11T12:39:27Z</time>
      </trkpt>
      <trkpt lat="46.64839" lon="6.00699">
        <ele>734.1</ele>
        <time>2016-06-11T12:39:38Z</time>
      </trkpt>
      <trkpt lat="46.6483" lon="6.00709">
        <ele>733.14</ele>
        <time>2016-06-11T12:39:48Z</time>
      </trkpt>
      <trkpt lat="46.64819" lon="6.00722">
        <ele>730.74</ele>
        <time>2016-06-11T12:39:59Z</time>
      </trkpt>
      <trkpt lat="46.64811" lon="6.00731">
        <ele>729.78</ele>
        <time>2016-06-11T12:40:11Z</time>
      </trkpt>
      <trkpt lat="46.64808" lon="6.00735">
        <ele>729.78</ele>
        <time>2016-06-11T12:40:24Z</time>
      </trkpt>
      <trkpt lat="46.64807" lon="6.00736">
        <ele>729.3</ele>
        <time>2016-06-11T12:40:34Z</time>
      </trkpt>
      <trkpt lat="46.64805" lon="6.00744">
        <ele>727.86</ele>
        <time>2016-06-11T12:40:38Z</time>
      </trkpt>
      <trkpt lat="46.64802" lon="6.00758">
        <ele>725.93</ele>
        <time>2016-06-11T12:40:47Z</time>
      </trkpt>
      <trkpt lat="46.64802" lon="6.00773">
        <ele>724.49</ele>
        <time>2016-06-11T12:40:58Z</time>
      </trkpt>
      <trkpt lat="46.64806" lon="6.00785">
        <ele>725.45</ele>
        <time>2016-06-11T12:41:04Z</time>
      </trkpt>
      <trkpt lat="46.6481" lon="6.0081">
        <ele>727.37</ele>
        <time>2016-06-11T12:41:18Z</time>
      </trkpt>
      <trkpt lat="46.64811" lon="6.00813">
        <ele>727.86</ele>
        <time>2016-06-11T12:41:20Z</time>
      </trkpt>
      <trkpt lat="46.64816" lon="6.00819">
        <ele>729.78</ele>
        <time>2016-06-11T12:41:25Z</time>
      </trkpt>
      <trkpt lat="46.64815" lon="6.00848">
        <ele>730.74</ele>
        <time>2016-06-11T12:41:39Z</time>
      </trkpt>
      <trkpt lat="46.6482" lon="6.0087">
        <ele>731.22</ele>
        <time>2016-06-11T12:41:53Z</time>
      </trkpt>
      <trkpt lat="46.6482" lon="6.00877">
        <ele>731.22</ele>
        <time>2016-06-11T12:41:58Z</time>
      </trkpt>
      <trkpt lat="46.64827" lon="6.009">
        <ele>730.74</ele>
        <time>2016-06-11T12:42:11Z</time>
      </trkpt>
      <trkpt lat="46.64828" lon="6.00905">
        <ele>730.26</ele>
        <time>2016-06-11T12:42:14Z</time>
      </trkpt>
      <trkpt lat="46.64831" lon="6.00925">
        <ele>729.3</ele>
        <time>2016-06-11T12:42:26Z</time>
      </trkpt>
      <trkpt lat="46.64835" lon="6.00946">
        <ele>729.3</ele>
        <time>2016-06-11T12:42:38Z</time>
      </trkpt>
      <trkpt lat="46.64838" lon="6.00955">
        <ele>728.34</ele>
        <time>2016-06-11T12:42:47Z</time>
      </trkpt>
      <trkpt lat="46.6484" lon="6.00964">
        <ele>728.34</ele>
        <time>2016-06-11T12:42:59Z</time>
      </trkpt>
      <trkpt lat="46.64841" lon="6.00965">
        <ele>728.82</ele>
        <time>2016-06-11T12:43:01Z</time>
      </trkpt>
      <trkpt lat="46.64855" lon="6.00976">
        <ele>730.26</ele>
        <time>2016-06-11T12:43:14Z</time>
      </trkpt>
      <trkpt lat="46.64859" lon="6.00978">
        <ele>730.26</ele>
        <time>2016-06-11T12:43:18Z</time>
      </trkpt>
      <trkpt lat="46.64867" lon="6.00983">
        <ele>730.74</ele>
        <time>2016-06-11T12:43:30Z</time>
      </trkpt>
      <trkpt lat="46.64866" lon="6.00983">
        <ele>729.3</ele>
        <time>2016-06-11T12:43:57Z</time>
      </trkpt>
      <trkpt lat="46.64863" lon="6.00981">
        <ele>729.3</ele>
        <time>2016-06-11T12:44:15Z</time>
      </trkpt>
      <trkpt lat="46.64859" lon="6.00979">
        <ele>729.3</ele>
        <time>2016-06-11T12:44:19Z</time>
      </trkpt>
      <trkpt lat="46.64855" lon="6.00976">
        <ele>729.3</ele>
        <time>2016-06-11T12:44:23Z</time>
      </trkpt>
      <trkpt lat="46.64848" lon="6.00972">
        <ele>730.74</ele>
        <time>2016-06-11T12:44:38Z</time>
      </trkpt>
      <trkpt lat="46.64848" lon="6.00974">
        <ele>730.26</ele>
        <time>2016-06-11T12:45:06Z</time>
      </trkpt>
      <trkpt lat="46.64848" lon="6.00973">
        <ele>730.26</ele>
        <time>2016-06-11T12:45:18Z</time>
      </trkpt>
      <trkpt lat="46.6485" lon="6.00975">
        <ele>730.74</ele>
        <time>2016-06-11T12:45:29Z</time>
      </trkpt>
      <trkpt lat="46.64857" lon="6.00978">
        <ele>730.26</ele>
        <time>2016-06-11T12:45:39Z</time>
      </trkpt>
      <trkpt lat="46.64872" lon="6.00987">
        <ele>731.22</ele>
        <time>2016-06-11T12:45:54Z</time>
      </trkpt>
      <trkpt lat="46.64887" lon="6.00995">
        <ele>732.66</ele>
        <time>2016-06-11T12:46:07Z</time>
      </trkpt>
      <trkpt lat="46.64894" lon="6.00997">
        <ele>732.66</ele>
        <time>2016-06-11T12:46:13Z</time>
      </trkpt>
      <trkpt lat="46.64914" lon="6.01009">
        <ele>730.26</ele>
        <time>2016-06-11T12:46:29Z</time>
      </trkpt>
      <trkpt lat="46.6493" lon="6.01015">
        <ele>730.26</ele>
        <time>2016-06-11T12:46:41Z</time>
      </trkpt>
      <trkpt lat="46.64935" lon="6.01015">
        <ele>730.26</ele>
        <time>2016-06-11T12:46:44Z</time>
      </trkpt>
      <trkpt lat="46.64939" lon="6.01018">
        <ele>729.78</ele>
        <time>2016-06-11T12:46:48Z</time>
      </trkpt>
      <trkpt lat="46.64949" lon="6.0102">
        <ele>730.26</ele>
        <time>2016-06-11T12:46:56Z</time>
      </trkpt>
      <trkpt lat="46.64952" lon="6.01021">
        <ele>730.26</ele>
        <time>2016-06-11T12:46:59Z</time>
      </trkpt>
      <trkpt lat="46.6496" lon="6.01023">
        <ele>730.74</ele>
        <time>2016-06-11T12:47:05Z</time>
      </trkpt>
      <trkpt lat="46.64962" lon="6.01023">
        <ele>731.22</ele>
        <time>2016-06-11T12:47:07Z</time>
      </trkpt>
      <trkpt lat="46.64975" lon="6.01026">
        <ele>732.66</ele>
        <time>2016-06-11T12:47:21Z</time>
      </trkpt>
      <trkpt lat="46.64985" lon="6.01025">
        <ele>733.62</ele>
        <time>2016-06-11T12:47:28Z</time>
      </trkpt>
      <trkpt lat="46.65003" lon="6.01025">
        <ele>732.18</ele>
        <time>2016-06-11T12:47:42Z</time>
      </trkpt>
      <trkpt lat="46.6501" lon="6.01027">
        <ele>730.74</ele>
        <time>2016-06-11T12:47:48Z</time>
      </trkpt>
      <trkpt lat="46.65021" lon="6.0103">
        <ele>730.74</ele>
        <time>2016-06-11T12:47:57Z</time>
      </trkpt>
      <trkpt lat="46.65025" lon="6.0103">
        <ele>730.26</ele>
        <time>2016-06-11T12:48:01Z</time>
      </trkpt>
      <trkpt lat="46.65032" lon="6.01031">
        <ele>729.3</ele>
        <time>2016-06-11T12:48:06Z</time>
      </trkpt>
      <trkpt lat="46.65051" lon="6.01033">
        <ele>729.3</ele>
        <time>2016-06-11T12:48:21Z</time>
      </trkpt>
      <trkpt lat="46.65072" lon="6.01035">
        <ele>729.3</ele>
        <time>2016-06-11T12:48:36Z</time>
      </trkpt>
      <trkpt lat="46.65081" lon="6.01035">
        <ele>729.78</ele>
        <time>2016-06-11T12:48:44Z</time>
      </trkpt>
      <trkpt lat="46.651" lon="6.01038">
        <ele>731.22</ele>
        <time>2016-06-11T12:49:01Z</time>
      </trkpt>
      <trkpt lat="46.6512" lon="6.01044">
        <ele>732.18</ele>
        <time>2016-06-11T12:49:18Z</time>
      </trkpt>
      <trkpt lat="46.65124" lon="6.01048">
        <ele>730.74</ele>
        <time>2016-06-11T12:49:35Z</time>
      </trkpt>
      <trkpt lat="46.65121" lon="6.01048">
        <ele>730.74</ele>
        <time>2016-06-11T12:49:56Z</time>
      </trkpt>
      <trkpt lat="46.65121" lon="6.01049">
        <ele>730.26</ele>
        <time>2016-06-11T12:50:13Z</time>
      </trkpt>
      <trkpt lat="46.65122" lon="6.0105">
        <ele>729.3</ele>
        <time>2016-06-11T12:50:32Z</time>
      </trkpt>
      <trkpt lat="46.65121" lon="6.01051">
        <ele>729.3</ele>
        <time>2016-06-11T12:51:06Z</time>
      </trkpt>
      <trkpt lat="46.65122" lon="6.01051">
        <ele>729.78</ele>
        <time>2016-06-11T12:51:40Z</time>
      </trkpt>
      <trkpt lat="46.65123" lon="6.0105">
        <ele>730.26</ele>
        <time>2016-06-11T12:52:17Z</time>
      </trkpt>
      <trkpt lat="46.65123" lon="6.0105">
        <ele>730.26</ele>
        <time>2016-06-11T12:52:51Z</time>
      </trkpt>
      <trkpt lat="46.65123" lon="6.0105">
        <ele>730.74</ele>
        <time>2016-06-11T12:53:24Z</time>
      </trkpt>
      <trkpt lat="46.65123" lon="6.01051">
        <ele>730.74</ele>
        <time>2016-06-11T12:53:58Z</time>
      </trkpt>
      <trkpt lat="46.65123" lon="6.0105">
        <ele>730.26</ele>
        <time>2016-06-11T12:54:29Z</time>
      </trkpt>
      <trkpt lat="46.65123" lon="6.01051">
        <ele>730.26</ele>
        <time>2016-06-11T12:55:04Z</time>
      </trkpt>
      <trkpt lat="46.65123" lon="6.01052">
        <ele>729.78</ele>
        <time>2016-06-11T12:55:39Z</time>
      </trkpt>
      <trkpt lat="46.65123" lon="6.01051">
        <ele>729.78</ele>
        <time>2016-06-11T12:56:15Z</time>
      </trkpt>
      <trkpt lat="46.65123" lon="6.01052">
        <ele>729.78</ele>
        <time>2016-06-11T12:56:50Z</time>
      </trkpt>
      <trkpt lat="46.65154" lon="6.01051">
        <ele>705.75</ele>
        <time>2016-06-11T12:58:59Z</time>
      </trkpt>
      <trkpt lat="46.65121" lon="6.01049">
        <ele>720.65</ele>
        <time>2016-06-11T12:59:20Z</time>
      </trkpt>
      <trkpt lat="46.65123" lon="6.01048">
        <ele>723.53</ele>
        <time>2016-06-11T12:59:39Z</time>
      </trkpt>
      <trkpt lat="46.65122" lon="6.01048">
        <ele>730.74</ele>
        <time>2016-06-11T12:59:59Z</time>
      </trkpt>
      <trkpt lat="46.65119" lon="6.01048">
        <ele>729.78</ele>
        <time>2016-06-11T13:00:27Z</time>
      </trkpt>
      <trkpt lat="46.6512" lon="6.01049">
        <ele>730.26</ele>
        <time>2016-06-11T13:00:45Z</time>
      </trkpt>
      <trkpt lat="46.6512" lon="6.01049">
        <ele>730.26</ele>
        <time>2016-06-11T13:01:04Z</time>
      </trkpt>
      <trkpt lat="46.6512" lon="6.01049">
        <ele>729.78</ele>
        <time>2016-06-11T13:01:23Z</time>
      </trkpt>
      <trkpt lat="46.6512" lon="6.01049">
        <ele>730.26</ele>
        <time>2016-06-11T13:01:54Z</time>
      </trkpt>
      <trkpt lat="46.6512" lon="6.0105">
        <ele>730.74</ele>
        <time>2016-06-11T13:02:29Z</time>
      </trkpt>
      <trkpt lat="46.6512" lon="6.01049">
        <ele>731.22</ele>
        <time>2016-06-11T13:03:01Z</time>
      </trkpt>
      <trkpt lat="46.65121" lon="6.01049">
        <ele>731.22</ele>
        <time>2016-06-11T13:03:40Z</time>
      </trkpt>
      <trkpt lat="46.65121" lon="6.01048">
        <ele>731.22</ele>
        <time>2016-06-11T13:04:17Z</time>
      </trkpt>
      <trkpt lat="46.65121" lon="6.01047">
        <ele>731.22</ele>
        <time>2016-06-11T13:04:55Z</time>
      </trkpt>
      <trkpt lat="46.65122" lon="6.01048">
        <ele>731.22</ele>
        <time>2016-06-11T13:05:28Z</time>
      </trkpt>
      <trkpt lat="46.65122" lon="6.01048">
        <ele>731.22</ele>
        <time>2016-06-11T13:06:03Z</time>
      </trkpt>
      <trkpt lat="46.65122" lon="6.01048">
        <ele>731.22</ele>
        <time>2016-06-11T13:06:42Z</time>
      </trkpt>
      <trkpt lat="46.65122" lon="6.01048">
        <ele>730.74</ele>
        <time>2016-06-11T13:07:17Z</time>
      </trkpt>
      <trkpt lat="46.65122" lon="6.01048">
        <ele>729.3</ele>
        <time>2016-06-11T13:07:53Z</time>
      </trkpt>
      <trkpt lat="46.65122" lon="6.01048">
        <ele>728.82</ele>
        <time>2016-06-11T13:08:30Z</time>
      </trkpt>
      <trkpt lat="46.65122" lon="6.01047">
        <ele>727.37</ele>
        <time>2016-06-11T13:09:06Z</time>
      </trkpt>
      <trkpt lat="46.65122" lon="6.01047">
        <ele>727.86</ele>
        <time>2016-06-11T13:09:35Z</time>
      </trkpt>
      <trkpt lat="46.65122" lon="6.01046">
        <ele>727.86</ele>
        <time>2016-06-11T13:10:08Z</time>
      </trkpt>
      <trkpt lat="46.65122" lon="6.01047">
        <ele>727.86</ele>
        <time>2016-06-11T13:10:40Z</time>
      </trkpt>
      <trkpt lat="46.65122" lon="6.01046">
        <ele>728.34</ele>
        <time>2016-06-11T13:11:07Z</time>
      </trkpt>
      <trkpt lat="46.65121" lon="6.01046">
        <ele>729.78</ele>
        <time>2016-06-11T13:11:33Z</time>
      </trkpt>
      <trkpt lat="46.65121" lon="6.01046">
        <ele>730.26</ele>
        <time>2016-06-11T13:12:01Z</time>
      </trkpt>
      <trkpt lat="46.65121" lon="6.01046">
        <ele>730.26</ele>
        <time>2016-06-11T13:12:32Z</time>
      </trkpt>
      <trkpt lat="46.65121" lon="6.01047">
        <ele>730.74</ele>
        <time>2016-06-11T13:12:55Z</time>
      </trkpt>
      <trkpt lat="46.65127" lon="6.01042">
        <ele>729.78</ele>
        <time>2016-06-11T13:13:11Z</time>
      </trkpt>
      <trkpt lat="46.65139" lon="6.01038">
        <ele>729.3</ele>
        <time>2016-06-11T13:13:25Z</time>
      </trkpt>
      <trkpt lat="46.65156" lon="6.01031">
        <ele>729.78</ele>
        <time>2016-06-11T13:13:42Z</time>
      </trkpt>
      <trkpt lat="46.65174" lon="6.01023">
        <ele>732.18</ele>
        <time>2016-06-11T13:13:58Z</time>
      </trkpt>
      <trkpt lat="46.65189" lon="6.01017">
        <ele>732.18</ele>
        <time>2016-06-11T13:14:11Z</time>
      </trkpt>
      <trkpt lat="46.65197" lon="6.01015">
        <ele>732.66</ele>
        <time>2016-06-11T13:14:21Z</time>
      </trkpt>
      <trkpt lat="46.65202" lon="6.01006">
        <ele>733.14</ele>
        <time>2016-06-11T13:14:33Z</time>
      </trkpt>
      <trkpt lat="46.65205" lon="6.01004">
        <ele>732.18</ele>
        <time>2016-06-11T13:14:46Z</time>
      </trkpt>
      <trkpt lat="46.65206" lon="6.01009">
        <ele>731.7</ele>
        <time>2016-06-11T13:14:53Z</time>
      </trkpt>
      <trkpt lat="46.65201" lon="6.01027">
        <ele>732.66</ele>
        <time>2016-06-11T13:15:04Z</time>
      </trkpt>
      <trkpt lat="46.65195" lon="6.01042">
        <ele>733.14</ele>
        <time>2016-06-11T13:15:14Z</time>
      </trkpt>
      <trkpt lat="46.65186" lon="6.01051">
        <ele>734.1</ele>
        <time>2016-06-11T13:15:26Z</time>
      </trkpt>
      <trkpt lat="46.65177" lon="6.0106">
        <ele>736.51</ele>
        <time>2016-06-11T13:15:38Z</time>
      </trkpt>
      <trkpt lat="46.65168" lon="6.01063">
        <ele>739.39</ele>
        <time>2016-06-11T13:15:54Z</time>
      </trkpt>
      <trkpt lat="46.65165" lon="6.01065">
        <ele>739.87</ele>
        <time>2016-06-11T13:15:57Z</time>
      </trkpt>
      <trkpt lat="46.65161" lon="6.01068">
        <ele>740.35</ele>
        <time>2016-06-11T13:16:02Z</time>
      </trkpt>
      <trkpt lat="46.6515" lon="6.01077">
        <ele>739.39</ele>
        <time>2016-06-11T13:16:16Z</time>
      </trkpt>
      <trkpt lat="46.65144" lon="6.0108">
        <ele>737.95</ele>
        <time>2016-06-11T13:16:26Z</time>
      </trkpt>
      <trkpt lat="46.65131" lon="6.01086">
        <ele>737.47</ele>
        <time>2016-06-11T13:16:38Z</time>
      </trkpt>
      <trkpt lat="46.65118" lon="6.01102">
        <ele>736.51</ele>
        <time>2016-06-11T13:16:55Z</time>
      </trkpt>
      <trkpt lat="46.65112" lon="6.01108">
        <ele>735.55</ele>
        <time>2016-06-11T13:17:13Z</time>
      </trkpt>
      <trkpt lat="46.65108" lon="6.01111">
        <ele>737.47</ele>
        <time>2016-06-11T13:17:29Z</time>
      </trkpt>
      <trkpt lat="46.65101" lon="6.01115">
        <ele>738.91</ele>
        <time>2016-06-11T13:17:37Z</time>
      </trkpt>
      <trkpt lat="46.65091" lon="6.01125">
        <ele>735.55</ele>
        <time>2016-06-11T13:17:50Z</time>
      </trkpt>
      <trkpt lat="46.65077" lon="6.01138">
        <ele>737.95</ele>
        <time>2016-06-11T13:18:04Z</time>
      </trkpt>
      <trkpt lat="46.65061" lon="6.01153">
        <ele>740.83</ele>
        <time>2016-06-11T13:18:20Z</time>
      </trkpt>
      <trkpt lat="46.65057" lon="6.01157">
        <ele>741.31</ele>
        <time>2016-06-11T13:18:24Z</time>
      </trkpt>
      <trkpt lat="46.65041" lon="6.01177">
        <ele>742.76</ele>
        <time>2016-06-11T13:18:39Z</time>
      </trkpt>
      <trkpt lat="46.6503" lon="6.01188">
        <ele>742.28</ele>
        <time>2016-06-11T13:18:51Z</time>
      </trkpt>
      <trkpt lat="46.65016" lon="6.01208">
        <ele>743.72</ele>
        <time>2016-06-11T13:19:08Z</time>
      </trkpt>
      <trkpt lat="46.65011" lon="6.01228">
        <ele>745.64</ele>
        <time>2016-06-11T13:19:24Z</time>
      </trkpt>
      <trkpt lat="46.65003" lon="6.01249">
        <ele>745.16</ele>
        <time>2016-06-11T13:19:42Z</time>
      </trkpt>
      <trkpt lat="46.64993" lon="6.01275">
        <ele>743.72</ele>
        <time>2016-06-11T13:19:57Z</time>
      </trkpt>
      <trkpt lat="46.6499" lon="6.01287">
        <ele>743.72</ele>
        <time>2016-06-11T13:20:05Z</time>
      </trkpt>
      <trkpt lat="46.64982" lon="6.01307">
        <ele>744.2</ele>
        <time>2016-06-11T13:20:19Z</time>
      </trkpt>
      <trkpt lat="46.64975" lon="6.01328">
        <ele>745.16</ele>
        <time>2016-06-11T13:20:32Z</time>
      </trkpt>
      <trkpt lat="46.64964" lon="6.01355">
        <ele>743.72</ele>
        <time>2016-06-11T13:20:46Z</time>
      </trkpt>
      <trkpt lat="46.64963" lon="6.01361">
        <ele>743.24</ele>
        <time>2016-06-11T13:20:49Z</time>
      </trkpt>
      <trkpt lat="46.64961" lon="6.01365">
        <ele>743.24</ele>
        <time>2016-06-11T13:20:52Z</time>
      </trkpt>
      <trkpt lat="46.64961" lon="6.01367">
        <ele>743.24</ele>
        <time>2016-06-11T13:20:54Z</time>
      </trkpt>
      <trkpt lat="46.64953" lon="6.01395">
        <ele>742.76</ele>
        <time>2016-06-11T13:21:10Z</time>
      </trkpt>
      <trkpt lat="46.6495" lon="6.01405">
        <ele>743.24</ele>
        <time>2016-06-11T13:21:18Z</time>
      </trkpt>
      <trkpt lat="46.64948" lon="6.01409">
        <ele>743.72</ele>
        <time>2016-06-11T13:21:21Z</time>
      </trkpt>
      <trkpt lat="46.64943" lon="6.01421">
        <ele>744.2</ele>
        <time>2016-06-11T13:21:28Z</time>
      </trkpt>
      <trkpt lat="46.64935" lon="6.01443">
        <ele>745.16</ele>
        <time>2016-06-11T13:21:42Z</time>
      </trkpt>
      <trkpt lat="46.64928" lon="6.0146">
        <ele>744.2</ele>
        <time>2016-06-11T13:21:54Z</time>
      </trkpt>
      <trkpt lat="46.64925" lon="6.01473">
        <ele>743.72</ele>
        <time>2016-06-11T13:22:04Z</time>
      </trkpt>
      <trkpt lat="46.64924" lon="6.01475">
        <ele>743.72</ele>
        <time>2016-06-11T13:22:05Z</time>
      </trkpt>
      <trkpt lat="46.64917" lon="6.0149">
        <ele>742.28</ele>
        <time>2016-06-11T13:22:16Z</time>
      </trkpt>
      <trkpt lat="46.64912" lon="6.01505">
        <ele>740.83</ele>
        <time>2016-06-11T13:22:28Z</time>
      </trkpt>
      <trkpt lat="46.64907" lon="6.01524">
        <ele>740.83</ele>
        <time>2016-06-11T13:22:42Z</time>
      </trkpt>
      <trkpt lat="46.64897" lon="6.01547">
        <ele>743.24</ele>
        <time>2016-06-11T13:22:57Z</time>
      </trkpt>
      <trkpt lat="46.64894" lon="6.01555">
        <ele>744.2</ele>
        <time>2016-06-11T13:23:02Z</time>
      </trkpt>
      <trkpt lat="46.64885" lon="6.01573">
        <ele>746.6</ele>
        <time>2016-06-11T13:23:15Z</time>
      </trkpt>
      <trkpt lat="46.64881" lon="6.01585">
        <ele>748.04</ele>
        <time>2016-06-11T13:23:25Z</time>
      </trkpt>
      <trkpt lat="46.64877" lon="6.01607">
        <ele>749.97</ele>
        <time>2016-06-11T13:23:37Z</time>
      </trkpt>
      <trkpt lat="46.64874" lon="6.01612">
        <ele>750.45</ele>
        <time>2016-06-11T13:23:40Z</time>
      </trkpt>
      <trkpt lat="46.64868" lon="6.01628">
        <ele>751.89</ele>
        <time>2016-06-11T13:23:52Z</time>
      </trkpt>
      <trkpt lat="46.64864" lon="6.01637">
        <ele>750.45</ele>
        <time>2016-06-11T13:24:00Z</time>
      </trkpt>
      <trkpt lat="46.64853" lon="6.01661">
        <ele>749.49</ele>
        <time>2016-06-11T13:24:13Z</time>
      </trkpt>
      <trkpt lat="46.64851" lon="6.01664">
        <ele>748.04</ele>
        <time>2016-06-11T13:24:16Z</time>
      </trkpt>
      <trkpt lat="46.6485" lon="6.01665">
        <ele>747.56</ele>
        <time>2016-06-11T13:24:18Z</time>
      </trkpt>
      <trkpt lat="46.6484" lon="6.0168">
        <ele>745.64</ele>
        <time>2016-06-11T13:24:33Z</time>
      </trkpt>
      <trkpt lat="46.64832" lon="6.01696">
        <ele>743.72</ele>
        <time>2016-06-11T13:24:45Z</time>
      </trkpt>
      <trkpt lat="46.64829" lon="6.01699">
        <ele>744.2</ele>
        <time>2016-06-11T13:24:48Z</time>
      </trkpt>
      <trkpt lat="46.64819" lon="6.01722">
        <ele>750.93</ele>
        <time>2016-06-11T13:25:00Z</time>
      </trkpt>
      <trkpt lat="46.64812" lon="6.01741">
        <ele>757.66</ele>
        <time>2016-06-11T13:25:12Z</time>
      </trkpt>
      <trkpt lat="46.64801" lon="6.0176">
        <ele>762.94</ele>
        <time>2016-06-11T13:25:25Z</time>
      </trkpt>
      <trkpt lat="46.64806" lon="6.01779">
        <ele>760.54</ele>
        <time>2016-06-11T13:25:38Z</time>
      </trkpt>
      <trkpt lat="46.64813" lon="6.01798">
        <ele>761.02</ele>
        <time>2016-06-11T13:25:51Z</time>
      </trkpt>
      <trkpt lat="46.64817" lon="6.01816">
        <ele>761.5</ele>
        <time>2016-06-11T13:26:05Z</time>
      </trkpt>
      <trkpt lat="46.64819" lon="6.01826">
        <ele>761.02</ele>
        <time>2016-06-11T13:26:15Z</time>
      </trkpt>
      <trkpt lat="46.64825" lon="6.01832">
        <ele>761.98</ele>
        <time>2016-06-11T13:26:21Z</time>
      </trkpt>
      <trkpt lat="46.64827" lon="6.01838">
        <ele>762.94</ele>
        <time>2016-06-11T13:26:26Z</time>
      </trkpt>
      <trkpt lat="46.64832" lon="6.01845">
        <ele>764.87</ele>
        <time>2016-06-11T13:26:33Z</time>
      </trkpt>
      <trkpt lat="46.64833" lon="6.01855">
        <ele>769.67</ele>
        <time>2016-06-11T13:26:43Z</time>
      </trkpt>
      <trkpt lat="46.64829" lon="6.01865">
        <ele>770.15</ele>
        <time>2016-06-11T13:26:52Z</time>
      </trkpt>
      <trkpt lat="46.64822" lon="6.01874">
        <ele>768.71</ele>
        <time>2016-06-11T13:27:01Z</time>
      </trkpt>
      <trkpt lat="46.64828" lon="6.01897">
        <ele>764.87</ele>
        <time>2016-06-11T13:27:14Z</time>
      </trkpt>
      <trkpt lat="46.64829" lon="6.01908">
        <ele>762.94</ele>
        <time>2016-06-11T13:27:23Z</time>
      </trkpt>
      <trkpt lat="46.64829" lon="6.0191">
        <ele>762.94</ele>
        <time>2016-06-11T13:27:25Z</time>
      </trkpt>
      <trkpt lat="46.64828" lon="6.01926">
        <ele>763.42</ele>
        <time>2016-06-11T13:27:39Z</time>
      </trkpt>
      <trkpt lat="46.64829" lon="6.01937">
        <ele>764.39</ele>
        <time>2016-06-11T13:27:51Z</time>
      </trkpt>
      <trkpt lat="46.64826" lon="6.0195">
        <ele>769.19</ele>
        <time>2016-06-11T13:28:00Z</time>
      </trkpt>
      <trkpt lat="46.64818" lon="6.01951">
        <ele>772.08</ele>
        <time>2016-06-11T13:28:15Z</time>
      </trkpt>
      <trkpt lat="46.64813" lon="6.01941">
        <ele>774</ele>
        <time>2016-06-11T13:28:28Z</time>
      </trkpt>
      <trkpt lat="46.64802" lon="6.01932">
        <ele>776.4</ele>
        <time>2016-06-11T13:28:38Z</time>
      </trkpt>
      <trkpt lat="46.64789" lon="6.01931">
        <ele>779.29</ele>
        <time>2016-06-11T13:28:51Z</time>
      </trkpt>
      <trkpt lat="46.64779" lon="6.01943">
        <ele>780.73</ele>
        <time>2016-06-11T13:29:06Z</time>
      </trkpt>
      <trkpt lat="46.64772" lon="6.01956">
        <ele>780.25</ele>
        <time>2016-06-11T13:29:19Z</time>
      </trkpt>
      <trkpt lat="46.64762" lon="6.01963">
        <ele>781.69</ele>
        <time>2016-06-11T13:29:31Z</time>
      </trkpt>
      <trkpt lat="46.64749" lon="6.01968">
        <ele>785.05</ele>
        <time>2016-06-11T13:29:47Z</time>
      </trkpt>
      <trkpt lat="46.64738" lon="6.01975">
        <ele>787.94</ele>
        <time>2016-06-11T13:29:59Z</time>
      </trkpt>
      <trkpt lat="46.64731" lon="6.01978">
        <ele>788.9</ele>
        <time>2016-06-11T13:30:16Z</time>
      </trkpt>
      <trkpt lat="46.64727" lon="6.0198">
        <ele>788.9</ele>
        <time>2016-06-11T13:30:34Z</time>
      </trkpt>
      <trkpt lat="46.64724" lon="6.01979">
        <ele>788.42</ele>
        <time>2016-06-11T13:30:45Z</time>
      </trkpt>
      <trkpt lat="46.64718" lon="6.01983">
        <ele>789.38</ele>
        <time>2016-06-11T13:30:58Z</time>
      </trkpt>
      <trkpt lat="46.64711" lon="6.01988">
        <ele>790.34</ele>
        <time>2016-06-11T13:31:11Z</time>
      </trkpt>
      <trkpt lat="46.64709" lon="6.01993">
        <ele>789.86</ele>
        <time>2016-06-11T13:31:24Z</time>
      </trkpt>
      <trkpt lat="46.64705" lon="6.02003">
        <ele>790.34</ele>
        <time>2016-06-11T13:31:33Z</time>
      </trkpt>
      <trkpt lat="46.64702" lon="6.02026">
        <ele>792.26</ele>
        <time>2016-06-11T13:31:46Z</time>
      </trkpt>
      <trkpt lat="46.64701" lon="6.02028">
        <ele>792.74</ele>
        <time>2016-06-11T13:31:47Z</time>
      </trkpt>
      <trkpt lat="46.64699" lon="6.0205">
        <ele>795.15</ele>
        <time>2016-06-11T13:32:02Z</time>
      </trkpt>
      <trkpt lat="46.64698" lon="6.0207">
        <ele>796.59</ele>
        <time>2016-06-11T13:32:15Z</time>
      </trkpt>
      <trkpt lat="46.64698" lon="6.02075">
        <ele>797.07</ele>
        <time>2016-06-11T13:32:30Z</time>
      </trkpt>
      <trkpt lat="46.64698" lon="6.02075">
        <ele>796.59</ele>
        <time>2016-06-11T13:32:49Z</time>
      </trkpt>
      <trkpt lat="46.64699" lon="6.02075">
        <ele>797.07</ele>
        <time>2016-06-11T13:33:10Z</time>
      </trkpt>
      <trkpt lat="46.64698" lon="6.02074">
        <ele>796.59</ele>
        <time>2016-06-11T13:33:38Z</time>
      </trkpt>
      <trkpt lat="46.64698" lon="6.02074">
        <ele>796.59</ele>
        <time>2016-06-11T13:34:00Z</time>
      </trkpt>
      <trkpt lat="46.64698" lon="6.02074">
        <ele>796.11</ele>
        <time>2016-06-11T13:34:17Z</time>
      </trkpt>
      <trkpt lat="46.64697" lon="6.02078">
        <ele>796.59</ele>
        <time>2016-06-11T13:34:31Z</time>
      </trkpt>
      <trkpt lat="46.64697" lon="6.02081">
        <ele>796.59</ele>
        <time>2016-06-11T13:34:33Z</time>
      </trkpt>
      <trkpt lat="46.64698" lon="6.02084">
        <ele>796.59</ele>
        <time>2016-06-11T13:34:35Z</time>
      </trkpt>
      <trkpt lat="46.64698" lon="6.02088">
        <ele>797.55</ele>
        <time>2016-06-11T13:34:38Z</time>
      </trkpt>
      <trkpt lat="46.64697" lon="6.02097">
        <ele>797.55</ele>
        <time>2016-06-11T13:34:44Z</time>
      </trkpt>
      <trkpt lat="46.64692" lon="6.02112">
        <ele>796.59</ele>
        <time>2016-06-11T13:34:54Z</time>
      </trkpt>
      <trkpt lat="46.64688" lon="6.02129">
        <ele>793.71</ele>
        <time>2016-06-11T13:35:08Z</time>
      </trkpt>
      <trkpt lat="46.64688" lon="6.02143">
        <ele>794.19</ele>
        <time>2016-06-11T13:35:15Z</time>
      </trkpt>
      <trkpt lat="46.64683" lon="6.02157">
        <ele>797.07</ele>
        <time>2016-06-11T13:35:26Z</time>
      </trkpt>
      <trkpt lat="46.6468" lon="6.02171">
        <ele>798.03</ele>
        <time>2016-06-11T13:35:44Z</time>
      </trkpt>
      <trkpt lat="46.64678" lon="6.02179">
        <ele>798.99</ele>
        <time>2016-06-11T13:35:49Z</time>
      </trkpt>
      <trkpt lat="46.64679" lon="6.02181">
        <ele>800.92</ele>
        <time>2016-06-11T13:35:51Z</time>
      </trkpt>
      <trkpt lat="46.64679" lon="6.02185">
        <ele>801.4</ele>
        <time>2016-06-11T13:35:53Z</time>
      </trkpt>
      <trkpt lat="46.64679" lon="6.0219">
        <ele>801.4</ele>
        <time>2016-06-11T13:36:02Z</time>
      </trkpt>
      <trkpt lat="46.64677" lon="6.02192">
        <ele>801.4</ele>
        <time>2016-06-11T13:36:05Z</time>
      </trkpt>
      <trkpt lat="46.6467" lon="6.0219">
        <ele>802.84</ele>
        <time>2016-06-11T13:36:11Z</time>
      </trkpt>
      <trkpt lat="46.64666" lon="6.02191">
        <ele>803.32</ele>
        <time>2016-06-11T13:36:15Z</time>
      </trkpt>
      <trkpt lat="46.64664" lon="6.02192">
        <ele>803.8</ele>
        <time>2016-06-11T13:36:17Z</time>
      </trkpt>
      <trkpt lat="46.64643" lon="6.02189">
        <ele>805.24</ele>
        <time>2016-06-11T13:36:36Z</time>
      </trkpt>
      <trkpt lat="46.64624" lon="6.0219">
        <ele>805.24</ele>
        <time>2016-06-11T13:36:54Z</time>
      </trkpt>
      <trkpt lat="46.64601" lon="6.02194">
        <ele>806.68</ele>
        <time>2016-06-11T13:37:13Z</time>
      </trkpt>
      <trkpt lat="46.64581" lon="6.02194">
        <ele>807.16</ele>
        <time>2016-06-11T13:37:31Z</time>
      </trkpt>
      <trkpt lat="46.64563" lon="6.02193">
        <ele>807.16</ele>
        <time>2016-06-11T13:37:48Z</time>
      </trkpt>
      <trkpt lat="46.64544" lon="6.022">
        <ele>807.16</ele>
        <time>2016-06-11T13:38:05Z</time>
      </trkpt>
      <trkpt lat="46.64523" lon="6.02213">
        <ele>808.13</ele>
        <time>2016-06-11T13:38:24Z</time>
      </trkpt>
      <trkpt lat="46.64506" lon="6.02222">
        <ele>811.49</ele>
        <time>2016-06-11T13:38:39Z</time>
      </trkpt>
      <trkpt lat="46.64502" lon="6.02224">
        <ele>811.97</ele>
        <time>2016-06-11T13:38:43Z</time>
      </trkpt>
      <trkpt lat="46.64495" lon="6.02231">
        <ele>812.45</ele>
        <time>2016-06-11T13:38:50Z</time>
      </trkpt>
      <trkpt lat="46.6449" lon="6.02236">
        <ele>813.89</ele>
        <time>2016-06-11T13:38:56Z</time>
      </trkpt>
      <trkpt lat="46.64483" lon="6.02246">
        <ele>816.78</ele>
        <time>2016-06-11T13:39:03Z</time>
      </trkpt>
      <trkpt lat="46.64478" lon="6.02253">
        <ele>817.26</ele>
        <time>2016-06-11T13:39:07Z</time>
      </trkpt>
      <trkpt lat="46.64466" lon="6.02268">
        <ele>818.22</ele>
        <time>2016-06-11T13:39:21Z</time>
      </trkpt>
      <trkpt lat="46.64453" lon="6.02287">
        <ele>818.22</ele>
        <time>2016-06-11T13:39:36Z</time>
      </trkpt>
      <trkpt lat="46.64441" lon="6.023">
        <ele>816.78</ele>
        <time>2016-06-11T13:39:52Z</time>
      </trkpt>
      <trkpt lat="46.64434" lon="6.02311">
        <ele>817.74</ele>
        <time>2016-06-11T13:40:00Z</time>
      </trkpt>
      <trkpt lat="46.64427" lon="6.0233">
        <ele>817.74</ele>
        <time>2016-06-11T13:40:11Z</time>
      </trkpt>
      <trkpt lat="46.64426" lon="6.02337">
        <ele>817.74</ele>
        <time>2016-06-11T13:40:15Z</time>
      </trkpt>
      <trkpt lat="46.64424" lon="6.02348">
        <ele>816.78</ele>
        <time>2016-06-11T13:40:21Z</time>
      </trkpt>
      <trkpt lat="46.64423" lon="6.02373">
        <ele>818.7</ele>
        <time>2016-06-11T13:40:35Z</time>
      </trkpt>
      <trkpt lat="46.64423" lon="6.02396">
        <ele>821.1</ele>
        <time>2016-06-11T13:40:49Z</time>
      </trkpt>
      <trkpt lat="46.64426" lon="6.02416">
        <ele>821.58</ele>
        <time>2016-06-11T13:41:01Z</time>
      </trkpt>
      <trkpt lat="46.64427" lon="6.0244">
        <ele>820.14</ele>
        <time>2016-06-11T13:41:16Z</time>
      </trkpt>
      <trkpt lat="46.64429" lon="6.02465">
        <ele>819.66</ele>
        <time>2016-06-11T13:41:32Z</time>
      </trkpt>
      <trkpt lat="46.64431" lon="6.02477">
        <ele>822.06</ele>
        <time>2016-06-11T13:41:39Z</time>
      </trkpt>
      <trkpt lat="46.64436" lon="6.02492">
        <ele>822.06</ele>
        <time>2016-06-11T13:41:50Z</time>
      </trkpt>
      <trkpt lat="46.64436" lon="6.02494">
        <ele>822.06</ele>
        <time>2016-06-11T13:41:51Z</time>
      </trkpt>
      <trkpt lat="46.64441" lon="6.02504">
        <ele>820.62</ele>
        <time>2016-06-11T13:41:59Z</time>
      </trkpt>
      <trkpt lat="46.64441" lon="6.02505">
        <ele>820.62</ele>
        <time>2016-06-11T13:42:03Z</time>
      </trkpt>
      <trkpt lat="46.64444" lon="6.02506">
        <ele>821.1</ele>
        <time>2016-06-11T13:42:06Z</time>
      </trkpt>
      <trkpt lat="46.64446" lon="6.02504">
        <ele>821.1</ele>
        <time>2016-06-11T13:42:19Z</time>
      </trkpt>
      <trkpt lat="46.64443" lon="6.02507">
        <ele>820.14</ele>
        <time>2016-06-11T13:42:28Z</time>
      </trkpt>
      <trkpt lat="46.64443" lon="6.02507">
        <ele>820.14</ele>
        <time>2016-06-11T13:42:29Z</time>
      </trkpt>
      <trkpt lat="46.6444" lon="6.0251">
        <ele>820.62</ele>
        <time>2016-06-11T13:42:32Z</time>
      </trkpt>
      <trkpt lat="46.64442" lon="6.02524">
        <ele>821.58</ele>
        <time>2016-06-11T13:42:40Z</time>
      </trkpt>
      <trkpt lat="46.6444" lon="6.02538">
        <ele>822.06</ele>
        <time>2016-06-11T13:42:48Z</time>
      </trkpt>
      <trkpt lat="46.64432" lon="6.02553">
        <ele>820.14</ele>
        <time>2016-06-11T13:43:00Z</time>
      </trkpt>
      <trkpt lat="46.6435" lon="6.02568">
        <ele>814.6</ele>
      </trkpt>
      <trkpt lat="46.64241" lon="6.02627">
        <ele>809.8</ele>
      </trkpt>
      <trkpt lat="46.64177" lon="6.02636">
        <ele>811.2</ele>
      </trkpt>
      <trkpt lat="46.64098" lon="6.02655">
        <ele>807.5</ele>
      </trkpt>
      <trkpt lat="46.64005" lon="6.02706">
        <ele>804.1</ele>
      </trkpt>
      <trkpt lat="46.63954" lon="6.02742">
        <ele>803</ele>
      </trkpt>
      <trkpt lat="46.639" lon="6.02809">
        <ele>800</ele>
      </trkpt>
      <trkpt lat="46.63826" lon="6.02918">
        <ele>797.7</ele>
      </trkpt>
      <trkpt lat="46.63779" lon="6.03014">
        <ele>795.5</ele>
      </trkpt>
      <trkpt lat="46.6368" lon="6.03037">
        <ele>819.66</ele>
        <time>2016-06-11T13:43:01Z</time>
      </trkpt>
    </trkseg>
  </trk>
</gpx>